[[{"header":{"parameterUnit":"m.s-1","parameterCategory":1,"la1":30.6,"la2":28.766,"lo1":-90.7593,"lo2":-88.6598,"dx":0.0162,"dy":0.0183,"nx":116,"ny":114,"refTime":"2022-12-09T06:00:00:Z","depth":0,"parameterNumber":2,"parameterNumberName":"U-component_of_WINDS"},"data":[0.0,0.0,0.0,0.0,0.0,0.0,0.0,0.0,0.0,0.0,0.0,0.0,0.0,0.0,0.0,0.0,0.0,0.0,0.0,0.0,0.0,0.0,0.0,0.0,0.0,0.0,0.0,0.0,0.0,0.0,0.0,0.0,0.0,0.0,0.0,0.0,0.0,0.0,0.0,0.0,0.0,0.0,0.0,0.0,0.0,0.0,0.0,0.0,0.0,0.0,0.0,0.0,0.0,0.0,0.0,0.0,0.0,0.0,0.0,0.0,0.0,0.0,0.0,0.0,0.0,0.0,0.0,0.0,0.0,0.0,0.0,0.0,0.0,0.0,0.0,0.0,0.0,0.0,0.0,0.0,0.0,0.0,0.0,0.0,0.0,0.0,0.0,0.0,0.0,0.0,0.0,0.0,0.0,0.0,0.0,0.0,0.0,0.0,0.0,0.0,0.0,0.0,0.0,0.0,0.0,0.0,0.0,0.0,0.0,0.0,0.0,0.0,0.0,0.0,0.0,0.0,0.0,0.0,0.0,0.0,0.0,0.0,0.0,0.0,0.0,0.0,0.0,0.0,0.0,0.0,0.0,0.0,0.0,0.0,0.0,0.0,0.0,0.0,0.0,0.0,0.0,0.0,0.0,0.0,0.0,0.0,0.0,0.0,0.0,0.0,0.0,0.0,0.0,0.0,0.0,0.0,0.0,0.0,0.0,0.0,0.0,0.0,0.0,0.0,0.0,0.0,0.0,0.0,0.0,0.0,0.0,0.0,0.0,0.0,0.0,0.0,0.0,0.0,0.0,0.0,0.0,0.0,0.0,0.0,0.0,0.0,0.0,0.0,0.0,0.0,0.0,0.0,0.0,0.0,0.0,0.0,0.0,0.0,0.0,0.0,0.0,0.0,0.0,0.0,0.0,0.0,0.0,0.0,0.0,0.0,0.0,0.0,0.0,0.0,0.0,0.0,0.0,0.0,0.0,0.0,0.0,0.0,0.0,0.0,0.0,0.0,0.0,0.0,0.0,0.0,0.0,0.0,0.0,0.0,0.0,0.0,0.0,0.0,0.0,0.0,0.0,0.0,0.0,0.0,0.0,0.0,0.0,0.0,0.0,0.0,0.0,0.0,0.0,0.0,0.0,0.0,0.0,0.0,0.0,0.0,0.0,0.0,0.0,0.0,0.0,0.0,0.0,0.0,0.0,0.0,0.0,0.0,0.0,0.0,0.0,0.0,0.0,0.0,0.0,0.0,0.0,0.0,0.0,0.0,0.0,0.0,0.0,0.0,0.0,0.0,0.0,0.0,0.0,0.0,0.0,0.0,0.0,0.0,0.0,0.0,0.0,0.0,0.0,0.0,0.0,0.0,0.0,0.0,0.0,0.0,0.0,0.0,0.0,0.0,0.0,0.0,0.0,0.0,0.0,0.0,0.0,0.0,0.0,0.0,0.0,0.0,0.0,0.0,0.0,0.0,0.0,0.0,0.0,0.0,0.0,0.0,0.0,0.0,0.0,0.0,0.0,0.0,0.0,0.0,0.0,0.0,0.0,0.0,0.0,0.0,0.0,0.0,0.0,0.0,0.0,0.0,0.0,0.0,0.0,0.0,0.0,0.0,0.0,0.0,0.0,0.0,0.0,0.0,0.0,0.0,0.0,0.0,0.0,0.0,0.0,0.0,0.0,0.0,0.0,0.0,0.0,0.0,0.0,0.0,0.0,0.0,0.0,0.0,0.0,0.0,0.0,0.0,0.0,0.0,0.0,0.0,0.0,0.0,0.0,0.0,0.0,0.0,0.0,0.0,0.0,0.0,0.0,0.0,0.0,0.0,0.0,0.0,0.0,0.0,0.0,0.0,0.0,0.0,0.0,0.0,0.0,0.0,0.0,0.0,0.0,0.0,0.0,0.0,0.0,0.0,0.0,0.0,0.0,0.0,0.0,0.0,0.0,0.0,0.0,0.0,0.0,0.0,0.0,0.0,0.0,0.0,0.0,0.0,0.0,0.0,0.0,0.0,0.0,0.0,0.0,0.0,0.0,0.0,0.0,0.0,0.0,0.0,0.0,0.0,0.0,0.0,0.0,0.0,0.0,0.0,0.0,0.0,0.0,0.0,0.0,0.0,0.0,0.0,0.0,0.0,0.0,0.0,0.0,0.0,0.0,0.0,0.0,0.0,0.0,0.0,0.0,0.0,0.0,0.0,0.0,0.0,0.0,0.0,0.0,0.0,0.0,0.0,0.0,0.0,0.0,0.0,0.0,0.0,0.0,0.0,0.0,0.0,0.0,0.0,0.0,0.0,0.0,0.0,0.0,0.0,0.0,0.0,0.0,0.0,0.0,0.0,0.0,0.0,0.0,0.0,0.0,0.0,0.0,0.0,0.0,0.0,0.0,0.0,0.0,0.0,0.0,0.0,0.0,0.0,0.0,0.0,0.0,0.0,0.0,0.0,0.0,0.0,0.0,0.0,0.0,0.0,0.0,0.0,0.0,0.0,0.0,0.0,0.0,0.0,0.0,0.0,0.0,0.0,0.0,0.0,0.0,0.0,0.0,0.0,0.0,0.0,0.0,0.0,0.0,0.0,0.0,0.0,0.0,0.0,0.0,0.0,0.0,0.0,0.0,0.0,0.0,0.0,0.0,0.0,0.0,0.0,0.0,0.0,0.0,0.0,0.0,0.0,0.0,0.0,0.0,0.0,0.0,0.0,0.0,0.0,0.0,0.0,0.0,0.0,0.0,0.0,0.0,0.0,0.0,0.0,0.0,0.0,0.0,0.0,0.0,0.0,0.0,0.0,0.0,0.0,0.0,0.0,0.0,0.0,0.0,0.0,0.0,0.0,0.0,0.0,0.0,0.0,0.0,0.0,0.0,0.0,0.0,0.0,0.0,0.0,0.0,0.0,0.0,0.0,0.0,0.0,0.0,0.0,0.0,0.0,0.0,0.0,0.0,0.0,0.0,0.0,0.0,0.0,0.0,0.0,0.0,0.0,0.0,0.0,0.0,0.0,0.0,0.0,0.0,0.0,0.0,0.0,0.0,0.0,0.0,0.0,0.0,0.0,0.0,0.0,0.0,0.0,0.0,0.0,0.0,0.0,0.0,0.0,0.0,0.0,0.0,0.0,0.0,0.0,0.0,0.0,0.0,0.0,0.0,0.0,0.0,0.0,0.0,0.0,0.0,0.0,0.0,0.0,0.0,0.0,0.0,0.0,0.0,0.0,0.0,0.0,0.0,0.0,0.0,0.0,0.0,0.0,0.0,0.0,0.0,0.0,0.0,0.0,0.0,0.0,0.0,0.0,0.0,0.0,0.0,0.0,0.0,0.0,0.0,0.0,0.0,0.0,0.0,0.0,0.0,0.0,0.0,0.0,0.0,0.0,0.0,0.0,0.0,0.0,0.0,0.0,0.0,0.0,0.0,0.0,0.0,0.0,0.0,0.0,0.0,0.0,0.0,0.0,0.0,0.0,0.0,0.0,0.0,0.0,0.0,0.0,0.0,0.0,0.0,0.0,0.0,0.0,0.0,0.0,0.0,0.0,0.0,0.0,0.0,0.0,0.0,0.0,0.0,0.0,0.0,0.0,0.0,0.0,0.0,0.0,0.0,0.0,0.0,0.0,0.0,0.0,0.0,0.0,0.0,0.0,0.0,0.0,0.0,0.0,0.0,0.0,0.0,0.0,0.0,0.0,0.0,0.0,0.0,0.0,0.0,0.0,0.0,0.0,0.0,0.0,0.0,0.0,0.0,0.0,0.0,0.0,0.0,0.0,0.0,0.0,0.0,0.0,0.0,0.0,0.0,0.0,0.0,0.0,0.0,0.0,0.0,0.0,0.0,0.0,0.0,0.0,0.0,0.0,0.0,0.0,0.0,0.0,0.0,0.0,0.0,0.0,0.0,0.0,0.0,0.0,0.0,0.0,0.0,0.0,0.0,0.0,0.0,0.0,0.0,0.0,0.0,0.0,0.0,0.0,0.0,0.0,0.0,0.0,0.0,0.0,0.0,0.0,0.0,0.0,0.0,0.0,0.0,0.0,0.0,0.0,0.0,0.0,0.0,0.0,0.0,0.0,0.0,0.0,0.0,0.0,0.0,0.0,0.0,0.0,0.0,0.0,0.0,0.0,0.0,0.0,0.0,0.0,0.0,0.0,0.0,0.0,0.0,0.0,0.0,0.0,0.0,0.0,0.0,0.0,0.0,0.0,0.0,0.0,0.0,0.0,0.0,0.0,0.0,0.0,0.0,0.0,0.0,0.0,0.0,0.0,0.0,0.0,0.0,0.0,0.0,0.0,0.0,0.0,0.0,0.0,0.0,0.0,0.0,0.0,0.0,0.0,0.0,0.0,0.0,0.0,0.0,0.0,0.0,0.0,0.0,0.0,0.0,0.0,0.0,0.0,0.0,0.0,0.0,0.0,0.0,0.0,0.0,0.0,0.0,0.0,0.0,0.0,0.0,0.0,0.0,0.0,0.0,0.0,0.0,0.0,0.0,0.0,0.0,0.0,0.0,0.0,0.0,0.0,0.0,0.0,0.0,0.0,0.0,0.0,0.0,0.0,0.0,0.0,0.0,0.0,0.0,0.0,0.0,0.0,0.0,0.0,0.0,0.0,0.0,0.0,0.0,0.0,0.0,0.0,0.0,0.0,0.0,0.0,0.0,0.0,0.0,0.0,0.0,0.0,0.0,0.0,0.0,0.0,0.0,0.0,0.0,0.0,0.0,0.0,0.0,0.0,0.0,0.0,0.0,0.0,0.0,0.0,0.0,0.0,0.0,0.0,0.0,0.0,0.0,0.0,0.0,0.0,0.0,0.0,0.0,0.0,0.0,0.0,0.0,0.0,0.0,0.0,0.0,0.0,0.0,0.0,0.0,0.0,0.0,0.0,0.0,0.0,0.0,0.0,0.0,0.0,0.0,0.0,0.0,0.0,0.0,0.0,0.0,0.0,0.0,0.0,0.0,0.0,0.0,0.0,0.0,0.0,0.0,0.0,0.0,0.0,0.0,0.0,0.0,0.0,0.0,0.0,0.0,0.0,0.0,0.0,0.0,0.0,0.0,0.0,0.0,0.0,0.0,0.0,0.0,0.0,0.0,0.0,0.0,0.0,0.0,0.0,0.0,0.0,0.0,0.0,0.0,0.0,0.0,0.0,0.0,0.0,0.0,0.0,0.0,0.0,0.0,0.0,0.0,0.0,0.0,0.0,0.0,0.0,0.0,0.0,0.0,0.0,0.0,0.0,0.0,0.0,0.0,0.0,0.0,0.0,0.0,0.0,0.0,0.0,0.0,0.0,0.0,0.0,0.0,0.0,0.0,0.0,0.0,0.0,0.0,0.0,0.0,0.0,0.0,0.0,0.0,0.0,0.0,0.0,0.0,0.0,0.0,0.0,0.0,0.0,0.0,0.0,0.0,0.0,0.0,0.0,0.0,0.0,0.0,0.0,0.0,0.0,0.0,0.0,0.0,0.0,0.0,0.0,0.0,0.0,0.0,0.0,0.0,0.0,0.0,0.0,0.0,0.0,0.0,0.0,0.0,0.0,0.0,0.0,0.0,0.0,0.0,0.0,0.0,0.0,0.0,0.0,0.0,0.0,0.0,0.0,0.0,0.0,0.0,0.0,0.0,0.0,0.0,0.0,0.0,0.0,0.0,0.0,0.0,0.0,0.0,0.0,0.0,0.0,0.0,0.0,0.0,0.0,0.0,0.0,0.0,0.0,0.0,0.0,0.0,0.0,0.0,0.0,0.0,0.0,0.0,0.0,0.0,0.0,0.0,0.0,0.0,0.0,0.0,0.0,0.0,0.0,0.0,0.0,0.0,0.0,0.0,0.0,0.0,0.0,0.0,0.0,0.0,0.0,0.0,0.0,0.0,0.0,0.0,0.0,0.0,0.0,0.0,0.0,0.0,0.0,0.0,0.0,0.0,0.0,0.0,0.0,0.0,0.0,0.0,0.0,0.0,0.0,0.0,0.0,0.0,0.0,0.0,0.0,0.0,0.0,0.0,0.0,0.0,0.0,0.0,0.0,0.0,0.0,0.0,0.0,0.0,0.0,0.0,0.0,0.0,0.0,0.0,0.0,0.0,0.0,0.0,0.0,0.0,0.0,0.0,0.0,0.0,0.0,-3.8013,0.0,0.0,0.0,0.0,0.0,0.0,0.0,0.0,0.0,0.0,0.0,0.0,0.0,0.0,0.0,0.0,0.0,0.0,0.0,0.0,0.0,0.0,0.0,0.0,0.0,0.0,0.0,0.0,0.0,0.0,0.0,0.0,0.0,0.0,0.0,0.0,0.0,-3.4242,-3.3964,-3.5061,-3.6718,-3.8918,-3.843,-3.6817,-3.4356,0.0,0.0,0.0,0.0,0.0,0.0,0.0,0.0,0.0,0.0,0.0,0.0,0.0,0.0,0.0,0.0,0.0,0.0,0.0,0.0,0.0,0.0,0.0,0.0,0.0,0.0,0.0,0.0,0.0,0.0,0.0,0.0,0.0,0.0,0.0,0.0,0.0,0.0,0.0,0.0,0.0,0.0,0.0,0.0,0.0,0.0,0.0,0.0,0.0,0.0,0.0,0.0,0.0,0.0,0.0,0.0,0.0,0.0,0.0,0.0,0.0,0.0,0.0,0.0,0.0,0.0,0.0,0.0,0.0,0.0,0.0,-3.9536,0.0,0.0,0.0,0.0,0.0,0.0,0.0,0.0,0.0,0.0,0.0,0.0,0.0,0.0,0.0,0.0,0.0,0.0,0.0,0.0,0.0,0.0,0.0,-3.7992,-3.7853,-3.7913,-3.715,-3.666,0.0,0.0,0.0,0.0,0.0,0.0,0.0,-3.479,-3.4469,-3.425,-3.5993,-3.8505,-4.1718,-4.284,-4.0607,-3.57,-3.6304,0.0,0.0,0.0,0.0,0.0,0.0,0.0,0.0,0.0,0.0,0.0,0.0,0.0,0.0,0.0,0.0,0.0,0.0,0.0,0.0,0.0,0.0,0.0,0.0,0.0,0.0,0.0,0.0,0.0,0.0,0.0,0.0,0.0,0.0,0.0,0.0,0.0,0.0,0.0,0.0,0.0,0.0,0.0,0.0,0.0,0.0,0.0,0.0,0.0,0.0,0.0,0.0,0.0,0.0,0.0,0.0,0.0,0.0,0.0,0.0,0.0,0.0,0.0,-4.4464,-4.4562,-4.4288,-4.4617,-4.476,-4.4869,-4.5303,-4.4394,-4.2554,-4.2055,0.0,0.0,0.0,0.0,0.0,0.0,0.0,0.0,0.0,0.0,0.0,0.0,0.0,0.0,0.0,0.0,0.0,0.0,0.0,0.0,0.0,-3.7098,-3.6394,-3.6379,-3.5345,-3.4682,-3.4657,0.0,0.0,0.0,0.0,0.0,-3.4534,-3.5035,-3.5909,-3.723,-3.9465,-4.0993,-4.1718,-4.2395,-4.2129,-4.1084,-4.1697,-4.0831,-3.8764,0.0,0.0,0.0,0.0,0.0,0.0,0.0,0.0,0.0,0.0,0.0,0.0,0.0,0.0,0.0,0.0,0.0,0.0,0.0,0.0,0.0,0.0,0.0,0.0,0.0,0.0,0.0,0.0,0.0,0.0,0.0,0.0,0.0,0.0,0.0,0.0,0.0,0.0,0.0,0.0,0.0,-3.9901,-3.9117,0.0,0.0,0.0,0.0,0.0,0.0,0.0,0.0,0.0,0.0,0.0,0.0,0.0,-4.4212,-4.3204,-4.4054,-4.3615,-4.1904,-4.4619,-4.5662,-4.5378,-4.697,-4.7873,-4.8162,-4.7957,0.0,-4.4419,-4.3278,0.0,0.0,0.0,0.0,0.0,0.0,0.0,0.0,0.0,0.0,0.0,0.0,0.0,0.0,0.0,0.0,0.0,0.0,0.0,0.0,0.0,-3.9369,-3.9469,-3.868,-3.8865,-3.8452,-3.7099,-3.6987,0.0,0.0,0.0,-3.5543,-3.5473,-3.6664,-3.8773,-4.1654,-4.3044,-4.4709,-4.6586,-4.7014,-4.7578,-4.824,-4.7619,-4.5082,-4.1233,-3.9496,0.0,0.0,0.0,0.0,0.0,0.0,0.0,0.0,0.0,0.0,0.0,0.0,0.0,0.0,0.0,0.0,0.0,0.0,0.0,0.0,0.0,0.0,0.0,0.0,0.0,0.0,0.0,0.0,0.0,0.0,0.0,0.0,0.0,0.0,0.0,0.0,0.0,0.0,0.0,-3.9243,-4.0065,-3.9634,-4.0796,-4.1035,0.0,0.0,0.0,0.0,0.0,0.0,0.0,0.0,0.0,-4.2391,-4.3889,-4.4676,-4.4594,-4.5926,-4.626,-4.5622,-4.6976,-4.76,-4.7589,-4.8455,-4.8858,-4.9029,-4.8833,-4.8244,-4.7154,-4.5022,-4.3766,-4.3118,0.0,0.0,0.0,0.0,-4.1701,-4.1363,0.0,0.0,0.0,0.0,0.0,0.0,0.0,0.0,0.0,0.0,0.0,0.0,-4.0388,-4.2042,-4.2704,-4.1465,-4.2021,-4.1536,-3.9305,-3.9112,-3.831,-3.6474,-3.6351,-3.6373,-3.6548,-3.8937,-4.181,-4.5157,-4.6212,-4.8013,-5.0379,-5.0588,-5.1361,-5.2483,-5.1353,-4.846,-4.4298,-4.1918,-4.0728,-4.0118,0.0,0.0,0.0,0.0,0.0,0.0,0.0,0.0,0.0,0.0,0.0,0.0,0.0,0.0,0.0,0.0,0.0,0.0,0.0,0.0,0.0,0.0,0.0,0.0,0.0,0.0,0.0,0.0,0.0,0.0,0.0,0.0,0.0,0.0,0.0,0.0,0.0,-3.9794,-4.0659,-3.977,-4.1241,-4.1764,0.0,0.0,0.0,0.0,0.0,0.0,-4.0611,-4.2087,-4.2914,-4.2886,-4.4678,-4.5747,-4.6101,-4.7923,-4.8717,-4.8435,-4.8962,-4.9152,-4.9153,-4.9153,-4.9077,-4.895,-4.895,-4.8849,-4.8582,-4.6347,-4.4642,-4.3429,-4.2577,-4.2396,-4.2628,-4.2499,-4.247,-4.2429,0.0,0.0,0.0,0.0,0.0,0.0,0.0,0.0,0.0,0.0,0.0,-4.3363,-4.3138,-4.4113,-4.4384,-4.3452,-4.2449,-4.114,-3.9392,-3.9189,-3.8347,-3.6652,-3.6387,-3.6606,-3.7244,-4.1592,-4.4726,-4.6506,-4.8709,-4.9977,-5.0379,-5.0379,-5.0592,-5.0909,-5.1104,-5.0146,-4.8304,-4.6359,-4.485,-4.3398,-3.9567,0.0,0.0,0.0,0.0,0.0,0.0,0.0,0.0,0.0,0.0,0.0,0.0,0.0,0.0,0.0,0.0,0.0,0.0,0.0,0.0,0.0,0.0,0.0,0.0,0.0,0.0,0.0,0.0,0.0,0.0,0.0,0.0,0.0,0.0,0.0,0.0,0.0,0.0,-3.9633,-4.0657,0.0,0.0,0.0,0.0,-4.0534,-4.1699,-4.2293,-4.2293,-4.5067,-4.6601,-4.6601,-4.8465,-4.8833,-4.7707,-4.9441,-4.9343,-4.7623,-4.9339,-4.9768,-4.9121,-4.9121,-4.8855,-4.8372,-4.8372,-4.8082,-4.7537,-4.6813,-4.6642,-4.6586,-4.4892,-4.3851,-4.346,-4.4603,-4.4019,-4.2762,0.0,0.0,0.0,0.0,0.0,-3.7897,-3.8089,-3.8785,-3.9812,-4.1177,-4.3495,-4.4623,-4.3668,-4.6004,-4.6921,-4.52,-4.5527,-4.5117,-4.3437,-4.2339,-4.0986,-3.9324,-3.8165,-3.8832,-4.1621,-4.4345,-4.6704,-4.8793,-4.9615,-5.0263,-5.071,-5.0922,-5.136,-5.1995,-5.1828,-5.159,-5.1033,-4.8275,-4.6853,-4.6127,-4.2673,-4.0525,0.0,0.0,0.0,0.0,0.0,0.0,0.0,0.0,0.0,0.0,0.0,0.0,0.0,0.0,0.0,0.0,0.0,0.0,0.0,0.0,0.0,0.0,0.0,0.0,0.0,0.0,0.0,0.0,0.0,0.0,0.0,0.0,0.0,0.0,0.0,0.0,0.0,-4.0895,-4.232,0.0,-4.1647,-4.0925,-4.1064,-4.2322,-4.2836,-4.3431,-4.4087,-4.5834,-4.7107,-4.7799,-4.8457,-4.8756,-4.8638,-4.9273,-4.9229,-4.8531,-4.915,-4.9344,-4.9084,-4.9084,-4.8988,-4.8796,-4.8796,-4.87,-4.8479,-4.7963,-4.7784,-4.7725,-4.6748,-4.6476,-4.6586,-4.7044,-4.6816,-4.646,0.0,0.0,0.0,0.0,-3.909,-3.9023,-3.9249,-3.9912,-4.1077,-4.2999,-4.5332,-4.6734,-4.6416,-4.8789,-4.9764,-4.8297,-4.8688,-4.7956,-4.5581,-4.4186,-4.2539,-4.0274,-3.9863,-4.1417,-4.5182,-4.6526,-4.8245,-5.0322,-5.0322,-5.0519,-5.0913,-5.0876,-5.1229,-5.1811,-5.1699,-5.1903,-5.2139,-5.0026,-4.8943,-4.8508,-4.5721,-4.3195,-4.0902,0.0,0.0,0.0,0.0,0.0,0.0,0.0,0.0,0.0,0.0,0.0,0.0,0.0,0.0,0.0,0.0,0.0,0.0,0.0,0.0,0.0,0.0,0.0,0.0,0.0,0.0,0.0,0.0,0.0,0.0,0.0,0.0,0.0,0.0,0.0,-4.1666,-4.1243,-4.2764,-4.3726,-4.3411,-4.2793,-4.2905,-4.4161,-4.462,-4.5164,-4.5886,-4.6944,-4.7834,-4.8531,-4.8555,-4.8724,-4.9084,-4.9253,-4.9349,-4.9349,-4.9541,-4.9638,-4.9638,-4.9638,-4.9517,-4.9349,-4.9349,-4.9253,-4.906,-4.87,-4.8652,-4.8724,-4.7858,-4.7714,-4.805,-4.8219,-4.8291,-4.8435,0.0,0.0,0.0,-4.1309,-4.0845,-4.021,-3.9481,-4.1143,-4.3065,-4.4556,-4.7171,-4.9588,-5.1483,-5.2373,-5.2702,-5.25,-5.1449,-4.9173,-4.537,-4.4533,-4.2725,-3.947,-4.1542,-4.4253,-4.7497,-4.8154,-4.9296,-5.0916,-5.0916,-5.0916,-5.0888,-5.0322,-5.0041,-5.0041,-5.0564,-5.1138,-5.1676,-5.1619,-5.1294,-5.054,-4.8653,-4.5982,-4.2934,0.0,0.0,0.0,0.0,0.0,0.0,0.0,0.0,0.0,0.0,0.0,0.0,0.0,0.0,0.0,0.0,0.0,0.0,0.0,0.0,0.0,0.0,0.0,0.0,0.0,0.0,0.0,0.0,0.0,0.0,0.0,0.0,0.0,-3.7892,-4.1002,-4.2593,-4.0757,-4.1894,-4.3048,-4.3553,-4.3625,-4.4299,-4.5862,-4.692,-4.7521,-4.7545,-4.8531,-4.9084,-4.9133,-4.9133,-4.9133,-4.9133,-4.9638,-4.9878,-4.9902,-5.0455,-5.0696,-5.0696,-5.0696,-5.0407,-4.9878,-4.9878,-4.9614,-4.9133,-4.9133,-4.9421,-4.9734,-4.8171,-4.7593,-4.7666,-4.8171,-4.8363,-4.8507,-4.164,-4.1839,-4.1806,-4.1446,-4.1243,-4.1077,-4.0845,-4.1806,-4.34,-4.5947,-4.8827,-5.0765,-5.1069,-5.2325,-5.2851,-5.1984,-5.1275,-5.0105,-4.8283,-4.649,-4.4555,-4.2422,-4.5206,-4.7453,-4.8776,-5.0146,-5.1082,-5.1534,-5.1534,-5.1534,-5.1534,-5.0916,-5.0794,-5.0925,-5.063,-5.0725,-5.1104,-5.1782,-5.1626,-5.1042,-5.0672,-4.8914,-4.6417,0.0,0.0,0.0,0.0,0.0,0.0,0.0,0.0,0.0,0.0,0.0,0.0,0.0,0.0,0.0,0.0,0.0,0.0,0.0,0.0,0.0,0.0,0.0,0.0,0.0,0.0,0.0,0.0,0.0,0.0,0.0,0.0,-4.1435,-4.0074,-4.1305,-4.2718,-4.3673,-4.4227,-4.4828,-4.5742,-4.5838,-4.6175,-4.7016,-4.7329,-4.7834,-4.8603,-4.8916,-4.9445,-5.0239,-5.0263,-5.0263,-5.0263,-5.0407,-5.0479,-5.0479,-5.0624,-5.0696,-5.0696,-5.0696,-5.0624,-5.0479,-5.0479,-5.0383,-5.0263,-5.0263,-5.0335,-5.0383,-4.9541,-4.9469,-4.9854,-4.9998,-5.0046,-5.007,-4.1744,-4.174,-4.1674,-4.1839,-4.1607,-4.148,-4.1811,-4.2473,-4.4227,-4.7835,-4.9679,-5.1485,-5.3386,-5.3754,-5.3881,-5.3867,-5.232,-5.0654,-4.8843,-4.6614,-4.5441,-4.5577,-4.7879,-4.9545,-5.0315,-5.1532,-5.218,-5.218,-5.218,-5.218,-5.2152,-5.1281,-5.0995,-5.1098,-5.0327,-5.0228,-5.0691,-5.1351,-5.154,-5.1454,-5.1897,-5.0514,-4.8188,-4.8188,-4.6766,-4.4763,-4.4472,-4.4705,-4.4908,-4.3137,0.0,0.0,0.0,0.0,0.0,0.0,0.0,0.0,0.0,0.0,0.0,0.0,0.0,0.0,0.0,0.0,0.0,0.0,0.0,0.0,0.0,0.0,0.0,0.0,-4.0248,-4.2556,-4.2352,-4.3299,-4.4419,-4.5645,-4.579,-4.6126,-4.6968,-4.704,-4.7161,-4.7473,-4.7714,-4.8195,-4.9036,-4.9277,-4.9806,-5.0672,-5.0696,-5.0696,-5.0696,-5.0696,-5.0696,-5.0696,-5.0696,-5.0696,-5.0696,-5.0696,-5.0696,-5.0696,-5.0696,-5.0696,-5.0696,-5.0696,-5.0696,0.0,0.0,0.0,0.0,0.0,-5.0696,-5.0696,-4.2303,-4.1442,-4.0912,-4.2142,-4.1877,-4.1744,-4.2406,-4.3267,-4.5386,-4.9756,-5.0249,-5.1977,-5.676,-5.5871,-5.5364,-5.6474,-5.3942,-5.1011,-4.8076,-4.6203,-4.6195,-4.8516,-4.9879,-5.1017,-5.1983,-5.2545,-5.2798,-5.2798,-5.2798,-5.2798,-5.2798,-5.1618,-5.1084,-5.1082,-5.0025,-4.9846,-5.0379,-5.0725,-5.1114,-5.1599,-5.2395,-5.1247,-4.9049,-4.9049,-4.8025,-4.6446,-4.5866,-4.6446,-4.7346,-4.6505,0.0,0.0,0.0,0.0,0.0,0.0,0.0,0.0,0.0,0.0,0.0,0.0,0.0,0.0,0.0,0.0,0.0,0.0,0.0,0.0,0.0,0.0,0.0,0.0,-4.0602,-4.2745,-4.4579,-4.5957,-4.6776,-4.6728,-4.6704,-4.692,-4.7449,-4.7497,-4.7497,-4.7497,-4.8002,-4.8507,-4.9036,0.0,0.0,0.0,0.0,-5.0696,-5.0696,-5.0696,-5.0696,-5.0696,-5.0696,-5.0696,-5.0696,-5.0696,-5.0696,-5.0696,-5.0696,-5.0696,-5.0696,-5.0696,-5.0696,-5.0696,-5.0696,-5.0696,-5.0696,-5.0696,-5.0696,-5.0696,-4.2655,-4.1806,-4.1309,-4.1574,-4.2005,-4.234,-4.2473,-4.4158,-4.6742,-5.0619,-5.1536,-5.3081,-5.6187,-5.6379,-5.5937,-5.5259,-5.4048,-5.1988,-4.8774,-4.8944,-4.941,-4.9879,-5.1415,-5.2601,-5.3304,-5.3416,-5.3501,-5.3501,-5.3501,-5.3501,-5.3473,-5.2714,-5.2349,-5.2293,-5.111,-5.0403,-5.0146,-5.0865,-5.097,-5.0768,-5.217,-5.2206,-5.1459,-5.1459,-5.1063,-5.0481,-5.0365,-5.0801,-5.112,-4.8914,-4.8624,-4.8808,-4.6981,-4.5227,0.0,0.0,0.0,0.0,0.0,0.0,0.0,0.0,0.0,0.0,0.0,0.0,0.0,0.0,0.0,0.0,0.0,0.0,0.0,-4.061,-4.3455,-4.5806,-4.6213,-4.6879,-4.7185,-4.6752,-4.6704,-4.692,-4.7449,-4.7497,-4.7497,-4.7497,-4.8002,-4.8507,-4.9036,-4.9589,-5.0119,-5.0696,-5.0696,-5.0696,-5.0696,-5.0696,-5.0696,-5.0696,0.0,0.0,-5.0696,-5.0696,-5.0696,-5.0696,-5.0696,-5.0696,-5.0696,-5.0696,-5.0696,-5.0696,-5.0696,-5.0696,-5.0696,-5.0696,-5.0696,-5.0696,-4.4778,-4.2865,-4.1541,-4.1877,-4.2241,-4.2738,-4.3495,-4.4854,-4.6974,-5.032,-5.1048,-5.2062,-5.4115,-5.3987,-5.3544,-5.2928,-5.2252,-5.0913,-4.8677,-5.0195,-5.1157,-5.1073,-5.2094,-5.2854,-5.3164,-5.3501,-5.381,-5.4119,-5.4428,-5.4597,-5.4569,-5.395,-5.3641,-5.3585,-5.2349,-5.145,-5.0941,-5.1358,-5.1186,-5.0759,-5.1799,-5.2014,-5.1709,-5.2023,-5.2209,-5.2278,-5.1795,-5.2223,-5.2804,-5.1178,-5.0859,-5.0917,-4.964,-4.813,-4.665,0.0,0.0,0.0,0.0,0.0,0.0,0.0,0.0,0.0,0.0,0.0,0.0,0.0,0.0,-3.7697,0.0,0.0,-4.1816,-4.184,-4.4088,-4.596,-4.6418,-4.6681,-4.6915,-4.7112,-4.7112,-4.7209,-4.7473,-4.7497,-4.7497,-4.7497,-4.8002,-4.8507,-4.9036,-4.9589,-5.0119,-5.0696,-5.0696,-5.0696,-5.0696,-5.0696,-5.0696,-5.0696,-5.0696,-5.0696,-5.0696,-5.0696,-5.0696,-5.0696,-5.0696,-5.0696,-5.0696,-5.0696,-5.0696,-5.0696,-5.0696,-5.0696,-5.0696,-5.0696,-5.0696,-5.0696,-4.6975,-4.4385,-4.2402,-4.2866,-4.3065,-4.3562,-4.4721,-4.5649,-4.7173,-4.9856,-5.022,-5.075,-5.2243,-5.1739,-5.1158,-5.0763,-5.0529,-4.994,-4.8856,-5.1055,-5.2309,-5.2146,-5.2376,-5.2574,-5.2714,-5.3332,-5.3978,-5.4597,-5.5187,-5.5496,-5.5496,-5.499,-5.4765,-5.4709,-5.3585,-5.2714,-5.2152,-5.2012,-5.1618,-5.1084,-5.159,-5.1584,-5.1261,-5.1761,-5.2368,-5.2819,-5.204,-5.2259,-5.2949,-5.2949,-5.263,-5.2223,-5.2339,-5.1236,-4.9465,-4.7114,-4.6795,0.0,0.0,0.0,0.0,0.0,0.0,0.0,0.0,0.0,-3.9025,-4.0182,-4.0317,-4.0388,-4.0809,-4.1878,-4.2676,-4.2879,-4.4165,-4.5426,-4.6341,-4.6478,-4.6687,-4.7449,-4.7497,-4.7497,-4.7497,-4.7497,-4.7497,-4.7431,-4.8098,-4.8628,-4.8992,-4.9686,-5.0239,-5.053,-5.0554,-5.0554,-5.0554,-5.0554,-5.0625,-5.0696,-5.0696,-5.0696,-5.0696,-5.0696,-5.0696,-5.0696,-5.0696,-5.0696,-5.0696,-5.0696,-5.0696,-5.0696,-5.0696,-5.0696,-5.0696,-5.0576,-5.06,-5.0696,-4.7651,-4.633,-4.5119,-4.4556,-4.4986,-4.5483,-4.5649,-4.6841,-4.8332,-4.9988,-5.022,-5.075,-5.2243,-5.2332,-5.1565,-4.9893,-5.0761,-5.1256,-5.0879,-5.2478,-5.3449,-5.3397,-5.2452,-5.2152,-5.2686,-5.3332,-5.3978,-5.4597,-5.5187,-5.5496,-5.5496,-5.544,-5.5412,-5.5383,-5.4681,-5.4035,-5.3416,-5.2854,-5.2236,-5.1702,-5.1759,-5.1476,-5.0995,-5.1261,-5.1795,-5.2272,-5.218,-5.1642,-5.1323,-5.3559,-5.2775,-5.1381,-5.411,-5.2949,-5.0278,-4.8827,-4.6882,-4.4529,-4.1468,-4.0841,-4.0976,-4.0808,-4.0849,-4.0685,0.0,0.0,-4.0287,-4.0176,-4.0481,-4.0809,-4.088,-4.2183,-4.3483,-4.427,-4.5331,-4.6365,-4.7197,-4.7335,-4.7359,-4.7497,-4.7497,-4.7497,-4.7497,-4.7497,-4.7364,-4.7098,-4.83,-4.8875,-4.8672,-4.9907,-5.0482,-5.0175,-5.0175,-5.0175,-5.0175,-5.0175,-5.0341,-5.0696,-5.0696,-5.0696,-5.0696,-5.0696,-5.0696,-5.0696,-5.0696,-5.0696,-5.0696,-5.0696,-5.0696,-5.0696,-5.0696,-5.0696,-5.0648,-5.0143,-5.0287,-5.0624,-4.954,-4.8475,-4.7505,-4.72,-4.676,-4.6444,-4.6444,-4.7338,-4.8233,-4.8829,-4.8928,-4.8995,-4.916,-4.8431,-4.7572,-4.6756,-4.9821,-5.1611,-5.1181,-5.4413,-5.5957,-5.5054,-5.4176,-5.3545,-5.3266,-5.3466,-5.3753,-5.4063,-5.4316,-5.4625,-5.4962,-5.4962,-5.5159,-5.5496,-5.5243,-5.4793,-5.4147,-5.3529,-5.2911,-5.2293,-5.1927,-5.1421,-5.0913,-5.1048,-5.1541,-5.2027,-5.0931,-5.045,0.0,-5.1853,-5.1817,-5.1643,-5.411,-5.3471,-5.1439,-4.9785,-4.8537,-4.7449,-4.624,-4.4327,-4.274,-4.3387,-4.3125,-4.251,-4.1619,-4.178,-4.2255,-4.2637,-4.3183,-4.353,-4.353,-4.4258,-4.4944,0.0,-4.5884,-4.6504,-4.7141,-4.7232,-4.7418,-4.793,-4.7954,-4.7834,-4.7521,-4.7786,-4.7887,-4.7753,-4.8666,-4.9264,-4.9334,-4.977,-5.0104,-5.0483,-5.0246,-5.0175,-5.0483,-5.0483,-5.0554,-5.0696,-5.0696,-5.0696,-5.0696,-5.0696,-5.0696,-5.0696,-5.0696,-5.0696,-5.0672,-5.0359,-5.0407,-5.0672,-5.0335,-5.0407,-5.0672,-5.0431,-5.0503,-5.0672,-5.0803,-4.9896,-4.9158,-4.9158,-4.8231,-4.7396,-4.7238,-4.7669,-4.8001,-4.8001,-4.8001,-4.7736,-4.6974,-4.5947,-4.5296,-4.5245,-4.8763,-5.1261,-5.1852,-5.5354,-5.7188,-5.6738,-5.6083,-5.5257,-5.4399,-5.4521,-5.4442,-5.4086,-5.4257,-5.4374,-5.4344,-5.4344,-5.4569,-5.499,-5.499,-5.4737,-5.4288,-5.3669,-5.3135,-5.2658,-5.204,-5.1421,-5.0888,-5.1056,-5.1245,-5.1201,-4.9724,-4.9379,-4.9737,-5.0035,-4.9959,-5.0133,-5.2252,-5.2136,-5.0859,-4.8943,-4.7912,-4.7655,-4.8518,-4.6417,-4.4331,-4.5441,-4.5047,-4.42,-4.342,-4.3579,-4.412,-4.4674,-4.5094,-4.5438,-4.5438,-4.5619,-4.5822,-4.6025,-4.6412,-4.6775,-4.7313,-4.7523,-4.7805,-4.8459,-4.8507,-4.8363,-4.7978,-4.8291,-4.8507,-4.8372,-4.9073,-4.9529,-4.9739,-4.9818,-5.0033,-5.0554,-5.0104,-5.0104,-5.0412,-5.027,-5.027,-5.0412,-5.0412,-5.0412,-5.0412,-5.0483,-5.0625,-5.0696,-5.0696,-5.0696,-5.0672,-5.0263,-5.0335,-5.0672,-5.0431,-5.0576,-5.0936,-5.1081,-5.096,-5.0672,-5.0803,-5.0237,-4.9775,-4.9775,-4.9274,-4.8635,-4.8065,-4.8001,-4.8001,-4.8001,-4.8001,-4.7736,-4.6974,-4.6841,-4.6841,-4.6809,-4.7977,-5.015,-5.3673,-5.4655,-5.6031,-5.8148,-5.7713,-5.7051,-5.6309,-5.6935,-5.6557,-5.5083,-5.5648,-5.5137,-5.3697,-5.3697,-5.3726,-5.3726,-5.3726,-5.3726,-5.3669,-5.2995,-5.2714,-5.2658,-5.204,-5.1421,-5.0944,-5.1534,-5.0823,-4.9444,-4.9066,-4.8686,-4.8364,-4.8702,-4.7143,-4.5547,-4.8101,-4.8449,-4.755,-4.5605,-4.3512,-4.2442,-4.5248,-4.4869,-4.4122,-4.5683,-4.6083,-4.5806,-4.49,-4.5183,-4.5615,-4.5412,-4.5415,-4.5438,-4.5438,-4.5415,-4.5619,-4.6271,-4.6829,-4.743,-4.8132,-4.87,-4.9036,-4.906,-4.906,-4.9036,0.0,-4.9036,-4.8923,-4.8648,-4.9427,-4.9739,-4.9319,-5.0196,-5.0483,-5.0104,-4.9723,-4.9509,-4.9509,-4.9196,-4.9196,-4.9509,-4.9509,-4.9509,-4.958,-4.9961,-5.0341,-5.0696,-5.0696,-5.0696,-5.0696,-5.0696,-5.0696,-5.0744,-5.1249,-5.1441,-5.1537,-5.2043,-5.1586,-5.0624,-5.1393,-5.091,-5.0467,-5.0467,-4.9925,-4.9274,-4.87,-4.826,-4.8001,-4.8001,-4.8001,0.0,0.0,0.0,0.0,0.0,-4.8132,-4.9866,-5.2068,-5.4665,-5.6612,-5.7648,-5.8919,-5.8795,-5.7041,-5.7693,-5.7351,-5.596,-5.6003,-5.6011,-5.5894,-5.5768,-5.59,-5.6314,-5.6314,-5.6314,-5.6285,-5.5604,-5.5338,-5.5226,-5.3751,-5.3035,-5.267,-5.1331,-5.0756,-5.0375,0.0,-4.7166,-4.7088,-4.7322,-4.6836,-4.6475,-4.8188,-4.7724,-4.6156,-4.4182,-4.4022,-4.4862,-4.6727,-4.6857,-4.6806,-4.8232,-4.794,-4.7196,-4.681,-4.6908,-4.6848,-4.6177,-4.5408,-4.4706,-4.4248,-4.446,-4.4801,-4.5263,-4.6485,-4.7584,-4.8341,-4.8577,-4.8929,-4.9565,-4.9589,0.0,0.0,0.0,0.0,-4.9475,-4.9814,-5.0055,-5.022,-5.0009,-5.0104,-5.0483,-5.0104,-4.989,-4.989,-5.0056,-4.989,-4.9509,-4.9509,-4.9652,-4.989,-4.9723,-5.0104,-5.0696,-5.0412,-5.0483,-5.0696,-5.0412,-5.0675,-5.1249,-5.113,-5.1465,-5.2043,-5.2211,-5.2043,-5.173,-5.1708,-5.1393,-5.1096,-5.1096,-5.0577,0.0,0.0,0.0,0.0,0.0,0.0,0.0,0.0,0.0,0.0,0.0,0.0,-4.916,-5.1183,-5.3503,-5.5259,-5.6343,-5.7967,-5.8075,-5.6356,-5.677,-5.6309,-5.4909,-5.5565,-5.5811,-5.5669,-5.6305,-5.6735,-5.691,-5.691,-5.6809,-5.6657,-5.6234,-5.5882,-5.5349,-5.3872,-5.2788,-5.1959,-5.0191,-4.9366,0.0,-4.6813,-4.5965,-4.5871,-4.5805,-4.5663,-4.5605,-4.6417,-4.5837,-4.4821,-4.4734,-4.543,-4.668,-4.8652,-4.8729,-4.8478,-4.962,-4.9051,-4.8121,-4.7794,-4.7629,-4.7416,-4.6536,-4.5248,-4.4061,-4.3612,-4.3566,-4.3735,-4.4095,-4.5423,-4.6805,-4.796,-4.8267,-4.8882,-5.007,-5.0167,-5.0311,0.0,0.0,0.0,-5.0167,-5.0268,-5.0412,-5.0696,-5.0175,-5.0175,-5.0696,-5.0317,-5.0104,-5.0104,-5.0128,-4.9771,-4.9078,-4.9078,-4.9317,-4.9699,-4.946,-4.9747,-5.0483,-5.0033,-5.0223,-5.0747,-5.0317,-5.0626,-5.1343,-5.1218,-5.1576,-5.213,-5.2321,-5.266,-5.2854,-5.1708,-5.1708,-5.1708,0.0,0.0,0.0,0.0,0.0,0.0,0.0,0.0,0.0,0.0,0.0,0.0,0.0,0.0,0.0,-5.0951,-5.1216,-5.2142,-5.4262,-5.5118,-5.5251,-5.449,-5.456,-5.382,-5.2292,-5.4419,-5.4692,-5.3299,-5.5316,-5.6019,-5.5597,-5.5597,-5.5334,-5.49,-5.49,-5.4277,-5.3217,-5.2442,-5.0981,-4.9139,-4.8324,-4.6945,-4.5384,-4.5326,-4.5149,-4.4792,-4.424,-4.366,-4.3195,-4.3282,-4.3311,-4.395,-4.7027,-4.7579,-4.7817,-5.0823,-5.0381,-4.918,-4.9771,-4.9435,-4.8735,-4.8031,-4.7751,-4.734,-4.6579,-4.487,-4.3514,0.0,0.0,-4.2659,-4.2942,-4.4025,-4.5395,-4.7316,-4.8031,-4.892,0.0,0.0,0.0,0.0,0.0,0.0,-5.0696,0.0,-5.0696,-5.0696,-5.0696,-5.0696,-5.0696,-5.0341,-5.0104,-5.0104,-4.9412,-4.8835,-4.8473,-4.8473,-4.8618,-4.898,-4.9003,-4.934,-5.0033,-4.9675,-5.0054,-5.0816,-5.0524,-5.0611,-5.108,-5.1597,-5.1883,-5.193,-5.2424,-5.3223,-5.3914,0.0,0.0,0.0,0.0,0.0,0.0,0.0,0.0,0.0,0.0,0.0,0.0,0.0,0.0,0.0,0.0,0.0,0.0,-4.8763,-4.9856,-5.0982,-5.2042,-5.4361,-5.5251,-5.449,-5.5019,-5.4868,-5.3902,-5.4338,-5.4326,-5.3937,-5.4366,-5.4429,-5.4274,-5.4347,-5.4214,-5.3965,-5.3965,-5.3732,-5.3174,-5.1993,-5.0848,-4.9672,-4.7763,-4.6369,-4.5298,-4.4615,-4.4603,-4.4879,-4.4705,-4.5198,-4.5966,-4.6691,-4.742,-4.8275,-4.9553,-5.083,-5.1879,-5.2174,-5.2228,-5.2057,-5.1829,-5.087,-4.9927,-4.9731,-4.9401,-4.8531,-4.6621,-4.4999,-4.3514,0.0,0.0,0.0,-4.3378,-4.5365,0.0,-4.8451,-4.8921,0.0,-5.0198,0.0,-5.0696,-5.0696,-5.0696,0.0,0.0,-5.0696,-5.0696,-5.0696,-5.0696,-5.0696,-5.0696,-5.0625,-5.0412,-5.0104,-4.9604,-4.946,-4.9675,-4.9124,-4.9052,-4.9365,-4.8812,-4.8957,-4.9675,-4.9642,-4.9949,-5.0451,-5.0857,-5.1231,-5.162,-5.1833,-5.2348,-5.2902,-5.302,-5.339,-5.3888,0.0,0.0,0.0,0.0,0.0,0.0,0.0,0.0,0.0,0.0,0.0,0.0,0.0,0.0,0.0,0.0,0.0,0.0,0.0,-4.8763,-4.9425,-4.9823,-5.1413,-5.2075,-5.1678,-5.2075,-5.2075,-5.1678,-5.2531,-5.292,-5.2954,-5.3799,-5.4038,-5.3782,-5.3815,-5.3693,-5.3383,-5.3383,-5.3026,0.0,0.0,-5.0033,-4.8581,-4.7006,-4.5578,-4.4411,-4.3877,-4.4325,-4.5207,-4.5982,-4.6685,-4.7462,-4.8422,-4.9066,-4.9927,-5.1795,-5.292,-5.3612,-5.4092,-5.4213,-5.4156,-5.3797,-5.2526,-5.1139,-5.0397,-4.9115,-4.7469,-4.5466,-4.3757,-4.2274,-4.0918,-4.1475,-4.2245,0.0,0.0,0.0,-4.8006,-4.8381,-4.8897,0.0,-5.0317,0.0,-5.0696,-5.0696,-5.0696,0.0,-5.0696,-5.0696,-5.0696,-5.0696,-5.0696,-5.0696,-5.0696,-5.0483,-5.0104,-4.989,-4.9795,-4.9795,-4.9389,-4.9317,-4.9509,-4.9078,-4.9078,-4.9532,0.0,-4.9986,-5.0413,-5.0758,-5.1221,-5.1629,-5.2009,-5.2286,-5.2682,-5.2975,-5.346,-5.3904,0.0,0.0,0.0,0.0,0.0,0.0,0.0,0.0,0.0,-4.8001,-4.8001,-4.8001,-4.8001,-4.8001,0.0,0.0,0.0,0.0,0.0,0.0,-4.8001,-4.8001,-4.8001,-4.8001,-4.8001,-4.8001,-4.8001,-4.8001,-4.9889,-5.0884,-5.0917,-5.2771,-5.3412,-5.3006,-5.3006,-5.2813,-5.2391,-5.2391,-5.1794,-5.0811,-5.0192,-4.872,-4.678,0.0,-4.493,-4.3457,-4.3429,-4.4272,-4.5654,-4.7309,-4.8146,-4.8595,-4.9595,-5.0062,-5.0796,-5.3892,-5.4492,-5.4479,-5.5987,-5.6086,-5.5734,-5.5573,-5.4073,-5.2193,-5.0472,-4.8121,-4.5662,-4.3792,-4.2062,-4.0811,-4.0592,-4.0846,-4.1317,-4.1921,0.0,-4.4911,-4.6929,-4.7418,-4.8097,-4.9795,-5.0104,-5.0341,-5.0696,-5.0696,-5.0696,-5.0696,-5.0696,-5.0696,-5.0696,-5.0696,-5.0696,-5.0696,-5.0696,-5.0554,-5.0175,-5.0175,-5.0033,-4.9652,-4.958,-4.958,-4.958,-4.9509,-4.9509,-4.9532,-4.971,-5.0076,-5.0588,-5.0648,-5.1025,-5.1554,-5.1982,-5.2124,-5.2156,-5.2793,-5.3412,-5.3969,0.0,0.0,0.0,0.0,0.0,0.0,0.0,0.0,0.0,0.0,-4.8001,-4.8001,0.0,0.0,0.0,0.0,0.0,0.0,0.0,0.0,0.0,-4.8001,-4.8001,-4.8001,-4.8001,-4.8001,-4.8001,-4.8001,-4.8365,-4.8564,-4.8564,-4.8961,-4.9094,-4.9026,-4.9026,-4.8891,-4.862,-4.862,-4.8454,-4.8189,-4.8058,-4.7246,-4.6144,-4.6048,0.0,0.0,-4.4098,-4.4654,-4.5654,-4.7309,-4.9316,-5.1314,-5.2807,-5.3963,-5.5008,-5.6129,-5.696,-5.7281,-5.6581,-5.7013,-5.7411,-5.633,-5.4597,-5.2705,-5.1014,-4.8707,0.0,0.0,-4.2193,-4.1513,-4.0112,-4.0548,-4.1525,-4.2832,-4.4286,-4.5789,-4.7303,-4.8425,-4.9203,0.0,-5.0175,-5.0625,-5.0696,-5.0696,0.0,0.0,0.0,-5.0696,-5.0696,-5.0696,-5.0696,-5.0696,-5.0696,-5.0696,-5.0625,-5.0625,-5.0554,-5.0483,-5.0175,-5.0033,-4.9961,-4.9652,-4.9509,-4.9532,-5.0,0.0,-5.0982,-5.1048,-5.1407,-5.1916,-5.2138,-5.2432,-5.2721,-5.3246,-5.3724,-5.41,0.0,0.0,0.0,0.0,0.0,0.0,0.0,-5.0628,-5.0025,-5.0127,-4.9878,-4.9223,-4.81,-4.8001,-4.8001,0.0,0.0,0.0,0.0,0.0,0.0,-4.8001,-4.8001,-4.8001,-4.8001,-4.8001,-4.8001,-4.8001,0.0,-4.8001,-4.8001,-4.8001,-4.8001,-4.8001,-4.8001,-4.7968,-4.7869,-4.7869,-4.7836,-4.777,-4.777,-4.7404,-4.6894,0.0,0.0,0.0,-4.4027,-4.4448,-4.5453,-4.5963,-4.8517,-5.1733,-5.3552,-5.4742,-5.5651,-5.6824,-5.76,-5.8032,-5.8137,-5.8677,-5.9045,-5.841,-5.6581,-5.408,-5.0874,0.0,0.0,0.0,-4.0503,-4.0251,-3.9421,-4.0017,-4.1094,-4.2389,-4.4505,-4.6409,-4.7277,-4.8944,-5.0056,-5.0151,-5.0459,-5.0696,-5.0696,-5.0696,-5.0696,-5.0696,0.0,-5.0696,-5.0696,-5.0696,-5.0696,-5.0696,-5.0696,-5.0696,-5.0696,-5.0696,-5.0696,-5.0696,-5.0483,-5.0412,-5.0412,-5.0175,-5.0033,-4.9842,-5.0362,0.0,-5.0731,-5.1002,-5.1278,-5.1507,-5.217,-5.2463,-5.2729,-5.353,-5.4053,-5.4331,0.0,0.0,0.0,0.0,0.0,0.0,0.0,-5.1976,-5.1632,-5.2041,-5.1592,-5.0582,-4.8859,-4.8431,-4.8233,0.0,0.0,0.0,0.0,0.0,0.0,0.0,0.0,0.0,0.0,0.0,0.0,-4.8001,-4.8001,0.0,0.0,0.0,0.0,0.0,-4.8001,-4.8001,-4.8001,-4.8001,-4.8001,0.0,0.0,-4.7902,0.0,0.0,0.0,0.0,0.0,-4.4424,-4.5372,-4.4713,-4.6909,-5.0318,-5.2304,-5.3722,-5.497,-5.6223,-5.6881,-5.7542,-5.9068,-5.9679,-5.9944,-6.0003,-5.8165,-5.5239,-5.063,-4.7566,0.0,-4.0134,-3.8969,-3.8693,-3.8693,-3.9432,-4.034,-4.1377,-4.3917,-4.6119,-4.7029,-4.8916,-5.0309,-5.0741,-5.086,0.0,-5.0908,-5.0908,0.0,-5.0908,0.0,0.0,-5.0696,-5.0696,-5.0696,-5.0696,-5.0696,-5.0696,-5.0696,-5.0696,-5.0696,-5.0696,-5.0696,-5.0696,-5.0696,-5.0696,-5.0554,-5.027,-5.0675,0.0,0.0,-5.0878,-5.104,-5.1252,-5.2236,-5.2452,-5.2415,-5.3545,-5.4061,-5.4218,0.0,0.0,0.0,0.0,0.0,0.0,0.0,-5.2488,-5.2717,-5.226,-5.1623,-5.1114,-5.0914,-4.9758,-4.8995,0.0,0.0,0.0,0.0,0.0,0.0,0.0,0.0,0.0,0.0,0.0,0.0,-4.8001,-4.8001,0.0,0.0,0.0,0.0,0.0,0.0,-4.8001,-4.8001,-4.8001,0.0,0.0,0.0,0.0,0.0,0.0,0.0,0.0,0.0,-4.5052,-4.5454,-4.4749,-4.5154,-4.6307,-4.8603,-5.1318,-5.374,-5.3937,0.0,0.0,-5.8263,-5.8897,-5.8984,-5.9306,-5.7851,-5.5301,-5.1026,0.0,-4.4674,-4.1039,-3.9111,-3.809,-3.809,-3.8592,-3.9364,-4.0311,-4.1907,-4.3892,-4.6343,-4.7937,-4.9422,-5.0971,0.0,0.0,-5.1681,-5.1681,0.0,0.0,0.0,0.0,-5.0696,-5.0696,-5.0696,-5.0696,-5.0696,-5.0696,-5.0696,-5.0696,-5.0696,-5.0696,-5.0696,-5.0696,-5.0696,-5.0696,-5.0696,-5.0625,-5.0673,0.0,0.0,-5.1008,-5.1245,-5.1695,-5.2387,-5.2383,-5.2147,-5.3139,-5.3353,-5.3069,0.0,0.0,0.0,0.0,0.0,0.0,-5.314,-5.385,-5.4303,-5.415,-5.3887,-5.3552,-5.3181,-5.2211,-5.095,-4.9227,0.0,0.0,0.0,0.0,0.0,0.0,0.0,0.0,0.0,0.0,-4.8001,-4.8001,-4.8001,0.0,0.0,0.0,0.0,0.0,0.0,-4.8001,-4.8001,-4.8001,0.0,0.0,0.0,0.0,0.0,0.0,0.0,0.0,0.0,0.0,-4.5341,-4.3637,-4.4079,-4.5384,-4.5331,-4.7367,-5.0325,-5.3063,-5.4226,-5.5192,-5.7564,-5.8339,-5.8403,-5.7946,-5.6393,-5.3859,-4.9855,0.0,-4.4284,-4.0154,-3.8799,-3.8165,-3.761,-3.7688,-3.8241,-3.926,-4.1126,-4.2978,-4.4699,-4.6538,-4.8392,-5.0167,-5.0549,0.0,0.0,0.0,0.0,0.0,0.0,0.0,-5.1839,-5.1148,-5.0696,-5.0696,-5.0696,-5.0696,-5.0696,-5.0696,-5.0696,-5.0696,-5.0696,-5.0696,-5.0696,-5.0696,-5.0696,-5.0696,-5.0696,0.0,0.0,-5.0556,-5.0532,-5.0841,-5.1444,-5.1643,-5.1611,-5.2617,-5.3024,-5.3147,0.0,0.0,0.0,0.0,0.0,-5.3492,-5.4215,-5.5062,-5.5604,-5.568,-5.5519,-5.5219,-5.4734,-5.4063,-5.2675,-5.0259,-4.9659,0.0,0.0,0.0,0.0,0.0,0.0,0.0,0.0,0.0,-4.8001,-4.8001,-4.8001,-4.8001,0.0,0.0,-4.8001,-4.8001,0.0,0.0,0.0,0.0,0.0,0.0,0.0,0.0,0.0,0.0,0.0,0.0,0.0,0.0,0.0,0.0,0.0,-4.4267,-4.3327,-4.4399,-4.681,-5.081,-5.2662,-5.3884,-5.622,-5.7217,-5.745,-5.691,-5.524,-5.2804,0.0,0.0,-4.3974,-4.0114,-3.8929,-3.8282,-3.7379,-3.7312,-3.7688,-3.8492,-4.0199,-4.2037,-4.3589,-4.5296,-4.7082,-4.9053,0.0,-4.9884,0.0,-5.1803,0.0,0.0,0.0,0.0,-5.2583,-5.1744,-5.1267,-5.1267,-5.1267,-5.1194,-5.1049,-5.1049,-5.0978,-5.0837,-5.0978,-5.0978,-5.0813,-5.0767,-5.0696,-5.0696,-5.0696,0.0,0.0,-5.0317,-5.0175,-4.9985,-5.0642,-5.0775,-5.0842,-5.185,-5.2383,-5.2557,0.0,0.0,0.0,0.0,0.0,0.0,-5.5062,-5.5883,-5.6383,-5.6383,-5.5815,-5.5402,-5.5402,-5.4795,-5.3827,-5.2398,-5.0911,0.0,0.0,0.0,0.0,0.0,0.0,0.0,0.0,0.0,-4.8001,-4.8001,-4.8001,-4.8001,-4.8001,-4.8001,-4.8001,-4.8001,0.0,0.0,0.0,0.0,0.0,0.0,0.0,0.0,0.0,0.0,0.0,0.0,0.0,0.0,0.0,0.0,0.0,0.0,0.0,-4.3021,-4.3617,-4.6512,-4.898,-5.129,-5.3854,-5.5282,-5.6105,-5.6365,-5.4759,-5.2392,-4.9803,-4.6766,-4.3817,-4.1458,-3.9708,-3.8282,-3.7379,-3.7638,-3.799,-3.8015,-3.8969,-4.0676,-4.3413,-4.4292,-4.5472,0.0,-4.7933,-4.8586,-5.0293,-5.1883,0.0,0.0,0.0,0.0,-5.2653,-5.2558,-5.2558,-5.2558,-5.2558,-5.2312,-5.182,-5.182,-5.1586,-5.1211,-5.1586,-5.1586,-5.1211,-5.086,-5.0718,0.0,0.0,0.0,0.0,-5.0364,-5.0222,-4.9556,-5.0073,-5.0066,-4.9863,-5.0908,-5.1053,-5.0719,0.0,0.0,0.0,0.0,0.0,0.0,0.0,-5.5883,-5.6383,-5.6383,-5.6217,-5.607,-5.607,-5.549,-5.4513,-5.3104,-5.1705,0.0,0.0,0.0,0.0,0.0,0.0,0.0,0.0,0.0,-4.8763,-4.8763,-4.926,-4.9525,-4.9491,-4.8995,-4.8763,-4.873,-4.8233,-4.8001,0.0,0.0,0.0,0.0,0.0,0.0,0.0,0.0,0.0,0.0,0.0,0.0,0.0,0.0,0.0,0.0,0.0,0.0,0.0,-4.4081,-4.6253,-4.88,-5.0686,-5.1779,-5.2206,-5.1637,-5.0328,-4.8643,-4.6697,-4.5191,-4.3418,-4.0859,-4.0291,-3.9647,-3.7574,-3.7337,-3.7563,-3.7939,-3.8316,-3.9371,-4.1781,-4.3237,-4.502,-4.7606,-4.9941,-5.1548,0.0,0.0,0.0,0.0,0.0,0.0,-5.3907,-5.3932,-5.3545,-5.2653,-5.2238,-5.1968,-5.182,-5.182,-5.1751,-5.1586,-5.1751,-5.1726,-5.1586,-5.1516,-5.1446,0.0,0.0,0.0,0.0,-5.1071,-5.086,-5.0696,-5.0938,-5.0937,-5.1007,-5.2054,-5.236,-5.2356,0.0,0.0,0.0,0.0,0.0,0.0,0.0,-5.6097,-5.6383,-5.6383,-5.6383,-5.63,-5.6042,-5.5636,-5.4864,-5.3484,-5.2047,0.0,0.0,0.0,0.0,0.0,0.0,0.0,-4.8398,-4.8862,-4.9094,-4.9094,-4.9558,-4.9657,-4.9359,-4.8895,-4.8829,-4.9094,-4.8332,-4.8166,0.0,0.0,0.0,0.0,0.0,0.0,-4.81,0.0,0.0,0.0,0.0,0.0,0.0,0.0,0.0,0.0,0.0,0.0,0.0,0.0,-4.4081,-4.6051,-4.7949,-4.9202,-4.983,-4.923,-4.7808,-4.6379,-4.5611,-4.4501,-4.3084,-4.1078,-4.1009,-4.0508,-3.7977,-3.7487,-3.7613,-3.7939,-3.8015,-3.8994,-4.1856,-4.3162,-4.4819,-4.7581,0.0,0.0,0.0,0.0,0.0,0.0,0.0,0.0,-5.421,-5.4235,-5.3848,-5.3006,-5.2684,-5.2436,-5.2238,-5.2238,-5.2169,-5.203,-5.2169,-5.2169,-5.203,-5.1866,-5.1796,0.0,0.0,0.0,0.0,-5.1422,-5.1282,-5.0954,-5.108,-5.1057,-5.1177,-5.2115,-5.2548,-5.2788,0.0,0.0,0.0,0.0,0.0,0.0,0.0,-5.6383,-5.6383,-5.6383,-5.6383,-5.6154,-5.5549,-5.5402,-5.4791,-5.3515,0.0,0.0,0.0,0.0,0.0,0.0,0.0,0.0,-4.9028,-4.9094,-4.9094,-4.9094,-4.916,-4.8829,-4.8166,-4.81,-4.8431,-4.9094,-4.8398,-4.8465,0.0,0.0,0.0,0.0,-4.8763,-4.863,0.0,0.0,0.0,0.0,0.0,0.0,0.0,0.0,0.0,0.0,0.0,0.0,0.0,0.0,0.0,0.0,0.0,-4.7253,-4.8431,-4.8403,-4.6823,-4.5355,-4.5976,-4.4456,0.0,-4.189,-4.1714,-4.0962,-3.8409,-3.799,-3.8015,-3.8015,-3.8065,-3.9446,-4.3263,-4.4066,-4.5271,-4.7958,-4.964,0.0,-5.0594,0.0,0.0,0.0,0.0,0.0,-5.3708,-5.3658,-5.3658,-5.3708,-5.3658,-5.3406,-5.2929,-5.2929,-5.2723,-5.2446,-5.2723,-5.2723,-5.2446,-5.205,-5.1911,0.0,0.0,0.0,0.0,-5.1562,-5.1397,-5.0765,-5.0765,-5.0765,-5.0837,-5.1392,-5.1898,-5.2357,0.0,0.0,0.0,0.0,0.0,0.0,0.0,0.0,0.0,0.0,-5.6383,-5.6328,-5.6189,-5.5254,-5.4275,0.0,0.0,0.0,0.0,0.0,0.0,0.0,0.0,0.0,-4.8266,-4.8829,-4.9094,-4.9094,-4.969,-4.9856,-4.969,-4.9127,-4.8928,-4.9094,-4.8928,-4.8961,0.0,0.0,0.0,0.0,-4.8199,-4.8166,0.0,0.0,0.0,0.0,-5.0179,-4.9639,0.0,0.0,0.0,0.0,0.0,0.0,0.0,0.0,-4.2876,-4.3021,-4.3081,0.0,-4.4976,-4.4456,-4.3965,-4.3487,0.0,-4.3066,-4.2539,-4.0777,-4.0846,-4.0422,-3.7851,-3.7713,-3.8015,-3.8015,-3.8743,-4.035,-4.3388,-4.6728,-4.959,-5.1523,-5.2101,-5.2327,0.0,0.0,0.0,0.0,0.0,-5.3281,-5.3683,-5.3331,-5.3281,-5.3683,-5.3306,-5.3055,-5.2929,-5.2929,-5.2861,-5.2792,-5.2861,-5.2861,-5.2792,-5.2698,-5.2629,0.0,0.0,0.0,-5.2352,-5.256,-5.256,-5.2352,-5.2352,-5.2352,-5.2427,-5.2948,-5.3222,-5.347,0.0,0.0,0.0,0.0,0.0,0.0,0.0,0.0,0.0,0.0,0.0,-5.6273,0.0,0.0,0.0,0.0,0.0,0.0,0.0,0.0,0.0,0.0,0.0,-4.8166,-4.8498,-4.8895,-4.9293,-4.9624,-5.0021,-5.0055,-4.969,-4.9293,-4.9094,-4.9127,-4.9458,-4.9425,0.0,0.0,0.0,-4.8034,-4.8365,0.0,0.0,0.0,0.0,0.0,-4.9955,-4.9564,0.0,-4.7795,-4.6539,-4.5173,0.0,0.0,0.0,0.0,-4.2844,-4.2934,-4.2586,-4.2818,-4.3021,-4.2673,-4.2586,-4.2557,-4.2528,-4.276,-4.2625,-4.1363,-4.1059,-4.0455,-3.853,-3.8083,-3.8165,-3.8693,-3.9923,-4.1882,-4.4895,-4.7606,-4.9891,-5.1574,-5.1774,-5.2076,0.0,0.0,0.0,0.0,0.0,-5.3055,-5.3331,-5.308,-5.3055,-5.3331,-5.308,-5.2929,-5.2929,-5.2929,-5.2929,-5.2929,-5.2929,-5.2929,-5.2929,-5.2929,-5.2929,0.0,0.0,0.0,-5.2929,-5.2929,-5.2929,-5.2929,-5.2929,-5.2929,-5.2955,-5.3256,-5.3507,-5.3783,0.0,0.0,0.0,0.0,0.0,0.0,0.0,0.0,0.0,0.0,0.0,0.0,0.0,0.0,0.0,0.0,0.0,0.0,0.0,0.0,0.0,0.0,-4.8001,-4.8299,-4.8928,-4.9061,-4.9425,-5.0055,-5.0154,-4.9889,-4.9293,-4.916,-4.916,-4.9293,-4.9823,-4.9756,0.0,0.0,-4.926,-4.8067,-4.8696,0.0,0.0,0.0,0.0,0.0,0.0,0.0,0.0,-4.7941,-4.6653,-4.5244,-4.4528,0.0,0.0,0.0,0.0,0.0,-4.2992,-4.2805,-4.2544,-4.2295,-4.2179,-4.2237,-4.2731,-4.2847,-4.2767,-4.2338,-4.1671,-4.0754,-3.9659,-3.8874,-3.8666,-3.9573,-4.1505,-4.3959,-4.6995,-4.8046,-4.9021,-5.0422,-5.0663,0.0,0.0,0.0,0.0,0.0,0.0,-5.2929,-5.2929,-5.2929,-5.2929,-5.2929,-5.2929,-5.2929,-5.2929,-5.2929,-5.2929,-5.2929,-5.2929,-5.2929,-5.2929,-5.2929,-5.2929,-5.2929,0.0,0.0,-5.2929,-5.2929,-5.2929,-5.2929,-5.2929,-5.2929,-5.2929,-5.2929,-5.3206,-5.3607,0.0,0.0,0.0,0.0,0.0,0.0,0.0,0.0,0.0,0.0,0.0,0.0,0.0,0.0,0.0,0.0,0.0,0.0,0.0,0.0,0.0,-4.8001,-4.8001,-4.8067,-4.8166,-4.8796,-4.916,-4.9293,-4.9922,-5.0154,-5.0021,-4.9392,-4.9425,-5.0021,-4.9525,-4.9558,-5.0021,-4.9491,-4.8796,-4.8001,-4.8133,0.0,0.0,0.0,0.0,0.0,0.0,0.0,0.0,-4.7867,-4.7029,-4.6095,-4.5825,0.0,0.0,0.0,0.0,0.0,-4.2992,-4.395,-4.4598,-4.3211,-4.2469,-4.2121,-4.2208,-4.2237,-4.2132,-4.1805,-4.1611,-4.1128,-3.9796,-3.9816,-3.9995,-3.9726,-4.3212,-4.665,0.0,0.0,-5.1294,-5.1541,0.0,0.0,0.0,0.0,0.0,0.0,0.0,-5.2929,-5.2929,-5.2929,-5.2929,-5.2929,-5.2929,-5.2929,-5.2929,-5.2929,-5.2929,-5.2929,-5.2929,-5.2929,-5.2929,-5.2929,-5.2929,-5.2929,0.0,-5.2929,-5.2929,-5.2929,-5.2929,-5.2929,-5.2929,-5.2929,-5.2929,-5.2929,-5.298,-5.3105,0.0,0.0,0.0,0.0,0.0,0.0,0.0,0.0,0.0,0.0,0.0,0.0,0.0,0.0,0.0,0.0,0.0,0.0,0.0,0.0,-4.8001,-4.8001,-4.8398,-4.8597,-4.8597,-4.8928,-4.9491,-5.0286,-5.0618,-5.0783,-5.075,-4.9624,-4.9491,-5.0187,-4.9856,-4.9657,-4.9624,-4.969,-4.9061,-4.8001,0.0,0.0,0.0,0.0,0.0,0.0,0.0,0.0,0.0,0.0,-4.6966,-4.6389,-4.5541,0.0,0.0,0.0,0.0,0.0,-4.3034,-4.3545,-4.4225,-4.4716,-4.5273,-4.5729,-4.5729,-4.5729,-4.5436,-4.439,-4.3765,-4.3074,-4.1871,-4.1719,-4.2371,-4.4288,-4.613,-4.7832,-4.9422,-4.9529,-4.971,0.0,0.0,0.0,0.0,0.0,0.0,0.0,0.0,0.0,-5.2929,-5.2929,-5.2929,-5.2929,-5.2929,-5.2929,-5.2929,-5.2929,-5.2929,-5.2929,-5.2929,-5.2929,-5.2929,-5.2929,-5.2929,-5.2929,0.0,-5.2929,-5.2929,-5.2929,-5.2929,-5.2929,-5.2929,-5.2929,-5.2929,-5.2929,-5.2929,-5.3005,0.0,0.0,0.0,0.0,0.0,0.0,0.0,0.0,0.0,0.0,0.0,0.0,0.0,0.0,0.0,0.0,0.0,0.0,0.0,0.0,-4.8001,-4.8001,-4.873,-4.9094,-4.9094,-4.9458,-5.0154,-5.1315,-5.1481,-5.1481,-5.1282,-4.9955,-4.9657,-5.022,-5.022,-4.979,-4.916,-4.9889,-4.9359,-4.8001,0.0,0.0,0.0,0.0,0.0,0.0,0.0,0.0,0.0,0.0,0.0,0.0,0.0,0.0,0.0,-4.3021,-4.2919,-4.3069,-4.3089,-4.3311,-4.4037,-4.6091,-4.7042,-4.7672,-4.8603,-4.8517,-4.8044,-4.731,-4.6602,-4.5753,-4.4631,-4.4034,-4.4723,-4.7744,-4.8334,-4.8832,-5.0174,-4.9199,0.0,0.0,0.0,0.0,0.0,0.0,0.0,0.0,0.0,0.0,-5.2929,-5.2929,-5.2929,-5.2929,-5.2929,-5.2929,-5.2929,-5.2929,-5.2929,-5.2929,-5.2929,-5.2929,-5.2929,-5.2929,-5.2929,-5.2929,-5.2929,-5.2929,-5.2929,-5.2929,-5.2929,-5.2929,-5.2929,-5.2929,-5.2929,-5.2929,-5.2929,-5.298,0.0,0.0,0.0,0.0,0.0,0.0,0.0,0.0,0.0,0.0,0.0,0.0,0.0,0.0,0.0,0.0,0.0,0.0,0.0,0.0,-4.8001,-4.8001,-4.873,-4.9094,-4.9094,-5.0419,-5.1216,-5.1315,-5.2011,-5.1978,-5.1282,-5.0485,-5.0154,-5.022,-5.022,-4.979,-4.916,-4.9889,-4.9359,-4.8001,-4.8001,0.0,0.0,0.0,0.0,0.0,0.0,0.0,0.0,0.0,0.0,0.0,0.0,0.0,-4.4013,-4.322,-4.2718,-4.2597,-4.314,-4.4211,-4.5528,-4.6879,-4.5306,-4.434,-4.7966,-4.7663,-4.7128,-4.9059,-4.9415,-4.8985,-4.7623,-4.6679,-4.6243,-4.6684,-4.8426,-5.0181,-5.1472,0.0,0.0,0.0,0.0,0.0,0.0,0.0,0.0,0.0,0.0,0.0,-5.2929,-5.2929,-5.2929,-5.2929,-5.2929,-5.2929,-5.2929,-5.2929,-5.2929,-5.2929,-5.2929,-5.2929,-5.2929,-5.2929,-5.2929,-5.2929,-5.2929,-5.2929,-5.2929,-5.2929,-5.2929,-5.2929,-5.2929,-5.2929,-5.2929,-5.2929,-5.2929,-5.2929,0.0,0.0,0.0,0.0,0.0,0.0,0.0,0.0,0.0,0.0,0.0,0.0,0.0,0.0,0.0,0.0,0.0,0.0,0.0,-4.8001,-4.8199,-4.8663,-4.9392,-4.9988,-5.0452,-5.1017,-5.1547,-5.2011,-5.2277,-5.2277,-5.1978,-5.1214,-5.0651,-5.022,-5.0684,-5.022,-4.916,-4.9889,-4.9624,-4.8663,-4.8199,-4.8001,0.0,0.0,0.0,0.0,0.0,0.0,0.0,0.0,-4.777,-4.7337,-4.6092,-4.5442,-4.4911,-4.3928,-4.3216,-4.2876,-4.3236,-4.4429,-4.5768,-4.6552,-4.6195,-4.6695,-5.0588,-5.1019,-5.0815,-5.1648,-5.2105,-5.1642,-4.92,-4.9576,-4.9853,-4.8661,-5.0347,-5.1861,-5.2139,0.0,0.0,0.0,0.0,0.0,0.0,0.0,0.0,0.0,0.0,0.0,-5.2929,-5.2929,-5.2929,-5.2929,-5.3231,-5.3406,-5.3406,-5.3406,-5.3406,-5.3406,-5.308,-5.2929,-5.2929,-5.2929,-5.2929,-5.2929,-5.2929,-5.2929,-5.2929,-5.2929,-5.2929,-5.2929,-5.2929,-5.2929,-5.2929,-5.2929,-5.2929,-5.2929,0.0,0.0,0.0,0.0,0.0,0.0,0.0,0.0,0.0,0.0,0.0,0.0,0.0,0.0,0.0,0.0,0.0,0.0,-4.8034,-4.8001,-4.8332,-4.9094,-4.9823,-5.0551,-5.1282,-5.1547,-5.1912,-5.2409,-5.2409,-5.2409,-5.2409,-5.1647,-5.0916,-5.022,-5.0717,-5.0253,-4.9127,-4.9657,-4.9558,-4.9061,-4.8299,-4.8001,0.0,0.0,0.0,0.0,0.0,0.0,0.0,0.0,-4.8001,-4.777,-4.6445,-4.5877,-4.5531,-4.4716,-4.3798,-4.3049,-4.3402,-4.4208,-4.5212,-4.6166,-4.685,-4.8342,-5.2445,-5.2986,-5.2958,-5.4177,-5.4545,-5.3837,-5.1404,-5.2355,-5.2986,0.0,-5.2348,-5.3384,0.0,0.0,0.0,0.0,0.0,0.0,0.0,0.0,0.0,0.0,0.0,0.0,0.0,-5.2792,-5.2792,-5.2929,-5.3293,-5.3568,-5.3708,-5.3884,-5.3984,-5.3959,-5.3607,-5.3256,-5.2929,-5.2929,-5.2929,-5.2929,-5.2929,-5.2929,-5.2929,-5.2929,-5.2929,-5.2929,-5.2929,-5.2929,-5.2929,-5.2929,-5.2929,-5.2929,0.0,0.0,0.0,0.0,0.0,0.0,0.0,0.0,0.0,0.0,0.0,0.0,0.0,0.0,0.0,0.0,0.0,0.0,-4.8067,-4.8001,-4.8332,-4.9094,-4.9823,-5.0551,-5.1315,-5.2045,-5.2409,-5.2409,-5.2409,-5.2409,-5.2409,-5.1647,-5.0916,-5.022,-5.022,-4.979,-4.9127,-4.9094,-4.9094,-4.9061,-4.8299,-4.8001,-4.8001,0.0,0.0,0.0,0.0,0.0,0.0,0.0,-4.8001,-4.7869,-4.7033,-4.6304,-4.5677,-4.5541,-4.4295,-4.3089,-4.3567,-4.3524,-4.386,-4.5924,-4.6879,-4.8514,-5.3013,-5.2783,-5.2698,-5.6626,-5.6632,-5.5582,-5.4405,-5.4841,0.0,-5.4221,-5.4325,0.0,0.0,0.0,0.0,0.0,0.0,0.0,0.0,0.0,0.0,0.0,0.0,0.0,0.0,-5.2585,-5.2585,-5.2929,-5.3108,-5.3383,-5.3708,-5.4356,-5.4632,-5.4632,-5.4632,-5.4054,-5.2929,-5.2929,-5.2929,-5.2929,-5.2929,-5.2929,-5.2929,-5.2929,-5.2929,-5.2929,-5.2929,-5.2929,-5.2929,-5.2929,-5.2929,-5.2929,0.0,0.0,0.0,0.0,0.0,0.0,0.0,0.0,0.0,0.0,0.0,0.0,0.0,0.0,0.0,0.0,0.0,0.0,-4.8001,-4.8001,-4.8564,-4.9823,-5.0088,-5.0783,-5.2078,-5.231,-5.2409,-5.2409,-5.2409,-5.2409,-5.2409,-5.1647,-5.0916,-5.022,-5.022,-5.0088,-4.9856,-4.9326,-4.9425,-4.9756,-4.8498,-4.8001,-4.8001,0.0,0.0,0.0,0.0,0.0,0.0,0.0,0.0,0.0,-4.7033,-4.6304,-4.5677,-4.5541,-4.4404,-4.3369,-4.4128,-4.5946,-4.7525,-4.7145,-4.9538,-5.2471,-5.4262,-5.3978,-5.4205,-5.7383,-5.7805,-5.7001,-5.5205,-5.6039,0.0,-5.4065,0.0,0.0,0.0,0.0,0.0,0.0,0.0,0.0,0.0,0.0,0.0,0.0,0.0,0.0,0.0,-5.3384,-5.37,-5.5696,-5.5247,-5.5631,-5.6909,-5.7093,-5.7451,-5.7916,-5.7493,-5.5959,-5.3457,-5.3457,-5.3281,-5.2929,-5.2929,-5.2929,-5.2998,-5.3971,-5.4927,-5.5762,-5.5762,-5.5762,-5.5762,-5.5762,-5.5762,-5.5762,0.0,0.0,0.0,0.0,0.0,0.0,0.0,0.0,-5.4296,-5.404,-5.3781,-5.3449,0.0,0.0,0.0,-5.0254,-4.9127,-4.8332,-4.8034,-4.8001,-4.8663,-5.0154,-5.022,-5.0883,-5.2376,-5.2409,-5.2409,-5.2409,-5.2409,-5.2277,-5.1978,-5.1514,-5.075,-4.9756,-4.9756,-4.9756,-4.9723,-4.8995,-4.9094,-4.9657,-4.8498,-4.8001,-4.8001,0.0,0.0,0.0,0.0,0.0,0.0,0.0,0.0,0.0,-4.7438,-4.6759,-4.6144,-4.6309,-4.5133,-4.4187,-4.6189,-4.7558,-4.8741,-5.0025,-5.2174,-5.4403,-5.5985,-5.6181,-5.6573,-5.8278,-5.8671,-5.8233,-5.6987,-5.7612,0.0,0.0,0.0,0.0,0.0,0.0,0.0,0.0,0.0,0.0,0.0,0.0,0.0,0.0,0.0,0.0,0.0,-5.4835,-5.5167,-5.6973,-5.6624,-5.6971,-5.8105,-5.8564,-5.9035,-5.9386,-5.9319,-5.8156,-5.6098,-5.5865,-5.5475,-5.493,-5.463,-5.4526,-5.4593,-5.5432,-5.6287,-5.6973,-5.6973,-5.6973,-5.6973,-5.6973,-5.6973,-5.6973,0.0,0.0,0.0,0.0,0.0,0.0,0.0,-5.5126,-5.4008,-5.3382,-5.2799,-5.2409,0.0,0.0,0.0,-5.0286,-4.9458,-4.873,-4.8034,-4.8001,-4.863,-5.0055,-5.0187,-5.0883,-5.2376,-5.2277,-5.2208,-5.231,-5.231,-5.1978,-5.1315,-5.1183,-5.0386,-4.9094,-4.9028,-4.9061,-4.9061,-4.8332,-4.8431,-4.9061,-4.8299,-4.8001,-4.8001,-4.8001,0.0,0.0,0.0,0.0,0.0,0.0,0.0,0.0,-4.8001,-4.7438,-4.688,-4.7395,-4.6289,-4.5651,-4.891,-4.882,-4.8912,-5.379,-5.471,-5.5109,-5.7776,-5.8812,-5.9205,-5.9205,-5.9205,-5.9205,-5.9205,-5.9205,-5.9267,0.0,0.0,0.0,0.0,0.0,0.0,0.0,0.0,0.0,0.0,0.0,0.0,0.0,0.0,0.0,0.0,-5.6753,-5.6817,-5.7359,-5.7396,-5.7721,-5.8222,-5.9339,-5.9912,-5.9966,-6.0661,-6.0756,-6.0277,-5.9476,-5.869,-5.7944,-5.7363,-5.7092,-5.7167,-5.7167,-5.7295,-5.7359,-5.7359,-5.7359,-5.7359,-5.7359,-5.7359,-5.7359,0.0,0.0,0.0,0.0,0.0,0.0,-5.4254,-5.3373,-5.2799,-5.2624,-5.248,-5.2409,-5.2409,-5.1214,0.0,-5.022,-4.8995,-4.8166,-4.8001,-4.8001,-4.8398,-4.9326,-4.9889,-5.0883,-5.2376,-5.128,-5.0949,-5.1547,-5.1547,-5.1481,-5.1282,-5.0121,-4.9392,-4.9094,-4.8498,-4.8564,-4.9061,-4.8332,-4.8431,-4.9061,-4.8299,-4.8001,-4.8001,-4.8001,-4.8001,0.0,0.0,0.0,0.0,0.0,0.0,0.0,-4.8001,-4.7438,-4.6816,-4.6892,-4.7559,-4.8485,-4.897,-5.1265,-5.3759,-5.4681,-5.6164,-5.7664,-5.8755,-5.9121,-5.9205,-5.9205,-5.9205,-5.9205,-5.9205,-5.9205,0.0,0.0,0.0,0.0,0.0,0.0,0.0,0.0,0.0,0.0,0.0,0.0,0.0,0.0,0.0,0.0,-5.8592,-5.7551,-5.7933,-6.0226,-5.9233,-5.9417,-6.0768,-6.1535,-6.216,0.0,-6.3362,-6.372,-6.3808,-6.0971,-5.9031,-5.7972,-5.7563,-5.7888,-5.8655,-5.8655,-5.9307,-6.0287,-6.0287,-6.0287,-6.0287,-6.0287,-6.0287,-6.0287,0.0,0.0,0.0,0.0,0.0,0.0,0.0,0.0,-5.3165,-5.2478,-5.2409,-5.2409,-5.2409,-5.138,0.0,0.0,-4.9193,-4.8398,-4.8034,-4.8001,-4.8332,-4.9094,-4.9823,-5.0551,-5.1313,-5.0585,-5.0386,-5.075,-5.0419,-5.0253,-5.022,-4.9458,-4.8928,-4.8564,-4.8166,-4.8233,-4.8564,-4.8166,-4.8233,-4.8531,-4.8166,-4.8001,-4.8001,-4.8001,-4.8001,-4.8001,-4.8001,0.0,0.0,0.0,0.0,0.0,0.0,0.0,-4.7366,-4.7245,-4.7423,-4.8211,-5.0803,-5.2204,-5.3495,-5.5929,-5.7608,-5.8812,-5.9149,-5.9205,-5.9205,-5.9205,-5.9205,-5.9205,-5.9205,0.0,0.0,0.0,0.0,0.0,0.0,0.0,0.0,0.0,0.0,0.0,0.0,0.0,0.0,0.0,0.0,-5.8592,-6.0014,-5.9431,-5.9707,-6.1133,-6.047,-6.052,-6.1415,-6.2051,-6.2687,-6.3323,-6.3988,-6.4515,-6.4903,-6.277,-6.1472,-6.0799,-6.0018,-6.004,-6.0503,-6.0218,-6.056,-6.1193,-6.1193,-6.1193,-6.1193,-6.1193,-6.1193,-6.1251,0.0,0.0,0.0,0.0,0.0,0.0,0.0,0.0,0.0,-5.258,-5.2409,-5.2409,-5.2409,-5.1746,-5.0982,0.0,0.0,0.0,-4.8067,-4.8001,-4.8332,-4.9094,-4.9558,-4.9955,-5.022,-4.9955,-4.9889,-5.0021,-4.9293,-4.8928,-4.8928,-4.8928,-4.8597,-4.8001,-4.8001,-4.8001,-4.8001,-4.8001,-4.8001,-4.8001,-4.8001,-4.8001,-4.8001,-4.8001,-4.8001,-4.8001,-4.8001,-4.8001,-4.8001,-4.8001,0.0,0.0,0.0,0.0,-4.7968,-4.7809,-4.7397,-4.7889,-5.2356,-5.2395,-5.231,-5.7226,-5.8831,-5.9217,-5.9177,-5.9205,-5.9205,-5.9205,-5.9205,-5.9205,0.0,0.0,0.0,0.0,0.0,0.0,0.0,0.0,0.0,0.0,0.0,0.0,0.0,0.0,0.0,0.0,0.0,-5.9953,-6.1133,-6.1193,-6.1193,-6.1193,-6.1193,-6.1193,-6.1193,-6.1803,-6.2441,-6.3109,-6.3835,-6.4473,-6.4967,-6.4444,-6.4091,-6.3917,-6.2844,-6.2293,-6.2209,-6.16,-6.1367,-6.1338,-6.1251,-6.1251,-6.1367,-6.1367,-6.1425,-6.16,0.0,0.0,0.0,0.0,0.0,0.0,0.0,0.0,0.0,0.0,-5.2409,-5.2409,-5.2409,-5.1746,-5.0982,-5.0286,-4.9525,-4.8796,-4.8067,0.0,0.0,-4.9094,-4.8597,-4.8895,-5.0187,-4.8961,-4.863,-4.926,-4.8498,-4.8166,-4.8166,-4.8166,-4.81,-4.8001,-4.8001,-4.8001,-4.8001,-4.8001,-4.8001,-4.8001,-4.8001,-4.8001,-4.8001,-4.8001,-4.8001,-4.8001,-4.8001,-4.8001,-4.8001,-4.8001,-4.8001,0.0,0.0,0.0,-4.7968,-4.7809,-4.971,-5.1614,-5.0368,-5.2257,-5.5278,-5.8348,-5.9149,-5.9205,-5.9217,-5.9205,-5.9205,0.0,-5.9205,0.0,0.0,0.0,0.0,0.0,0.0,0.0,0.0,0.0,0.0,0.0,0.0,0.0,0.0,0.0,0.0,0.0,-6.0923,-6.1013,-6.1193,-6.1193,-6.1193,-6.1193,-6.1193,-6.1193,-6.1193,-6.1803,-6.2441,-6.3109,-6.4299,-6.4909,-6.4996,-6.4909,-6.4561,-6.3975,-6.352,-6.3208,-6.2906,-6.2238,-6.1977,-6.1919,-6.1396,-6.1513,-6.1977,-6.1977,-6.2325,-6.2848,0.0,0.0,0.0,0.0,0.0,0.0,0.0,0.0,0.0,0.0,0.0,-5.248,-5.2409,-5.2111,-5.1446,-5.032,-4.9922,-4.9226,-4.8067,-4.8001,-4.8133,-4.8465,-4.8166,-4.8299,-4.8961,-4.8332,-4.8166,-4.8498,-4.8166,-4.8001,-4.8001,-4.8001,-4.8001,-4.8001,-4.8001,-4.8001,-4.8001,-4.8001,-4.8001,-4.8001,-4.8001,-4.8995,-5.032,-4.9094,-4.9624,-5.0817,-4.9193,-4.863,-4.8564,-4.8133,-4.8001,-4.8001,-4.8001,0.0,0.0,0.0,-4.8627,-4.9763,-5.1234,-5.3996,-5.6882,-5.8723,-5.9182,-5.9095,-5.8766,-5.898,-5.9205,-5.9205,0.0,0.0,0.0,0.0,0.0,0.0,0.0,0.0,0.0,0.0,0.0,0.0,0.0,0.0,0.0,0.0,0.0,0.0,-6.1193,-6.1193,-6.1193,-6.1193,-6.1193,-6.1193,-6.1193,-6.1193,-6.1193,-6.1454,-6.2093,-6.3109,-6.4009,-6.4648,-6.4996,-6.4996,-6.4822,-6.4561,-6.3994,-6.3675,-6.3574,-6.2906,-6.2645,-6.2616,-6.2354,-6.2412,-6.2645,-6.2645,-6.2848,-6.3138,0.0,0.0,0.0,0.0,0.0,0.0,0.0,0.0,0.0,0.0,0.0,-5.2283,-5.2409,0.0,0.0,0.0,-5.022,-4.9591,-4.81,-4.8001,-4.8001,-4.8001,-4.8001,-4.8001,-4.8001,-4.8001,-4.8001,-4.8001,-4.8001,-4.8001,-4.8001,-4.8001,-4.8001,-4.8001,-4.8001,-4.8001,-4.8001,-4.8001,-4.8001,-4.8067,-4.8829,-5.0551,-5.244,-5.0618,-5.1512,-5.3268,-4.9988,-4.9061,-4.926,-4.8332,-4.8133,-4.8266,-4.8067,-4.8001,0.0,0.0,0.0,-4.777,-5.2133,-5.4189,-5.5742,-5.814,-5.8349,-5.8022,-5.8249,-5.8654,-5.898,0.0,0.0,0.0,0.0,0.0,0.0,0.0,0.0,0.0,0.0,0.0,0.0,0.0,0.0,0.0,0.0,0.0,0.0,0.0,-6.1133,-6.1193,-6.1193,-6.1193,-6.1193,-6.1193,-6.1193,-6.1193,-6.1193,-6.1338,-6.189,-6.2848,-6.3661,-6.427,-6.4764,-6.4909,-6.4996,-6.4967,-6.4473,-6.427,-6.4241,-6.3603,-6.3341,-6.3312,-6.3167,-6.3196,-6.3341,-6.3341,-6.3428,-6.3632,0.0,0.0,0.0,0.0,0.0,0.0,0.0,0.0,0.0,0.0,0.0,-5.1647,-5.2343,-5.1779,-5.1015,-5.0286,-5.022,-4.9591,-4.81,-4.8001,-4.8001,-4.8001,-4.8001,0.0,-4.8001,-4.8001,-4.8001,-4.8001,-4.8001,-4.8001,-4.8001,-4.8001,-4.8001,-4.8001,-4.8001,-4.8001,-4.8001,-4.8001,-4.8001,-4.8233,-5.1048,-5.2638,-5.3268,-5.2506,-5.3135,-5.3861,-4.9591,-4.8961,-4.9922,-4.8498,-4.8465,-4.8928,-4.8233,-4.8001,-4.8001,0.0,0.0,0.0,-5.1894,-5.1014,-5.0319,-5.6053,-5.6008,-5.5233,-5.7738,0.0,-5.8362,0.0,0.0,0.0,0.0,0.0,0.0,0.0,0.0,0.0,0.0,0.0,0.0,0.0,0.0,0.0,0.0,0.0,0.0,0.0,0.0,-6.1193,-6.1193,-6.1193,-6.1193,-6.1193,-6.1193,-6.1193,-6.1193,-6.1774,-6.2093,-6.2151,-6.3428,-6.4004,-6.4033,-6.4706,-6.4996,-6.4996,-6.4938,-6.4938,-6.488,-6.4241,-6.3917,-6.3859,-6.3312,-6.3457,-6.3917,-6.3917,-6.4357,-6.4909,0.0,0.0,0.0,0.0,0.0,0.0,0.0,0.0,0.0,0.0,0.0,0.0,0.0,-5.1879,-5.1512,-5.032,-4.979,-4.9094,-4.8067,-4.8001,-4.8001,-4.8001,-4.8001,-4.8001,-4.8001,-4.8001,-4.8001,-4.8001,-4.8001,-4.8001,-4.8001,-4.8001,-4.8001,-4.8001,-4.8001,-4.8001,-4.8001,-4.8001,-4.8001,-4.8299,-5.1678,-5.4328,-5.6084,-5.4924,-5.6812,-5.9429,0.0,-5.2208,-5.2175,-5.1645,-5.0121,-4.8431,-4.8663,-4.8398,-4.8001,-4.8001,-4.8133,-4.8846,-5.1539,-5.1789,-5.2082,-5.4914,-5.5993,-5.6344,-5.6514,-5.809,-5.9222,-5.8461,0.0,0.0,0.0,0.0,0.0,0.0,0.0,0.0,0.0,0.0,0.0,0.0,0.0,0.0,0.0,0.0,0.0,0.0,0.0,0.0,-6.056,-6.0742,-6.0892,-6.0892,-6.1073,-6.1193,-6.1193,-6.1396,-6.1919,-6.2732,-6.3444,-6.4052,-6.4648,-6.5134,-6.5158,-6.4996,-6.5222,-6.5285,-6.5285,-6.5052,-6.4935,-6.4935,-6.4702,-6.4634,-6.4648,-6.4648,-6.4793,-6.4996,0.0,0.0,0.0,0.0,0.0,-5.6514,-5.6051,-5.5861,-5.5406,-5.4295,0.0,0.0,0.0,0.0,-5.1512,-5.032,-4.9525,-4.8895,-4.8398,-4.8133,-4.8001,-4.8001,-4.8001,-4.8001,-4.8001,-4.8001,-4.8001,-4.8001,-4.8001,-4.8001,-4.8001,-4.8001,-4.8001,-4.8001,-4.8001,-4.8001,-4.8001,-4.8001,-4.8001,-4.8431,-5.3301,-5.6282,-5.774,-5.7276,-5.9363,0.0,0.0,0.0,0.0,0.0,0.0,0.0,0.0,0.0,-4.8001,-4.8001,-4.8365,-4.9025,-5.0525,-5.0908,-5.1314,-5.2946,-5.3897,-5.461,-5.5319,-5.7062,-5.8523,0.0,0.0,0.0,0.0,0.0,0.0,0.0,0.0,0.0,0.0,0.0,0.0,0.0,0.0,0.0,0.0,0.0,0.0,0.0,0.0,0.0,-6.0194,-6.0438,-6.0499,-6.0499,-6.0742,-6.0892,-6.0892,-6.0892,-6.1534,-6.2761,-6.3211,-6.4067,-6.5153,-6.5639,-6.5727,-6.5504,-6.5853,-6.579,-6.5538,-6.5601,-6.5601,-6.5475,-6.5475,-6.5285,-6.4996,-6.4996,-6.5031,-6.5187,0.0,0.0,0.0,0.0,-5.668,-5.668,-5.6647,-5.6084,-5.5615,-5.5549,0.0,0.0,0.0,0.0,0.0,-5.0286,-4.9558,-4.9127,-4.9094,-4.8398,-4.8001,-4.8001,-4.8001,-4.8001,-4.8001,-4.8001,-4.8001,-4.8001,-4.8001,-4.8001,-4.8001,-4.8001,-4.8001,-4.8001,-4.8001,-4.8001,-4.8001,-4.8001,-4.8001,-4.8663,-5.5951,-5.8469,-5.8071,0.0,0.0,0.0,-5.6376,-5.5719,0.0,-5.8535,0.0,0.0,0.0,0.0,0.0,-4.8001,-4.8001,-4.8166,0.0,0.0,0.0,-5.0018,-4.9603,-4.9764,-5.4175,0.0,-5.5971,0.0,0.0,0.0,0.0,0.0,0.0,0.0,0.0,0.0,0.0,0.0,0.0,0.0,0.0,0.0,0.0,0.0,0.0,0.0,0.0,-6.0251,-6.0251,-6.0222,-6.0283,-6.0283,-6.0283,-6.0255,-6.0255,-6.0255,-6.0876,-6.2183,-6.2822,-6.3989,-6.5525,-6.6209,-6.6506,-6.6506,-6.6876,-6.6414,-6.5538,-6.5882,-6.5882,-6.5538,-6.5538,-6.5348,-6.506,-6.506,-6.5222,-6.5538,0.0,0.0,0.0,-5.668,-5.668,-5.6514,-5.5984,-5.6183,-5.6017,0.0,0.0,0.0,-5.3533,-5.2605,-5.1578,-5.032,-5.0021,-4.969,-4.9127,-4.8398,-4.8001,-4.8001,-4.8001,-4.8001,-4.8001,-4.8001,-4.8001,-4.8001,-4.8001,-4.8001,-4.8001,-4.8001,-4.8001,-4.8001,-4.8001,-4.8001,-4.8001,-4.8001,-4.8332,-4.9359,-5.5587,-5.8933,0.0,0.0,0.0,0.0,0.0,-6.198,-6.1516,0.0,-5.9098,-5.4825,0.0,0.0,-4.8001,-4.8001,-4.8001,-4.8034,-4.8266,0.0,0.0,0.0,0.0,0.0,0.0,0.0,0.0,0.0,0.0,0.0,0.0,0.0,0.0,0.0,0.0,0.0,0.0,0.0,0.0,0.0,0.0,0.0,0.0,0.0,0.0,0.0,-6.0491,-6.0836,-6.0836,-6.1565,-6.1833,-6.1585,-6.2014,-6.2021,-6.1583,-6.1554,-6.2258,-6.3554,-6.3973,-6.4774,-6.5867,-6.6293,-6.6382,-6.6132,-6.6506,-6.6506,-6.6257,-6.6876,-6.703,-6.6908,-6.6661,-6.6382,-6.607,-6.5819,-6.5756,-6.5882,0.0,0.0,-5.7243,-5.7541,-5.7608,-5.7475,-5.7044,-5.7342,-5.721,0.0,0.0,0.0,-5.3632,-5.3069,-5.2108,-5.0353,-5.0485,-5.0353,-4.9624,-4.8597,-4.8133,-4.8465,-4.8166,-4.8001,-4.8001,-4.8001,-4.8001,-4.8001,-4.8001,-4.8001,-4.8001,-4.8001,-4.8001,-4.8001,-4.8001,-4.8001,-4.8001,-4.8001,0.0,0.0,-5.5984,0.0,0.0,-6.4299,-6.6751,0.0,0.0,0.0,-6.4763,-6.569,-6.1682,0.0,0.0,0.0,-4.8001,-4.8001,-4.8001,-4.8001,-4.8001,-4.8332,-4.8564,0.0,0.0,0.0,-5.2616,-5.3637,0.0,0.0,0.0,0.0,0.0,0.0,0.0,0.0,0.0,0.0,0.0,0.0,0.0,0.0,0.0,0.0,0.0,0.0,0.0,-6.0522,-6.112,-6.1605,-6.1924,-6.2491,-6.272,-6.2529,-6.2866,-6.2934,-6.2553,-6.2553,-6.3201,-6.4474,-6.4658,-6.5435,-6.6629,-6.6814,-6.6814,-6.6629,-6.6999,-6.706,-6.6937,-6.7487,-6.7487,-6.706,-6.6876,-6.6568,-6.6257,-6.607,-6.607,-6.6195,0.0,0.0,-5.8138,-5.88,-5.8899,-5.8866,-5.88,-5.8833,-5.8601,0.0,-5.7674,-5.6614,-5.3831,-5.3533,-5.2705,-5.0618,-5.1015,-5.1048,-5.0253,-4.9061,-4.8564,-4.8961,-4.8431,-4.8067,-4.8001,-4.8001,-4.8001,-4.8001,-4.8001,-4.8001,-4.8001,-4.8001,-4.8001,-4.8001,-4.8001,-4.8001,-4.8001,-4.8001,0.0,-4.926,-5.6746,-5.9164,0.0,0.0,-6.6585,-6.6154,-6.6154,-6.6519,-6.7247,-6.8771,-6.4929,0.0,0.0,0.0,-4.9293,-4.8398,-4.8398,-4.8597,-4.8034,-4.7934,0.0,0.0,0.0,0.0,-5.3015,-5.4237,-5.5875,0.0,0.0,0.0,0.0,0.0,0.0,0.0,0.0,0.0,0.0,0.0,0.0,0.0,0.0,0.0,0.0,-6.0373,-6.0646,-6.1133,-6.1832,-6.2441,-6.3084,-6.3233,-6.3295,-6.3236,-6.3356,-6.3356,-6.3298,-6.3298,-6.3927,-6.5128,-6.5128,-6.5914,-6.7426,-6.7426,-6.7426,-6.7487,-6.7789,-6.7729,-6.7487,-6.7789,-6.7426,-6.6691,-6.6629,-6.6444,-6.6132,-6.6132,-6.6319,-6.6568,-5.7773,-5.827,-5.8734,-5.8866,-5.8899,-5.8701,-5.8104,-5.8502,-5.8403,-5.7077,-5.6912,-5.6249,-5.4494,-5.4295,-5.3665,-5.2108,-5.2075,-5.1612,-5.0286,-5.0485,-4.9922,-4.8299,-4.8663,-4.863,-4.8001,-4.8001,-4.8001,-4.8001,-4.8001,-4.8001,-4.8001,-4.8001,-4.8001,-4.8001,-4.8001,-4.8001,-4.8001,-4.8001,0.0,-5.2705,-5.6647,0.0,-6.1923,-6.7148,-6.9798,-7.0726,-7.0726,-7.0428,-6.9666,-6.7115,-6.4962,-6.2444,0.0,0.0,0.0,-5.0783,-5.0949,-5.234,-4.8233,0.0,0.0,0.0,0.0,0.0,-4.9707,-4.9655,-5.0416,0.0,0.0,0.0,0.0,0.0,0.0,0.0,0.0,0.0,0.0,0.0,0.0,0.0,0.0,0.0,0.0,-6.1418,-6.1797,-6.189,-6.2499,-6.2906,-6.3022,-6.4012,-6.4379,-6.385,-6.4868,-6.5201,-6.4665,-6.4665,-6.5053,-6.58,-6.58,-6.628,-6.7121,-6.7121,-6.7121,-6.7121,-6.7182,-6.7182,-6.7121,-6.7182,-6.7426,-6.7669,-6.7426,-6.7243,-6.7182,-6.6937,-6.6876,-6.6937,-5.827,-5.8933,-5.9562,-5.9926,-5.9993,-5.986,-5.9496,-5.9463,-5.9065,-5.7939,-5.6846,-5.5885,-5.5118,-5.5019,-5.4494,-5.3036,-5.2904,-5.244,-5.138,-5.0949,-5.0419,-4.9657,-4.9293,-4.8928,-4.8564,-4.8199,-4.8001,-4.8001,-4.8001,-4.8001,-4.8001,-4.8001,-4.8001,-4.8001,-4.8001,-4.8001,-4.8034,-4.8398,-5.085,-5.4688,-5.7309,0.0,-6.3736,-6.8142,-7.0494,-7.1455,-7.1455,-7.1223,-7.056,-6.8341,-6.5425,0.0,0.0,-5.8933,-5.7442,0.0,-5.2539,-5.3102,0.0,0.0,0.0,-4.6974,0.0,0.0,0.0,0.0,-5.0675,0.0,0.0,0.0,0.0,0.0,0.0,0.0,0.0,0.0,0.0,0.0,0.0,0.0,0.0,0.0,0.0,-6.2579,-6.2846,-6.3531,-6.3531,-6.3618,-6.3942,-6.4957,-6.5347,-6.502,-6.5949,-6.634,-6.6011,-6.6011,-6.6161,-6.649,-6.649,-6.667,-6.6999,-6.6999,-6.6999,-6.6999,-6.6999,-6.6999,-6.6999,-6.6999,-6.7182,-6.7487,-6.7304,-6.7243,-6.7243,-6.706,-6.6999,-6.6999,-5.8999,-5.9694,-6.039,-6.102,-6.1119,-6.1053,-6.092,-6.039,-5.9694,-5.88,-5.7011,-5.5781,-5.5781,-5.6045,-5.5781,-5.4684,-5.4982,-5.4684,-5.3427,-5.2368,-5.1676,-5.1315,-5.0154,-4.9392,-4.9127,-4.8531,-4.8133,-4.8001,-4.8001,-4.8001,-4.8001,-4.8001,-4.8001,-4.8034,-4.8663,-4.8696,-4.8299,-4.9689,0.0,-5.6647,0.0,-6.1682,-6.5591,-6.9103,-7.0891,-7.1521,-7.1355,-7.1223,-7.0924,-6.9765,-6.6254,-6.2378,-6.2411,-6.0456,0.0,0.0,0.0,0.0,0.0,0.0,0.0,0.0,0.0,-4.7704,0.0,0.0,0.0,0.0,0.0,0.0,0.0,0.0,0.0,0.0,0.0,0.0,0.0,0.0,0.0,0.0,0.0,0.0,0.0,-6.2736,-6.3179,-6.4695,-6.3857,-6.3707,-6.4784,-6.5473,-6.5892,-6.6011,-6.664,-6.6999,-6.6999,-6.6999,-6.6999,-6.6999,-6.6999,-6.6999,-6.6999,-6.6999,-6.6999,-6.6999,-6.6999,-6.6999,-6.6999,-6.6999,-6.6999,-6.6999,-6.6999,-6.6999,-6.6999,-6.6999,-6.6999,-6.6999,-5.986,-6.049,-6.102,-6.1086,-6.1119,-6.0887,-6.0225,-6.0059,-5.9496,-5.8104,-5.7144,-5.6581,-5.6581,-5.774,-5.8654,-5.8873,0.0,0.0,-5.7054,-5.7284,-5.5688,-5.1479,-5.1149,-5.0419,-4.9127,-4.9028,-4.8663,-4.8001,-4.8001,-4.8001,-4.8001,-4.8001,-4.8001,-4.8133,-5.1201,-5.1201,-4.9226,-5.2946,-5.6447,0.0,-6.049,-6.3802,0.0,-7.1587,-7.3177,-7.3707,-7.3078,-7.2448,-7.1455,0.0,-6.7446,-6.6022,0.0,-6.2974,-6.526,-5.5388,0.0,0.0,0.0,0.0,0.0,0.0,-4.7438,0.0,0.0,0.0,0.0,0.0,0.0,0.0,0.0,0.0,0.0,0.0,0.0,0.0,0.0,0.0,0.0,0.0,0.0,0.0,0.0,0.0,-6.1466,-6.3947,-6.1882,-6.1583,-6.3977,-6.4755,-6.5413,-6.5981,-6.664,-6.6999,-6.6999,-6.6999,-6.6999,-6.6999,-6.6999,-6.6999,-6.6999,-6.6999,-6.6999,-6.6999,-6.6999,-6.6999,-6.6999,-6.6999,-6.6999,-6.6999,-6.6999,-6.6999,-6.6999,-6.6999,-6.6999,-6.6999,-6.0092,-6.0589,-6.1119,-6.1119,-6.0755,-6.0357,-6.0059,-5.9264,-5.8336,-5.7276,-5.7243,-5.7475,-5.7906,-5.8535,-5.9488,-6.0994,0.0,-6.0357,0.0,0.0,-5.6861,-5.2705,-5.2506,-5.1645,-4.979,-4.9756,-4.916,-4.8001,-4.8431,-4.8431,-4.8001,-4.8001,-4.8001,-4.8133,-5.1133,-5.2122,-5.1742,0.0,-5.7569,0.0,0.0,0.0,0.0,-7.1355,-7.2548,-7.3508,-7.321,-7.2912,-7.2316,0.0,-6.7844,0.0,0.0,0.0,0.0,0.0,0.0,0.0,0.0,0.0,0.0,0.0,0.0,0.0,-4.8133,0.0,-4.7438,0.0,0.0,0.0,0.0,0.0,0.0,0.0,0.0,0.0,0.0,0.0,0.0,0.0,0.0,0.0,0.0,0.0,0.0,0.0,0.0,-6.1822,-6.4455,-6.5233,-6.5712,-6.6011,-6.664,-6.6999,-6.6999,-6.6999,-6.6999,-6.6999,-6.6999,-6.6999,-6.6999,-6.6999,-6.6999,-6.6999,-6.6999,-6.6999,-6.6999,-6.6999,-6.6999,-6.6999,-6.6999,-6.6999,-6.6999,-6.6999,-6.6999,-6.6999,-6.0423,-6.0755,-6.1119,-6.1119,-6.049,-5.986,-5.9463,-5.8502,-5.7608,-5.7044,-5.7641,-5.8303,-5.8833,-5.996,0.0,0.0,-6.3715,-6.2944,0.0,0.0,-5.8911,-5.5274,-5.4026,-5.3033,-5.2164,-5.0846,-4.969,-4.8597,-4.873,-4.8531,-4.8001,-4.8001,-4.8001,-4.8133,-5.1232,-5.3041,-5.4014,-5.6177,-5.9482,-6.3318,-6.4167,-6.6916,-7.0693,-7.172,-7.278,-7.3674,-7.3475,-7.3276,-7.2846,-7.1156,-6.8341,0.0,-6.7943,0.0,0.0,0.0,0.0,0.0,-5.456,0.0,0.0,0.0,0.0,0.0,0.0,0.0,0.0,0.0,0.0,0.0,0.0,0.0,0.0,0.0,0.0,0.0,0.0,0.0,0.0,0.0,0.0,0.0,0.0,0.0,0.0,0.0,0.0,0.0,-6.4844,-6.5832,-6.637,-6.655,-6.6999,-6.7268,-6.7268,-6.7089,-6.6999,-6.6999,-6.6999,-6.6999,-6.6999,-6.6999,-6.6999,-6.6999,-6.6999,-6.6999,-6.6999,-6.7178,-6.7148,-6.7029,-6.7388,-6.7418,-6.7238,-6.7059,-6.6999,-6.6999,-6.1086,-6.1086,-6.1119,-6.1119,-6.049,-5.9529,-5.8071,-5.7806,-5.7773,-5.7773,0.0,0.0,0.0,0.0,0.0,0.0,0.0,-7.1227,-6.6173,0.0,-6.3177,-5.9556,-5.5534,-5.4576,0.0,-5.2594,-5.0187,-5.0154,-4.873,-4.8034,-4.8001,-4.8001,-4.8001,-4.8199,-5.2218,-5.4443,-5.5435,-5.9753,-6.332,-6.6055,-6.7043,-6.844,-7.0196,0.0,-7.5165,-7.5132,-7.4453,0.0,0.0,-7.056,-6.9268,0.0,0.0,0.0,0.0,0.0,0.0,0.0,0.0,0.0,0.0,-5.2837,0.0,0.0,0.0,0.0,-4.8166,0.0,0.0,0.0,0.0,0.0,0.0,0.0,0.0,0.0,0.0,0.0,0.0,0.0,0.0,0.0,0.0,0.0,0.0,0.0,0.0,0.0,-6.4755,-6.6251,-6.7238,-6.7897,-6.7926,-6.7989,-6.7989,-6.7298,-6.6999,-6.6999,-6.6999,-6.6999,-6.6999,-6.6999,-6.6999,-6.6999,-6.6999,-6.6999,-6.7029,-6.7687,-6.7567,-6.7119,-6.8435,-6.8525,-6.7867,-6.7238,-6.6999,-6.6999,-6.1119,-6.1119,-6.1119,-6.1119,-6.0092,-5.8767,-5.7276,-5.7475,0.0,0.0,-6.1282,0.0,0.0,-6.5995,-6.7597,0.0,0.0,-6.9599,-6.5646,-6.6042,0.0,0.0,0.0,-5.6277,0.0,0.0,0.0,-4.9491,-4.9458,-4.8961,-4.8001,-4.8001,-4.8001,-4.8166,-5.1789,-5.5172,-5.8231,0.0,0.0,0.0,0.0,-6.8583,-7.0593,0.0,0.0,-7.2548,-7.374,-7.4005,0.0,-7.2415,-7.0527,-6.8738,-6.897,-6.7082,-6.4829,-6.5293,-6.473,0.0,0.0,0.0,-6.1616,-5.6514,0.0,0.0,0.0,0.0,0.0,0.0,0.0,0.0,0.0,0.0,0.0,0.0,0.0,0.0,0.0,0.0,0.0,0.0,0.0,0.0,0.0,0.0,0.0,0.0,0.0,0.0,0.0,-6.7148,-6.7747,-6.7956,-6.8405,-6.8435,-6.7956,-6.8196,-6.8076,-6.7657,-6.8106,-6.8076,-6.7627,-6.7627,-6.7418,-6.6999,-6.6999,-6.7238,-6.7657,-6.7897,-6.8362,-6.8879,-6.8928,-6.9116,-6.9093,-6.8537,-6.8315,-6.8315,-6.1053,-6.1119,-6.102,-6.0755,-5.9496,-5.8171,-5.7243,0.0,0.0,0.0,-6.3397,0.0,-6.7546,0.0,-7.0469,0.0,-7.2437,-7.1275,-6.7334,-6.8097,0.0,-6.2736,-6.0886,0.0,0.0,0.0,0.0,0.0,-5.0452,-4.9193,-4.8001,-4.8001,-4.8133,-4.8498,-5.0973,-5.5111,-6.021,-6.0652,-6.4186,0.0,0.0,-6.863,0.0,0.0,-7.0196,-7.1587,0.0,-7.4619,-7.4502,-7.4038,-7.2614,-7.1189,-7.215,-6.9666,-6.6651,-6.8042,-6.7281,-6.5724,-6.4465,-6.5293,0.0,-6.0622,-5.9926,0.0,-5.4626,0.0,0.0,0.0,0.0,0.0,0.0,0.0,0.0,0.0,0.0,0.0,0.0,0.0,0.0,0.0,0.0,0.0,0.0,0.0,0.0,0.0,0.0,0.0,0.0,0.0,-6.7837,-6.8315,-6.8525,-6.8645,-6.8675,-6.8884,-6.8764,-6.8345,-6.8638,-6.8638,-6.8315,-6.7981,-6.7623,-6.739,-6.7849,-6.8122,-6.8334,-6.9276,-6.9815,-7.0066,-7.0249,-7.022,-7.0064,-6.9295,-6.9004,-6.9064,-6.0854,-6.0953,-6.0721,-6.0059,-5.88,-5.7839,0.0,0.0,-6.0242,0.0,-6.4811,-6.6284,-6.8961,-7.2062,-7.4154,-7.4812,-7.684,-7.6024,-7.1357,-7.1408,0.0,0.0,-6.535,-6.5778,-6.9268,0.0,0.0,0.0,0.0,-4.8829,-4.8067,-4.8034,-4.8398,-4.9127,-4.9922,-5.4293,-6.111,-6.1042,-6.521,-7.1665,-6.88,-6.8493,-6.9732,-6.9136,-7.0196,-7.2283,-7.4436,-7.5231,-7.5231,-7.5231,-7.5231,-7.5231,-7.5165,-7.374,-7.2051,-7.2051,-7.1554,-7.056,-6.8473,-6.7413,-6.6519,-6.4962,0.0,0.0,0.0,0.0,-5.5355,0.0,0.0,0.0,0.0,0.0,0.0,0.0,0.0,0.0,0.0,0.0,0.0,0.0,0.0,0.0,0.0,0.0,0.0,0.0,0.0,0.0,0.0,0.0,-6.7539,-6.8944,-6.8375,-6.8645,-6.9961,-6.9393,-6.9093,-6.9034,-6.8653,-6.8653,-6.897,-6.8061,-6.7767,-6.8143,-6.9364,-6.9559,-6.9154,-7.1625,-7.192,-7.0845,-7.2179,-7.1933,-7.077,-6.9567,-6.9093,-6.9273,-5.9529,-5.9032,-5.8767,-5.9131,-5.8866,-5.8436,0.0,0.0,0.0,0.0,-6.8221,-7.0728,-7.3918,-7.5744,-7.6632,-7.6307,-7.6795,0.0,0.0,0.0,0.0,-7.0992,-6.8705,-6.7683,-6.8288,-6.22,0.0,-5.6402,0.0,-5.0055,-4.8829,-4.8266,-4.8398,-4.916,-5.0419,-5.3779,-5.8478,-5.9135,-6.2756,-6.7975,-6.8093,-6.8781,0.0,0.0,-7.1985,-7.2216,-7.3873,-7.452,-7.452,-7.452,-7.452,-7.437,-7.384,-7.3276,-7.2813,-7.2813,-7.268,-7.2415,-7.1852,-7.1951,-7.1455,-6.8341,-6.7148,-6.5889,0.0,0.0,0.0,0.0,0.0,0.0,0.0,0.0,0.0,0.0,0.0,0.0,0.0,0.0,0.0,0.0,0.0,0.0,0.0,0.0,0.0,0.0,0.0,0.0,0.0,0.0,0.0,-6.8884,-6.8824,-6.9123,-6.9961,-7.0032,-6.9784,-6.9308,-6.9459,-6.9329,-6.8956,-6.9353,-6.9305,-6.8911,-6.9988,-7.0589,-7.0934,-7.1597,-7.2213,-7.2742,-7.3162,-7.2901,-7.2121,-7.0893,-7.041,-7.053,-5.9893,-5.9264,-5.8899,-5.9297,0.0,0.0,-6.0514,-6.0837,0.0,-6.8203,-7.0173,0.0,-7.5734,-7.7812,-7.8795,-7.8437,-7.8405,0.0,-7.5647,0.0,0.0,-7.3881,-7.2605,-7.1915,-7.1898,-6.6513,0.0,-5.9646,0.0,-5.2167,-4.9558,-4.8829,-4.8895,-4.9657,-5.0783,-5.375,-5.8133,-6.189,-6.4982,-6.7493,-6.9382,0.0,0.0,-7.2727,-7.3307,-7.3541,-7.4184,-7.4533,-7.4668,-7.4668,-7.4668,-7.4602,-7.4171,-7.384,-7.3575,-7.3575,-7.3807,-7.4072,-7.4072,-7.4105,-7.379,-7.1985,-7.0858,-6.9434,-6.6751,-6.5293,-6.3968,0.0,0.0,0.0,0.0,0.0,0.0,0.0,0.0,0.0,0.0,0.0,0.0,0.0,0.0,0.0,0.0,0.0,0.0,0.0,0.0,0.0,0.0,0.0,0.0,-6.7476,-6.7932,-6.8668,-6.9863,-6.9757,-6.9878,-7.016,-7.0377,-7.0416,-7.0336,-7.022,-7.0061,-6.9929,-7.1005,-7.1529,-7.1624,-7.2985,-7.349,-7.3584,-7.382,-7.3791,-7.3383,-7.2768,-7.2204,-7.1883,-6.0721,-6.0291,-5.9926,-6.0125,-6.2263,0.0,0.0,-6.343,0.0,-7.068,0.0,-7.309,-7.6297,-7.8934,-8.0496,-8.0496,0.0,-7.97,-7.8163,-7.842,-7.7921,-7.6515,-7.6583,-7.6747,-7.6864,-7.156,0.0,0.0,0.0,-5.4397,-5.0485,-4.9723,-4.9723,-5.0386,-5.1181,0.0,0.0,-6.5778,-6.8445,-6.8496,-7.1358,-7.297,-7.3628,-7.3599,-7.43,-7.5327,-7.4983,-7.5006,-7.5132,-7.5132,-7.5264,-7.5397,-7.5297,-7.5017,-7.4602,-7.4602,-7.4966,-7.543,-7.5529,-7.5098,-7.4734,-7.5297,-7.4038,-7.2316,-7.0726,-6.9401,-6.7711,-6.4995,-6.3902,-6.3107,0.0,0.0,0.0,0.0,0.0,0.0,0.0,0.0,0.0,0.0,0.0,0.0,0.0,0.0,0.0,0.0,0.0,0.0,0.0,0.0,0.0,-6.6237,-6.7042,0.0,-6.9428,0.0,-6.9934,-7.0802,-7.1042,-7.1456,-7.1898,-7.0918,-7.0606,-7.0928,-7.2142,-7.2366,-7.1992,-7.4575,-7.5002,-7.3976,-7.4225,-7.4332,-7.4448,-7.469,-7.4105,-7.3384,-5.9396,-5.9164,-5.9496,-6.0688,-6.2799,-6.5565,-6.9272,-6.9551,-7.0302,-7.3083,-7.4952,-7.686,-7.9069,-8.0242,-8.089,-8.089,-8.0431,0.0,0.0,0.0,0.0,-7.9282,-7.9388,-7.8474,-7.6322,-7.2255,-6.8086,0.0,0.0,-5.5457,-5.1976,-5.1282,-5.0949,-5.1148,-5.2473,0.0,-6.0478,-6.2903,0.0,-6.824,-7.109,-7.2747,-7.3534,-7.4694,-7.5271,-7.5456,-7.5402,-7.493,-7.442,-7.442,-7.5165,-7.6026,-7.5463,-7.5993,-7.6854,-7.6854,-7.6523,-7.6258,-7.6887,-7.6954,-7.6722,-7.6258,-7.6291,-7.5927,-7.3873,-7.321,-7.2548,-7.0825,-7.0361,-6.9301,-6.6154,0.0,0.0,0.0,0.0,0.0,0.0,0.0,0.0,0.0,0.0,0.0,0.0,0.0,0.0,0.0,0.0,0.0,0.0,0.0,0.0,0.0,0.0,0.0,0.0,0.0,-7.1156,-6.8834,-7.0354,-7.1067,-7.0947,-7.1468,-7.1724,-7.1805,-7.2778,-7.326,-7.3403,-7.3924,-7.4511,-7.4944,-7.3975,-7.3911,-7.4494,-7.5112,-7.5209,-7.5086,-6.1748,-6.1417,-6.1881,-6.41,-6.6344,0.0,0.0,-7.4473,-7.5711,-7.5646,-7.6493,-7.7608,-7.8924,-8.021,-8.0966,-8.0966,-8.0701,-8.0669,-8.0993,-8.082,-8.0743,-8.0802,-8.0319,0.0,-7.7851,-7.5034,-7.0913,-6.5338,0.0,-5.8415,-5.3467,-5.2738,-5.2373,-5.2506,-5.5336,-5.8434,0.0,0.0,0.0,-7.0368,-7.311,-7.4657,-7.5375,-7.5929,-7.6126,-7.6016,-7.5854,-7.5435,-7.4851,-7.461,-7.483,-7.5198,-7.5264,-7.5993,-7.692,-7.7318,-7.745,-7.755,-7.7881,-7.7715,-7.7318,-7.6987,-7.6854,-7.6556,-7.5529,-7.5297,-7.4867,-7.3442,-7.3111,-7.1786,-6.7347,-6.3603,0.0,0.0,0.0,0.0,0.0,0.0,0.0,0.0,0.0,0.0,0.0,0.0,0.0,0.0,0.0,0.0,0.0,0.0,0.0,0.0,0.0,0.0,0.0,0.0,0.0,-7.1186,-7.1759,-7.2062,-7.2086,-7.2188,-7.2334,-7.2465,-7.2924,-7.3266,-7.3558,-7.3745,-7.4379,-7.5213,-7.4629,-7.4563,-7.4923,-7.5644,-7.5906,-7.6049,-6.463,-6.41,-6.4564,-6.785,-7.0108,-7.2218,-7.4621,-7.7892,-7.9548,-7.7974,-7.7844,-7.8137,-7.8722,-8.0139,-8.0966,-8.0966,-8.0966,-8.0966,-8.0966,-8.0966,-8.1144,-8.1381,-8.0711,-8.0087,-7.9496,-7.7618,-7.377,0.0,0.0,0.0,-5.5308,-5.4324,-5.4192,0.0,0.0,0.0,0.0,0.0,-7.1266,-7.3155,-7.5484,-7.6795,-7.7315,-7.7123,-7.6934,-7.6713,-7.6362,-7.5951,-7.5537,-7.5213,-7.4969,-7.4882,-7.5363,-7.6092,-7.6887,-7.7484,-7.808,-7.8511,-7.8511,-7.8113,-7.7649,-7.7649,-7.7219,-7.6755,-7.6589,-7.6556,-7.6192,-7.49,-7.4502,-7.2945,-6.8109,-6.6751,0.0,0.0,0.0,0.0,0.0,0.0,0.0,0.0,0.0,0.0,0.0,0.0,0.0,0.0,0.0,0.0,0.0,0.0,0.0,0.0,0.0,-7.0848,-6.9978,0.0,-7.2794,0.0,-7.3054,-7.311,-7.3285,-7.2794,-7.2721,-7.2952,-7.2952,-7.3162,-7.3422,-7.3764,-7.4382,-7.5083,-7.5083,-7.5083,-7.5132,-7.5827,-7.6092,-7.6291,-6.5922,-6.5194,-6.5667,0.0,0.0,-7.3422,-7.6408,-7.8836,-8.0185,-7.9815,-8.0275,-8.0637,-8.0734,-8.0896,-8.0966,-8.0966,-8.0966,-8.0966,-8.0966,-8.0966,-8.1025,-8.1025,-8.1257,-8.0866,-7.9813,-7.8052,-7.545,0.0,0.0,0.0,0.0,-5.6228,-5.669,0.0,0.0,0.0,0.0,-7.0416,-7.2692,-7.5511,-7.7034,-7.7714,-7.7779,-7.7722,-7.7657,-7.7585,-7.6969,-7.6424,-7.6049,-7.5984,-7.6332,-7.665,-7.6319,-7.7185,-7.8345,-7.8411,-7.8477,-7.8511,-7.8511,-7.8477,-7.8411,-7.8411,-7.8378,-7.8146,-7.745,-7.7318,-7.7086,-7.6291,-7.5595,-7.4005,-7.0196,-6.9434,-6.8148,0.0,0.0,0.0,0.0,0.0,0.0,0.0,0.0,0.0,0.0,0.0,0.0,0.0,0.0,0.0,0.0,0.0,0.0,-6.7951,0.0,-6.9647,-6.5627,-7.2398,0.0,-7.0848,-7.2485,-7.3318,-7.3285,-7.3005,-7.3005,-7.3266,-7.3266,-7.3422,-7.3797,-7.4019,-7.4204,-7.4321,-7.4321,-7.4321,-7.442,-7.5098,-7.5363,-7.5496,0.0,0.0,0.0,0.0,0.0,0.0,0.0,-7.9996,-8.0723,-8.0604,-8.0863,-8.0966,-8.0966,-8.0966,-8.0966,-8.0966,-8.0966,-8.0966,-8.0966,-8.0966,-8.0831,-8.041,-8.0917,-8.0581,-7.9267,-7.8452,-7.6278,0.0,0.0,0.0,0.0,-6.0199,-6.1052,0.0,0.0,-6.7673,-7.0337,-7.3258,-7.5309,-7.6683,-7.7941,-7.8726,-7.905,-7.8629,-7.8467,-7.837,-7.7657,-7.7001,-7.6489,-7.62,-7.6507,-7.6959,-7.6769,-7.7523,-7.8511,-7.8511,-7.8511,-7.8511,-7.8511,-7.8511,-7.8511,-7.8511,-7.8511,-7.8444,-7.8146,-7.808,-7.7881,-7.7119,-7.6755,-7.586,-7.3508,-7.2018,-7.0695,0.0,0.0,0.0,0.0,0.0,0.0,0.0,0.0,0.0,0.0,0.0,0.0,0.0,0.0,0.0,0.0,0.0,0.0,-6.5033,0.0,-7.1243,-6.7936,-7.3061,-7.4915,-7.3358,-7.3566,-7.3609,-7.3609,-7.3266,-7.3318,-7.3609,-7.3782,-7.3917,-7.4019,-7.4171,-7.4221,-7.4221,-7.4221,-7.4221,-7.4255,-7.4553,-7.4652,-7.4701,-7.4867,0.0,-7.4314,0.0,-7.801,-7.8129,-8.025,-8.082,-8.0966,-8.0966,-8.0966,-8.0966,-8.0966,-8.0966,-8.0966,-8.0966,-8.0831,-8.0734,-8.0734,-8.0507,-8.0183,-7.9665,-8.0151,0.0,-7.9328,-7.8926,-7.7385,-7.4735,-7.0994,0.0,0.0,-6.3868,-6.4893,0.0,-7.0037,-7.1721,-7.2802,-7.5907,-7.7463,-7.7779,-7.8842,-7.9503,-7.9924,-7.9406,-7.9212,-7.9082,-7.8143,-7.7495,-7.7034,-7.6456,-7.6801,-7.7402,-7.7334,-7.7924,-7.8734,-7.8788,-7.8842,-7.8809,-7.8577,-7.8511,-7.8511,-7.8511,-7.8511,-7.8511,-7.8511,-7.8511,-7.8312,-7.7583,-7.7583,-7.7285,-7.586,-7.4502,-7.3359,-7.2596,0.0,0.0,0.0,0.0,0.0,0.0,0.0,-6.3694,0.0,0.0,0.0,0.0,0.0,0.0,0.0,0.0,0.0,0.0,0.0,0.0,0.0,-7.3442,-7.5165,-7.4933,-7.4181,-7.3848,-7.395,-7.3679,-7.3679,-7.395,-7.412,-7.4221,-7.4221,-7.4221,-7.4221,-7.4221,-7.4221,-7.4221,-7.4221,-7.4221,-7.4221,-7.4288,-7.7697,-7.6088,-7.5742,-8.0461,-7.9584,-7.8819,-8.0701,-8.1025,-8.0966,-8.0966,-8.0966,-8.0966,-8.0966,-8.0966,-8.0966,-8.0966,-8.0378,-7.9989,-7.9989,-7.9309,-7.892,0.0,0.0,-7.9386,-8.0359,-7.9419,-7.9029,-7.9284,0.0,0.0,-6.9444,-6.6667,-6.7539,-7.149,-7.2498,-7.4639,-7.7577,-7.8061,-7.8527,-7.892,-7.9665,-8.0015,-7.9957,-8.0015,-8.0015,-7.9762,-7.8337,-7.7819,-7.769,-7.701,-7.7463,-7.8257,-7.8113,-7.8628,-7.9222,-7.9495,-7.9604,-7.9471,-7.8709,-7.8511,-7.8511,-7.8511,-7.8511,-7.8511,-7.8511,-7.8511,-7.8312,-7.7583,-7.8014,-7.8047,-7.6556,-7.6887,-7.6192,-7.2614,0.0,0.0,0.0,0.0,0.0,0.0,-6.6982,-6.5589,-6.902,0.0,0.0,0.0,0.0,0.0,0.0,0.0,0.0,-6.9202,-7.0382,0.0,-6.94,-7.3342,-7.49,-7.4221,-7.395,-7.395,-7.4171,-7.4171,-7.4171,-7.4171,-7.4221,-7.4221,-7.4221,-7.4221,-7.4221,-7.4221,-7.4221,-7.4221,-7.4221,-7.4221,-7.4221,-7.4221,-7.9626,-7.9037,-7.9015,-8.0757,-8.0548,-8.0307,-8.0928,-8.0966,-8.0966,-8.0966,-8.0966,-8.0966,-8.0966,-8.0604,-8.0313,0.0,-7.9665,-7.9244,0.0,-7.9017,-7.8661,-7.8175,-7.8629,-7.8989,-7.921,-7.9047,-7.9177,-7.9691,0.0,0.0,0.0,-7.2348,-7.349,-7.6579,-7.7152,-7.7663,-7.8159,-7.9536,-7.987,-7.9698,-8.041,-8.0701,-8.0701,-8.0701,-8.041,-7.9924,-7.9438,-7.8985,-7.8499,-7.8305,-7.8427,-7.8827,-7.9455,-7.9786,-7.9924,-7.9757,-8.0035,-8.0145,-7.9199,-7.911,-7.914,-7.8643,-7.8511,-7.8511,-7.8511,-7.8511,-7.861,-7.8875,-7.8709,-7.8544,-7.8577,-7.8345,-7.7782,-7.6622,-7.6854,0.0,0.0,0.0,0.0,0.0,0.0,-6.4619,0.0,-6.3395,0.0,0.0,0.0,0.0,0.0,0.0,0.0,0.0,-7.0148,0.0,-6.9688,-7.2945,-7.4453,-7.4221,-7.412,-7.412,-7.4221,-7.4221,-7.4221,-7.4221,-7.4221,-7.4221,-7.4221,-7.4221,-7.4221,-7.4221,-7.4221,-7.4221,-7.4221,-7.4221,-7.4553,-7.4933,-8.1986,-8.1623,-8.1467,-8.1951,-8.1818,-8.1584,-8.1349,-8.1525,-8.1525,-8.1085,-8.1204,-8.123,-8.1025,-8.041,0.0,-8.0345,-7.9704,-7.9234,-7.9234,-7.8974,-7.8486,-7.7771,-7.8193,-7.8445,-7.8355,-7.8641,0.0,-7.9805,-7.7781,-7.6802,-7.6828,-7.6667,-7.766,-7.9608,-8.0122,-8.0179,-7.9945,-8.0902,-8.1048,-8.0731,-8.089,-8.0966,-8.0966,-8.0966,-8.0766,-8.0345,-8.0054,-7.9665,-7.9244,-7.8985,-7.9198,-7.9607,-8.0087,-8.0583,-8.0875,-8.0353,-8.0537,-8.0707,-7.9681,-7.9507,-7.945,-7.8879,-7.8635,-7.8511,-7.8511,-7.8511,-7.8643,-7.9107,-7.9074,-7.9074,-7.9483,-7.9471,-7.9339,-7.9339,-7.9107,-7.8212,-7.6225,0.0,0.0,0.0,0.0,0.0,0.0,-6.6142,0.0,0.0,0.0,0.0,0.0,0.0,0.0,-6.7903,-7.1473,0.0,-7.1308,-7.3193,-7.4221,-7.4221,-7.4221,-7.4221,-7.4221,-7.4221,-7.4221,-7.4221,-7.4221,-7.4221,-7.4221,-7.4221,-7.4221,-7.4221,-7.4221,-7.4387,-7.4619,-7.4619,-7.5032,-7.5662,-8.4339,-8.3543,-8.2986,0.0,-8.3154,0.0,-8.2017,-8.2419,-8.2395,-8.1263,-8.1643,-8.1759,-8.1204,-8.0561,-8.0431,-8.1079,0.0,0.0,0.0,-7.9149,-7.8461,-7.7708,-7.7827,-7.7901,-7.7836,-7.85,-7.9205,-7.9992,-7.9992,-7.9708,-7.9191,-7.9708,-8.0274,-8.0807,-8.1469,-8.2068,-8.2519,-8.218,-8.2017,-8.1901,-8.1349,-8.1085,-8.1085,-8.1085,-8.1025,-8.0928,-8.028,-8.0054,-7.9924,-7.9277,-7.9736,-8.0464,-8.0295,-8.1043,-8.1901,-8.1123,-8.1123,-8.1129,-8.0099,-7.9747,-7.9606,-7.9298,-7.8902,-7.8523,-7.8544,-7.8511,-7.8544,-7.8577,-7.9086,-7.9616,-7.9769,-8.0332,-8.0763,-8.0829,-8.0134,-7.8577,-7.5728,0.0,0.0,0.0,0.0,0.0,0.0,-7.0019,-6.9968,0.0,0.0,0.0,0.0,0.0,-6.8723,-7.3617,-7.3815,-7.3848,-7.3848,-7.407,-7.4221,-7.4221,-7.4221,-7.4221,-7.4221,-7.4221,-7.4221,-7.4221,-7.4221,-7.4221,-7.4221,-7.4221,-7.4255,-7.4288,-7.4288,-7.4701,-7.5363,-7.5363,-7.5794,-7.639,0.0,0.0,-8.2817,-8.2986,-8.2873,-8.2761,-8.259,-8.2704,-8.2704,-8.2419,-8.2477,-8.2534,-8.2362,-8.223,-8.2198,-8.2362,-8.0394,-7.9119,-7.9119,-7.9414,-7.9215,-7.8461,-7.8925,-7.8925,-7.8364,-7.9562,-8.0839,-8.2095,-8.2095,-8.2038,-8.1868,-8.1582,-8.1467,-8.164,-8.226,-8.2326,-8.2132,-8.2942,-8.3042,-8.259,-8.2419,-8.2108,-8.1701,-8.1701,-8.1408,-8.0993,-8.0831,-8.0766,-8.0766,-8.0572,-8.0696,-8.0982,-8.1772,-8.2183,-8.2242,-8.129,-8.1356,-8.1599,-8.0565,-8.0411,-8.0401,-7.9819,-7.933,-7.8968,-7.8589,-7.8511,-7.8676,-7.9239,-7.9504,-7.9968,-8.1061,-8.1426,-8.1724,-8.2287,-8.0366,-7.8146,-7.6324,-7.4502,0.0,0.0,-7.0494,-7.1207,-7.182,-7.2002,-7.1604,0.0,0.0,0.0,0.0,-7.0319,-7.1227,-7.3209,-7.3805,-7.412,-7.412,-7.4171,-7.4221,-7.4221,-7.4221,-7.4221,-7.4221,-7.4221,-7.4221,-7.4221,-7.4221,-7.4221,-7.4221,-7.4221,-7.4553,-7.505,-7.505,-7.543,-7.6059,-7.6059,-7.6523,-7.7252,-8.3598,-8.3598,-8.3598,-8.3598,-8.3598,-8.3543,-8.3265,-8.3432,-8.3432,-8.2873,-8.3042,-8.3098,-8.2817,-8.2817,-8.2817,-8.2817,-8.1171,-8.032,-8.0603,-8.0377,-8.003,-7.9528,-7.9628,-7.9298,-7.8511,-7.9874,-8.1113,-8.2211,-8.2544,-8.2544,-8.2264,-8.2026,-8.219,-8.2761,-8.2761,-8.293,-8.3154,-8.3543,-8.3487,-8.321,-8.293,-8.2419,-8.1901,-8.1901,-8.1525,-8.0966,-8.0966,-8.1204,-8.1349,-8.1085,-8.155,-8.223,-8.2503,-8.2921,-8.3144,-8.2574,-8.2485,-8.2334,-8.1591,-8.1146,-8.0681,-7.9777,-7.9441,-7.9221,-7.8622,-7.8776,-7.9041,-7.9107,-7.9637,-8.0366,-8.1128,-8.1856,-8.2419,-8.2817,-8.0432,-7.8246,-7.745,-7.5165,0.0,-7.2846,-7.321,-7.374,-7.4403,-7.4535,-7.4072,-7.2846,0.0,0.0,-7.2813,-7.3391,-7.3688,-7.3608,-7.4169,-7.4566,-7.4719,-7.4719,-7.4553,-7.4221,-7.4221,-7.4221,-7.4221,-7.4221,-7.4221,-7.4221,-7.4221,-7.442,-7.4719,-7.4719,-7.5098,-7.5761,-7.5761,-7.6192,-7.6854,-7.7185,-7.7583,-7.8014,-8.4809,-8.4809,-8.4776,-8.464,-8.464,-8.4446,-8.3926,-8.4285,-8.4231,-8.321,-8.3487,-8.3653,-8.3098,-8.3042,-8.3042,-8.3042,-8.2422,-8.2167,-8.264,-8.1755,-8.1104,-8.0861,-8.0498,-7.9925,-7.9003,-8.0181,-8.1149,-8.1772,-8.2543,-8.2552,-8.2001,-8.2123,-8.2704,-8.3543,-8.3098,-8.3487,-8.4446,-8.3981,-8.3817,-8.3762,-8.3265,-8.2704,-8.219,-8.2075,-8.1701,-8.1263,-8.1204,-8.1467,-8.1843,-8.1408,-8.2126,-8.306,-8.2838,-8.3329,-8.4129,-8.4287,-8.3926,-8.3434,-8.2948,-8.1956,-8.0812,-7.9879,-7.9694,-7.9549,-7.892,-7.9285,-7.9583,-7.9107,-7.9947,-8.084,-8.0995,-8.2055,-8.2751,-8.232,-7.9769,-7.7815,-7.7715,0.0,-7.4535,-7.5993,-7.6125,-7.6457,-7.7318,-7.6954,-7.6556,-7.6324,-7.6424,-7.6424,0.0,-7.6424,-7.586,-7.4535,-7.486,-7.5139,-7.543,-7.543,-7.5132,-7.4502,-7.4502,-7.4553,-7.4604,-7.4553,-7.4487,-7.4438,-7.4387,-7.4686,-7.515,-7.515,-7.5647,-7.6291,-7.6343,-7.6821,-7.7649,-7.8279,-7.8511,-7.8643,-8.5723,-8.5587,-8.5384,-8.4742,-8.464,-8.4553,-8.4446,-8.4553,-8.45,-8.4339,-8.4392,-8.4392,-8.4339,-8.4339,-8.4339,-8.4339,-8.3771,-8.321,-8.2764,-8.3099,-8.2953,-8.2281,-8.2671,-8.2335,-8.1157,-8.1933,-8.2637,-8.3216,-8.3906,-8.4009,-8.3375,-8.3421,-8.3265,-8.293,-8.3377,-8.3653,-8.3872,-8.4285,-8.4446,-8.4446,-8.4339,-8.3926,-8.3377,-8.2873,-8.259,-8.2419,-8.1901,-8.1785,-8.1959,-8.2362,-8.2,-8.1641,-8.2968,-8.3684,-8.4287,-8.5149,-8.54,-8.511,-8.4096,-8.2884,-8.1853,-8.191,-8.1035,-8.0134,-8.0311,-8.0267,-8.0299,-8.1105,-8.1203,-8.151,-8.2363,-8.2751,-8.2088,-7.9604,-7.6755,-7.4635,-7.4038,0.0,-7.3807,-7.5264,-7.8047,-7.9206,-7.7583,-7.7881,-7.7649,-7.639,-7.6887,-7.6987,-7.6324,-7.692,-7.6854,-7.5993,-7.604,-7.6107,-7.6159,-7.6159,-7.6092,-7.596,-7.596,-7.6096,-7.6387,-7.6096,-7.5816,-7.5421,-7.5252,-7.48,-7.4387,-7.4622,-7.5336,-7.6324,-7.6532,-7.731,-7.8345,-7.8477,-7.8511,-7.8643,-8.6467,-8.6061,-8.5655,-8.5317,-8.4911,-8.464,-8.464,-8.464,-8.464,-8.464,-8.464,-8.464,-8.464,-8.464,-8.464,-8.464,-8.4339,-8.4069,-8.3796,-8.3432,-8.3153,-8.31,-8.3066,-8.2898,-8.2648,-8.2581,-8.2855,-8.349,-8.3862,-8.3838,-8.3571,-8.3704,-8.3708,-8.3796,-8.3708,-8.3872,-8.4231,-8.45,-8.464,-8.464,-8.464,-8.4231,-8.3653,-8.3377,-8.2873,-8.2305,-8.2362,-8.2362,-8.2419,-8.2704,-8.2647,-8.2609,-8.3654,-8.3887,-8.409,-8.5714,-8.5927,-8.5465,-8.4412,-8.3461,-8.2848,-8.293,-8.2312,-8.1589,-8.1359,-8.148,-8.1556,-8.1293,-8.1711,-8.2184,-8.232,-8.232,-8.1459,-7.8941,-7.6722,-7.5363,-7.543,-7.5098,-7.5529,-7.7384,-7.9107,-7.9571,-7.8146,-7.8312,-7.8246,-7.755,-7.7815,-7.7848,-7.7517,-7.7815,-7.7848,-7.7517,-7.7119,-7.692,-7.692,-7.692,-7.6523,-7.5761,-7.5761,-7.5864,-7.5967,-7.5568,-7.5402,-7.5435,-7.5239,-7.5288,-7.5619,-7.5873,-7.6655,-7.7694,-7.7851,-7.8126,-7.8577,-7.8974,-7.8875,-7.8643,-8.7211,-8.6704,-8.6196,-8.5858,-8.5283,-8.4843,-8.464,-8.464,-8.464,-8.464,-8.464,-8.464,-8.464,-8.464,-8.4539,-8.437,-8.4539,-8.4471,-8.4133,-8.354,-8.3364,-8.3742,-8.3335,-8.3181,-8.349,-8.2949,-8.2949,-8.349,-8.349,-8.3592,-8.3761,-8.3854,-8.4177,-8.4553,-8.4123,-8.4177,-8.464,-8.464,-8.464,-8.464,-8.464,-8.4339,-8.3872,-8.3762,-8.321,-8.259,-8.2873,-8.2986,-8.3042,-8.3154,-8.3321,-8.3587,-8.4044,-8.3982,-8.4003,-8.5591,-8.5824,-8.5387,-8.4636,-8.4189,-8.3928,-8.4093,-8.3639,-8.3049,-8.2651,-8.2926,-8.3025,-8.1956,-8.2429,-8.2926,-8.2419,-8.2154,-8.1293,-7.8908,0.0,-7.6954,-7.7351,-7.692,-7.7384,-7.9604,-7.9869,-7.9637,-7.9074,-7.9007,-7.9007,-7.9007,-7.9007,-7.9007,-7.9007,-7.9007,-7.8941,-7.8776,-7.7881,-7.7417,-7.7417,-7.7252,-7.6622,-7.5529,-7.586,-7.6078,-7.6129,-7.5885,-7.5918,-7.6148,-7.5722,-7.5973,-7.6719,-7.6975,-7.7692,-7.8564,-7.8617,-7.8558,-7.8577,-7.9173,-7.9007,-7.861,-8.8057,-8.7888,-8.7414,-8.6027,-8.5723,-8.5452,-8.4742,-8.464,-8.464,-8.464,-8.464,-8.464,-8.464,-8.464,-8.4336,-8.3625,-8.4234,-8.4031,-8.2678,-8.3756,-8.45,-8.4485,-8.4485,-8.4147,-8.3524,-8.3456,-8.3456,-8.349,-8.349,-8.3862,-8.4539,-8.4553,-8.4587,-8.464,-8.4553,-8.4553,-8.464,-8.464,-8.464,-8.464,-8.464,-8.4553,-8.4446,-8.3926,-8.3981,-8.4339,-8.3817,-8.3653,-8.3708,-8.4285,-8.3708,-8.293,-8.3554,-8.3999,-8.4341,-8.4531,-8.4803,-8.5119,-8.5485,-8.5274,-8.5144,-8.5832,-8.497,-8.4076,-8.4705,-8.4672,-8.4522,-8.4747,-8.4077,-8.3532,-8.3787,-8.3281,-8.1889,-7.8974,0.0,0.0,-7.7517,-7.7351,-7.8146,-8.0366,-8.0598,-8.0598,-8.0531,-8.0531,-8.0531,-8.0531,-8.0531,-8.0531,-8.0531,-8.0531,-8.0233,-7.9571,-7.8146,-7.7417,-7.7417,-7.6722,-7.6324,-7.6258,-7.7616,-7.8385,-7.865,-7.9049,-7.9036,-7.8583,-7.7642,-7.6907,-7.6376,-7.6635,-7.7048,-7.7536,-7.7799,-7.8093,-7.8544,-7.8577,-7.8577,-7.8544,-8.8734,-8.8294,-8.7685,-8.667,-8.6095,-8.552,-8.4742,-8.464,-8.464,-8.464,-8.464,-8.464,-8.464,-8.42,-8.3795,-8.3524,-8.3355,-8.3016,-8.2441,-8.2509,-8.2949,-8.3896,-8.393,-8.3592,-8.2847,-8.2813,-8.305,-8.349,-8.349,-8.3896,-8.464,-8.464,-8.464,-8.464,-8.464,-8.464,-8.464,-8.464,-8.464,-8.464,-8.464,-8.464,-8.4553,-8.4339,-8.4177,-8.4035,-8.4231,-8.3981,-8.3762,-8.4392,-8.4285,-8.396,-8.4177,-8.4128,-8.3921,-8.353,-8.4451,-8.5406,-8.4547,-8.4859,-8.5538,-8.5802,-8.5648,-8.5243,-8.4903,-8.4661,-8.4339,-8.3391,-8.3242,-8.3151,-8.2807,-8.2288,-8.1114,-7.8671,0.0,-7.9306,-7.7649,-7.8577,-7.9769,-8.0598,-8.0697,-8.0697,-8.0697,-8.0697,-8.0697,-8.0697,-8.0697,-8.0697,-8.0697,-8.0266,-7.9703,-7.8974,-7.7947,-7.7649,-7.8113,-7.7815,-7.745,-7.702,-7.7583,-7.7868,-7.7974,-7.786,-7.7893,-7.794,-7.7418,-7.727,-7.7281,-7.7558,-7.7889,-7.8345,-7.845,-7.8458,-7.8511,-7.8511,-7.8511,-7.8511,-8.9072,-8.8666,-8.8091,-8.738,-8.6636,-8.5892,-8.5114,-8.4776,-8.4539,-8.4302,-8.4268,-8.42,-8.3964,-8.3456,-8.305,-8.2813,-8.2577,-8.2205,-8.1731,-8.1426,-8.1731,-8.2746,-8.3016,-8.2915,-8.2408,-8.2408,-8.278,-8.349,-8.349,-8.3896,-8.464,-8.464,-8.464,-8.464,-8.464,-8.464,-8.464,-8.464,-8.464,-8.464,-8.464,-8.464,-8.464,-8.464,-8.4339,-8.4069,-8.4446,-8.4339,-8.4035,-8.4446,-8.464,-8.464,-8.464,-8.4339,-8.3872,-8.3265,-8.411,-8.5013,-8.363,-8.4275,-8.5299,-8.5235,-8.5387,-8.5314,-8.4583,-8.4426,-8.413,-8.291,-8.2851,-8.2975,-8.2425,-8.1878,-8.1007,-7.956,-8.0342,-8.0586,-7.9067,-8.0157,-8.1114,-8.1114,-8.1114,-8.1137,-8.1193,-8.1248,-8.1248,-8.1393,-8.1393,-8.1293,-8.1061,-8.0366,-7.9637,-7.8875,-7.8146,-7.8014,-7.8511,-7.8047,-7.7583,-7.7086,-7.755,-7.7782,-7.7749,-7.7642,-7.7808,-7.808,-7.7685,-7.7737,-7.8098,-7.8222,-7.8469,-7.8777,-7.8777,-7.8671,-7.8511,-7.8511,-7.8511,-7.8511,-8.9072,-8.9072,-8.8869,-8.8125,-8.738,-8.6636,-8.5892,-8.5114,-8.4336,-8.3592,-8.349,-8.3219,-8.2475,-8.2408,-8.2103,-8.1359,-8.1968,-8.1765,-8.031,-8.0885,-8.1291,-8.1291,-8.2002,-8.2408,-8.2408,-8.2408,-8.2746,-8.349,-8.349,-8.3862,-8.4606,-8.464,-8.464,-8.464,-8.464,-8.464,-8.464,-8.464,-8.464,-8.464,-8.464,-8.464,-8.464,-8.464,-8.464,-8.464,-8.464,-8.464,-8.464,-8.464,-8.464,-8.464,-8.464,-8.464,-8.45,-8.3872,-8.3708,-8.3598,-8.2986,-8.3573,-8.4337,-8.4137,-8.4096,-8.4096,-8.4096,-8.4096,-8.4096,-8.4063,-8.3539,-8.3048,-8.3048,-8.2458,-8.1967,-8.1967,-8.1967,-8.1967,-8.1967,-8.1967,-8.1967,-8.1967,-8.1967,-8.2083,-8.2338,-8.2395,-8.251,-8.2883,-8.2883,-8.2552,-8.1823,-8.1094,-8.0366,-7.9583,-7.8908,-7.8511,-7.8511,-7.7053,-7.6324,-7.6324,-7.7815,-7.8511,-7.8544,-7.9272,-7.9604,-7.9516,-7.8842,-7.8511,-7.8511,-7.8511,-7.8511,-7.8511,-7.8511,-7.8511,-7.8511,-7.8511,-7.8511,-7.8511,-8.9072,-8.9072,-8.8869,-8.8125,-8.6941,-8.5858,-8.508,-8.3896,-8.2983,-8.278,-8.2746,-8.2644,-8.2441,-8.1934,-8.1528,-8.1291,-8.1021,-8.0682,-8.0242,-8.0412,-8.0513,-8.0513,-8.1224,-8.1393,-8.0885,-8.0851,-8.1224,-8.1934,-8.2475,-8.3118,-8.3862,-8.437,-8.464,-8.464,-8.464,-8.464,-8.464,-8.464,-8.464,-8.464,-8.464,-8.464,-8.464,-8.464,-8.464,-8.464,-8.464,-8.464,-8.464,-8.464,-8.464,-8.464,-8.464,-8.464,-8.4553,-8.4392,-8.4339,-8.4231,-8.3598,-8.3654,-8.3877,-8.373,-8.4233,-8.4405,-8.3296,-8.3046,-8.2856,-8.207,-8.181,-8.1647,-8.1647,-8.1629,-8.1675,-8.1675,-8.185,-8.1967,-8.1967,-8.1967,-8.1967,-8.1967,-8.2198,-8.228,-8.2395,-8.26,-8.277,-8.2883,-8.2419,-8.179,-8.1061,-8.0332,-7.9604,-7.8875,-7.8643,-7.8511,-7.8511,-7.808,-7.7848,-7.7881,-7.8312,-7.8511,-7.8544,-7.8742,-7.8842,-7.8842,-7.861,-7.8511,-7.8511,-7.8511,-7.8511,-7.8511,-7.8511,-7.8511,-7.8511,-7.8511,-7.8511,-7.8511,-8.9072,-8.9072,-8.8937,-8.8497,-8.7211,-8.596,-8.5182,-8.3795,-8.2644,-8.2035,-8.1968,-8.1866,-8.1562,-8.1122,-8.0851,-8.0851,-8.0445,-8.0209,-8.0209,-8.0209,-8.0209,-8.0209,-8.0615,-8.0648,-8.0209,-8.0479,-8.0851,-8.1291,-8.234,-8.305,-8.3524,-8.4268,-8.464,-8.4606,-8.4302,-8.4336,-8.4606,-8.4302,-8.4336,-8.464,-8.464,-8.464,-8.464,-8.464,-8.464,-8.464,-8.464,-8.464,-8.464,-8.464,-8.464,-8.464,-8.464,-8.464,-8.464,-8.464,-8.464,-8.45,-8.4177,-8.4069,-8.4006,-8.3663,-8.3868,-8.387,-8.2921,-8.2472,-8.2106,-8.1505,-8.1204,-8.0966,-8.0966,-8.1144,-8.1322,-8.1322,-8.1499,-8.1617,-8.1617,-8.1617,-8.1617,-8.1617,-8.185,-8.2108,-8.2256,-8.2543,-8.277,-8.2883,-8.2486,-8.1889,-8.1161,-8.073,-8.0134,-7.9405,-7.9107,-7.8974,-7.8974,-7.8676,-7.8511,-7.8511,-7.8511,-7.8511,-7.8511,-7.8511,-7.8511,-7.8511,-7.8511,-7.8511,-7.8511,-7.8511,-7.8511,-7.8511,-7.8511,-7.8511,-7.8511,-7.8511,-7.8511,-7.8523,-8.9072,-8.9038,-8.9004,-8.9072,-8.7753,-8.6467,-8.579,-8.4336,-8.278,-8.1359,-8.119,-8.0953,-8.0276,-8.0209,-8.0209,-8.0209,-8.0209,-8.0209,-8.0209,-8.0209,-8.0209,-8.0209,-8.0209,-8.0209,-8.0209,-8.0851,-8.119,-8.119,-8.2611,-8.3287,-8.3321,-8.4065,-8.4437,-8.4403,-8.3761,-8.3862,-8.4471,-8.3862,-8.3998,-8.464,-8.464,-8.464,-8.464,-8.464,-8.464,-8.464,-8.464,-8.464,-8.464,-8.464,-8.464,-8.464,-8.464,-8.464,-8.464,-8.464,-8.464,-8.464,-8.464,-8.464,-8.4446,-8.3926,-8.3377,-8.293,-8.2817,-8.2362,-8.1959,-8.1959,-8.1525,-8.1144,-8.1144,-8.1144,-8.1144,-8.1085,-8.1085,-8.1085,-8.1025,-8.0966,-8.0966,-8.0966,-8.1322,-8.1617,-8.1909,-8.2223,-8.2543,-8.2883,-8.285,-8.2519,-8.1823,-8.1724,-8.1393,-8.0697,-8.0067,-7.9703,-7.9637,-7.8941,-7.8577,-7.8511,-7.8511,-7.8511,-7.8511,-7.8511,-7.8511,-7.8511,-7.8511,-7.8511,-7.8511,-7.8511,-7.8511,-7.8511,-7.8511,-7.8511,-7.8511,-7.8511,-7.8523,-7.8635,-8.9072,-8.8632,-8.8395,-8.897,-8.6873,-8.5046,-8.4911,-8.3118,-8.1426,-8.0547,-8.0445,-8.0378,-8.0209,-8.0209,-8.0209,-8.0209,-8.0209,-8.0209,-8.0209,-8.0209,-8.0209,-8.0209,-8.0209,-8.0209,-8.0209,-8.0344,-8.0445,-8.0445,-8.1325,-8.1765,-8.1765,-8.2543,-8.2881,-8.2915,-8.3321,-8.3592,-8.3761,-8.42,-8.4471,-8.464,-8.464,-8.464,-8.464,-8.464,-8.464,-8.464,-8.464,-8.464,-8.464,-8.464,-8.464,-8.464,-8.464,-8.464,-8.464,-8.464,-8.464,-8.464,-8.464,-8.464,-8.4553,-8.4446,-8.4285,-8.396,-8.2986,-8.2704,-8.259,-8.259,-8.2477,-8.2419,-8.2419,-8.2419,-8.228,-8.1818,-8.1668,-8.1525,-8.1085,-8.0966,-8.0966,-8.0966,-8.1322,-8.1525,-8.1617,-8.2108,-8.2543,-8.2883,-8.2353,-8.1956,-8.179,-8.1227,-8.0863,-8.0697,-8.0531,-8.02,-7.9637,-7.9417,-7.9107,-7.8511,-7.8511,-7.8511,-7.8511,-7.8511,-7.8511,-7.8511,-7.8511,-7.8511,-7.8511,-7.8511,-7.8511,-7.8511,-7.8511,-7.8511,-7.8511,-7.8511,-7.8746,-7.9123,-8.8632,-8.826,-8.8023,-8.8023,-8.6467,-8.5046,-8.4674,-8.3016,-8.1562,-8.0818,-8.0412,-8.0209,-8.0209,-8.0209,-8.0209,-8.0209,-8.0209,-8.0209,-8.0209,-8.0209,-8.0209,-8.0209,-8.0209,-8.0209,-8.0209,-8.0209,-8.0209,-8.0209,-8.0919,-8.1291,-8.1291,-8.2069,-8.2408,-8.2441,-8.2813,-8.3186,-8.3524,-8.393,-8.4302,-8.464,-8.464,-8.464,-8.464,-8.464,-8.464,-8.464,-8.464,-8.464,-8.464,-8.464,-8.464,-8.464,-8.464,-8.464,-8.464,-8.464,-8.464,-8.464,-8.464,-8.464,-8.464,-8.464,-8.464,-8.4446,-8.3762,-8.3432,-8.321,-8.321,-8.2986,-8.2817,-8.2817,-8.2817,-8.2704,-8.2362,-8.2305,-8.2133,-8.1525,-8.1408,-8.129,-8.1025,-8.1322,-8.1525,-8.1734,-8.2025,-8.2313,-8.2428,-8.1906,-8.1533,-8.1533,-8.1039,-8.0697,-8.0697,-8.0366,-8.0001,-7.9637,-7.9272,-7.8908,-7.8511,-7.8511,-7.8511,-7.8511,-7.8511,-7.8511,-7.8511,-7.8511,-7.8511,-7.8511,-7.8511,-7.8511,-7.8511,-7.8511,-7.8511,-7.8511,-7.8511,-7.8881,-7.9547,-8.8125,-8.7888,-8.7617,-8.7008,-8.6163,-8.5384,-8.4708,-8.3456,-8.234,-8.1562,-8.0851,-8.0378,-8.0378,-8.0276,-8.0209,-8.0209,-8.0209,-8.0209,-8.0209,-8.0209,-8.0209,-8.0209,-8.0209,-8.0209,-8.0209,-8.0209,-8.0209,-8.0209,-8.0784,-8.1088,-8.1122,-8.1731,-8.2103,-8.2238,-8.234,-8.2813,-8.3524,-8.3625,-8.3964,-8.4437,-8.4573,-8.4539,-8.4437,-8.4573,-8.464,-8.464,-8.464,-8.464,-8.464,-8.464,-8.464,-8.464,-8.464,-8.464,-8.464,-8.464,-8.464,-8.464,-8.464,-8.464,-8.464,-8.464,-8.464,-8.464,-8.464,-8.4231,-8.3872,-8.3872,-8.3432,-8.3098,-8.3098,-8.3098,-8.3042,-8.2986,-8.293,-8.2761,-8.2133,-8.2075,-8.1843,-8.1381,-8.1525,-8.1818,-8.2198,-8.2198,-8.2165,-8.2034,-8.167,-8.1355,-8.12,-8.0884,-8.0697,-8.0697,-8.0134,-7.9736,-7.9637,-7.9007,-7.8643,-7.8511,-7.8511,-7.8511,-7.8511,-7.8511,-7.8511,-7.8511,-7.8511,-7.8511,-7.8511,-7.8511,-7.8511,-7.8511,-7.8511,-7.8511,-7.849,-7.8647,-7.9177,-7.9855,-8.8125,-8.7482,-8.7042,-8.6941,-8.5723,-8.4742,-8.464,-8.3896,-8.3084,-8.234,-8.1596,-8.1122,-8.1122,-8.0581,-8.0209,-8.0209,-8.0209,-8.0209,-8.0209,-8.0209,-8.0209,-8.0209,-8.0209,-8.0209,-8.0209,-8.0209,-8.0209,-8.0209,-8.031,-8.0344,-8.0344,-8.0445,-8.0818,-8.146,-8.2137,-8.2813,-8.3524,-8.42,-8.4167,-8.3693,-8.437,-8.4234,-8.3727,-8.437,-8.464,-8.464,-8.464,-8.464,-8.464,-8.464,-8.464,-8.464,-8.464,-8.464,-8.464,-8.464,-8.464,-8.464,-8.464,-8.464,-8.464,-8.464,-8.464,-8.464,-8.464,-8.45,-8.4446,-8.4446,-8.4392,-8.4339,-8.4339,-8.4339,-8.4177,-8.3653,-8.3598,-8.3377,-8.2761,-8.2647,-8.2647,-8.2534,-8.259,-8.2794,-8.3131,-8.3131,-8.2843,-8.2234,-8.2101,-8.1713,-8.0807,-8.073,-8.0697,-8.0697,-8.0598,-8.0266,-7.9637,-7.9483,-7.914,-7.8511,-7.8511,-7.8511,-7.8511,-7.8511,-7.8511,-7.8511,-7.8511,-7.8511,-7.8511,-7.8511,-7.8511,-7.8511,-7.8511,-7.8511,-7.8569,-7.9363,-7.973,-7.992,-8.6974,-8.6501,-8.6129,-8.5689,-8.508,-8.464,-8.464,-8.3964,-8.3389,-8.305,-8.2374,-8.19,-8.19,-8.1257,-8.0648,-8.0242,-8.0209,-8.0209,-8.0209,-8.0209,-8.0209,-8.0209,-8.0209,-8.0209,-8.0209,-8.0209,-8.0209,-8.0209,-8.0209,-8.0209,-8.0209,-8.0209,-8.0378,-8.0716,-8.146,-8.1968,-8.2306,-8.305,-8.3422,-8.3524,-8.3862,-8.4065,-8.4167,-8.4505,-8.464,-8.464,-8.464,-8.464,-8.464,-8.464,-8.464,-8.464,-8.464,-8.464,-8.464,-8.464,-8.464,-8.464,-8.464,-8.464,-8.464,-8.464,-8.464,-8.464,-8.464,-8.464,-8.464,-8.464,-8.464,-8.464,-8.464,-8.464,-8.45,-8.4231,-8.4231,-8.3981,-8.3377,-8.3321,-8.3154,-8.2817,-8.2817,-8.2873,-8.2986,-8.3019,-8.2886,-8.2554,-8.2322,-8.179,-8.073,-8.0463,-8.0065,-7.9504,-7.9471,-7.9339,-7.9007,-7.9007,-7.8842,-7.8511,-7.8511,-7.8511,-7.8511,-7.8511,-7.8511,-7.8511,-7.8511,-7.8511,-7.8511,-7.8511,-7.8511,-7.8511,-7.8511,-7.8511,-7.8589,-7.9243,-7.9622,-7.9855]},{"header":{"parameterUnit":"m.s-1","parameterCategory":1,"la1":30.6,"la2":28.766,"lo1":-90.7593,"lo2":-88.6598,"dx":0.0162,"dy":0.0183,"nx":116,"ny":114,"refTime":"2022-12-09T06:00:00:Z","depth":0,"parameterNumber":3,"parameterNumberName":"V-component_of_WINDS"},"data":[0.0,0.0,0.0,0.0,0.0,0.0,0.0,0.0,0.0,0.0,0.0,0.0,0.0,0.0,0.0,0.0,0.0,0.0,0.0,0.0,0.0,0.0,0.0,0.0,0.0,0.0,0.0,0.0,0.0,0.0,0.0,0.0,0.0,0.0,0.0,0.0,0.0,0.0,0.0,0.0,0.0,0.0,0.0,0.0,0.0,0.0,0.0,0.0,0.0,0.0,0.0,0.0,0.0,0.0,0.0,0.0,0.0,0.0,0.0,0.0,0.0,0.0,0.0,0.0,0.0,0.0,0.0,0.0,0.0,0.0,0.0,0.0,0.0,0.0,0.0,0.0,0.0,0.0,0.0,0.0,0.0,0.0,0.0,0.0,0.0,0.0,0.0,0.0,0.0,0.0,0.0,0.0,0.0,0.0,0.0,0.0,0.0,0.0,0.0,0.0,0.0,0.0,0.0,0.0,0.0,0.0,0.0,0.0,0.0,0.0,0.0,0.0,0.0,0.0,0.0,0.0,0.0,0.0,0.0,0.0,0.0,0.0,0.0,0.0,0.0,0.0,0.0,0.0,0.0,0.0,0.0,0.0,0.0,0.0,0.0,0.0,0.0,0.0,0.0,0.0,0.0,0.0,0.0,0.0,0.0,0.0,0.0,0.0,0.0,0.0,0.0,0.0,0.0,0.0,0.0,0.0,0.0,0.0,0.0,0.0,0.0,0.0,0.0,0.0,0.0,0.0,0.0,0.0,0.0,0.0,0.0,0.0,0.0,0.0,0.0,0.0,0.0,0.0,0.0,0.0,0.0,0.0,0.0,0.0,0.0,0.0,0.0,0.0,0.0,0.0,0.0,0.0,0.0,0.0,0.0,0.0,0.0,0.0,0.0,0.0,0.0,0.0,0.0,0.0,0.0,0.0,0.0,0.0,0.0,0.0,0.0,0.0,0.0,0.0,0.0,0.0,0.0,0.0,0.0,0.0,0.0,0.0,0.0,0.0,0.0,0.0,0.0,0.0,0.0,0.0,0.0,0.0,0.0,0.0,0.0,0.0,0.0,0.0,0.0,0.0,0.0,0.0,0.0,0.0,0.0,0.0,0.0,0.0,0.0,0.0,0.0,0.0,0.0,0.0,0.0,0.0,0.0,0.0,0.0,0.0,0.0,0.0,0.0,0.0,0.0,0.0,0.0,0.0,0.0,0.0,0.0,0.0,0.0,0.0,0.0,0.0,0.0,0.0,0.0,0.0,0.0,0.0,0.0,0.0,0.0,0.0,0.0,0.0,0.0,0.0,0.0,0.0,0.0,0.0,0.0,0.0,0.0,0.0,0.0,0.0,0.0,0.0,0.0,0.0,0.0,0.0,0.0,0.0,0.0,0.0,0.0,0.0,0.0,0.0,0.0,0.0,0.0,0.0,0.0,0.0,0.0,0.0,0.0,0.0,0.0,0.0,0.0,0.0,0.0,0.0,0.0,0.0,0.0,0.0,0.0,0.0,0.0,0.0,0.0,0.0,0.0,0.0,0.0,0.0,0.0,0.0,0.0,0.0,0.0,0.0,0.0,0.0,0.0,0.0,0.0,0.0,0.0,0.0,0.0,0.0,0.0,0.0,0.0,0.0,0.0,0.0,0.0,0.0,0.0,0.0,0.0,0.0,0.0,0.0,0.0,0.0,0.0,0.0,0.0,0.0,0.0,0.0,0.0,0.0,0.0,0.0,0.0,0.0,0.0,0.0,0.0,0.0,0.0,0.0,0.0,0.0,0.0,0.0,0.0,0.0,0.0,0.0,0.0,0.0,0.0,0.0,0.0,0.0,0.0,0.0,0.0,0.0,0.0,0.0,0.0,0.0,0.0,0.0,0.0,0.0,0.0,0.0,0.0,0.0,0.0,0.0,0.0,0.0,0.0,0.0,0.0,0.0,0.0,0.0,0.0,0.0,0.0,0.0,0.0,0.0,0.0,0.0,0.0,0.0,0.0,0.0,0.0,0.0,0.0,0.0,0.0,0.0,0.0,0.0,0.0,0.0,0.0,0.0,0.0,0.0,0.0,0.0,0.0,0.0,0.0,0.0,0.0,0.0,0.0,0.0,0.0,0.0,0.0,0.0,0.0,0.0,0.0,0.0,0.0,0.0,0.0,0.0,0.0,0.0,0.0,0.0,0.0,0.0,0.0,0.0,0.0,0.0,0.0,0.0,0.0,0.0,0.0,0.0,0.0,0.0,0.0,0.0,0.0,0.0,0.0,0.0,0.0,0.0,0.0,0.0,0.0,0.0,0.0,0.0,0.0,0.0,0.0,0.0,0.0,0.0,0.0,0.0,0.0,0.0,0.0,0.0,0.0,0.0,0.0,0.0,0.0,0.0,0.0,0.0,0.0,0.0,0.0,0.0,0.0,0.0,0.0,0.0,0.0,0.0,0.0,0.0,0.0,0.0,0.0,0.0,0.0,0.0,0.0,0.0,0.0,0.0,0.0,0.0,0.0,0.0,0.0,0.0,0.0,0.0,0.0,0.0,0.0,0.0,0.0,0.0,0.0,0.0,0.0,0.0,0.0,0.0,0.0,0.0,0.0,0.0,0.0,0.0,0.0,0.0,0.0,0.0,0.0,0.0,0.0,0.0,0.0,0.0,0.0,0.0,0.0,0.0,0.0,0.0,0.0,0.0,0.0,0.0,0.0,0.0,0.0,0.0,0.0,0.0,0.0,0.0,0.0,0.0,0.0,0.0,0.0,0.0,0.0,0.0,0.0,0.0,0.0,0.0,0.0,0.0,0.0,0.0,0.0,0.0,0.0,0.0,0.0,0.0,0.0,0.0,0.0,0.0,0.0,0.0,0.0,0.0,0.0,0.0,0.0,0.0,0.0,0.0,0.0,0.0,0.0,0.0,0.0,0.0,0.0,0.0,0.0,0.0,0.0,0.0,0.0,0.0,0.0,0.0,0.0,0.0,0.0,0.0,0.0,0.0,0.0,0.0,0.0,0.0,0.0,0.0,0.0,0.0,0.0,0.0,0.0,0.0,0.0,0.0,0.0,0.0,0.0,0.0,0.0,0.0,0.0,0.0,0.0,0.0,0.0,0.0,0.0,0.0,0.0,0.0,0.0,0.0,0.0,0.0,0.0,0.0,0.0,0.0,0.0,0.0,0.0,0.0,0.0,0.0,0.0,0.0,0.0,0.0,0.0,0.0,0.0,0.0,0.0,0.0,0.0,0.0,0.0,0.0,0.0,0.0,0.0,0.0,0.0,0.0,0.0,0.0,0.0,0.0,0.0,0.0,0.0,0.0,0.0,0.0,0.0,0.0,0.0,0.0,0.0,0.0,0.0,0.0,0.0,0.0,0.0,0.0,0.0,0.0,0.0,0.0,0.0,0.0,0.0,0.0,0.0,0.0,0.0,0.0,0.0,0.0,0.0,0.0,0.0,0.0,0.0,0.0,0.0,0.0,0.0,0.0,0.0,0.0,0.0,0.0,0.0,0.0,0.0,0.0,0.0,0.0,0.0,0.0,0.0,0.0,0.0,0.0,0.0,0.0,0.0,0.0,0.0,0.0,0.0,0.0,0.0,0.0,0.0,0.0,0.0,0.0,0.0,0.0,0.0,0.0,0.0,0.0,0.0,0.0,0.0,0.0,0.0,0.0,0.0,0.0,0.0,0.0,0.0,0.0,0.0,0.0,0.0,0.0,0.0,0.0,0.0,0.0,0.0,0.0,0.0,0.0,0.0,0.0,0.0,0.0,0.0,0.0,0.0,0.0,0.0,0.0,0.0,0.0,0.0,0.0,0.0,0.0,0.0,0.0,0.0,0.0,0.0,0.0,0.0,0.0,0.0,0.0,0.0,0.0,0.0,0.0,0.0,0.0,0.0,0.0,0.0,0.0,0.0,0.0,0.0,0.0,0.0,0.0,0.0,0.0,0.0,0.0,0.0,0.0,0.0,0.0,0.0,0.0,0.0,0.0,0.0,0.0,0.0,0.0,0.0,0.0,0.0,0.0,0.0,0.0,0.0,0.0,0.0,0.0,0.0,0.0,0.0,0.0,0.0,0.0,0.0,0.0,0.0,0.0,0.0,0.0,0.0,0.0,0.0,0.0,0.0,0.0,0.0,0.0,0.0,0.0,0.0,0.0,0.0,0.0,0.0,0.0,0.0,0.0,0.0,0.0,0.0,0.0,0.0,0.0,0.0,0.0,0.0,0.0,0.0,0.0,0.0,0.0,0.0,0.0,0.0,0.0,0.0,0.0,0.0,0.0,0.0,0.0,0.0,0.0,0.0,0.0,0.0,0.0,0.0,0.0,0.0,0.0,0.0,0.0,0.0,0.0,0.0,0.0,0.0,0.0,0.0,0.0,0.0,0.0,0.0,0.0,0.0,0.0,0.0,0.0,0.0,0.0,0.0,0.0,0.0,0.0,0.0,0.0,0.0,0.0,0.0,0.0,0.0,0.0,0.0,0.0,0.0,0.0,0.0,0.0,0.0,0.0,0.0,0.0,0.0,0.0,0.0,0.0,0.0,0.0,0.0,0.0,0.0,0.0,0.0,0.0,0.0,0.0,0.0,0.0,0.0,0.0,0.0,0.0,0.0,0.0,0.0,0.0,0.0,0.0,0.0,0.0,0.0,0.0,0.0,0.0,0.0,0.0,0.0,0.0,0.0,0.0,0.0,0.0,0.0,0.0,0.0,0.0,0.0,0.0,0.0,0.0,0.0,0.0,0.0,0.0,0.0,0.0,0.0,0.0,0.0,0.0,0.0,0.0,0.0,0.0,0.0,0.0,0.0,0.0,0.0,0.0,0.0,0.0,0.0,0.0,0.0,0.0,0.0,0.0,0.0,0.0,0.0,0.0,0.0,0.0,0.0,0.0,0.0,0.0,0.0,0.0,0.0,0.0,0.0,0.0,0.0,0.0,0.0,0.0,0.0,0.0,0.0,0.0,0.0,0.0,0.0,0.0,0.0,0.0,0.0,0.0,0.0,0.0,0.0,0.0,0.0,0.0,0.0,0.0,0.0,0.0,0.0,0.0,0.0,0.0,0.0,0.0,0.0,0.0,0.0,0.0,0.0,0.0,0.0,0.0,0.0,0.0,0.0,0.0,0.0,0.0,0.0,0.0,0.0,0.0,0.0,0.0,0.0,0.0,0.0,0.0,0.0,0.0,0.0,0.0,0.0,0.0,0.0,0.0,0.0,0.0,0.0,0.0,0.0,0.0,0.0,0.0,0.0,0.0,0.0,0.0,0.0,0.0,0.0,0.0,0.0,0.0,0.0,0.0,0.0,0.0,0.0,0.0,0.0,0.0,0.0,0.0,0.0,0.0,0.0,0.0,0.0,0.0,0.0,0.0,0.0,0.0,0.0,0.0,0.0,0.0,0.0,0.0,0.0,0.0,0.0,0.0,0.0,0.0,0.0,0.0,0.0,0.0,0.0,0.0,0.0,0.0,0.0,0.0,0.0,0.0,0.0,0.0,0.0,0.0,0.0,0.0,0.0,0.0,0.0,0.0,0.0,0.0,0.0,0.0,0.0,0.0,0.0,0.0,0.0,0.0,0.0,0.0,0.0,0.0,0.0,0.0,0.0,0.0,0.0,0.0,0.0,0.0,0.0,0.0,0.0,0.0,0.0,0.0,0.0,0.0,0.0,0.0,0.0,0.0,0.0,0.0,0.0,0.0,0.0,0.0,0.0,0.0,0.0,0.0,0.0,0.0,0.0,0.0,0.0,0.0,0.0,0.0,0.0,0.0,0.0,0.0,0.0,0.0,0.0,0.0,0.0,0.0,0.0,0.0,0.0,0.0,0.0,0.0,0.0,0.0,0.0,0.0,0.0,0.0,0.0,0.0,0.0,0.0,0.0,0.0,0.0,0.0,0.0,0.0,0.0,0.0,0.0,0.0,0.0,0.0,0.0,0.0,0.0,0.0,0.0,0.0,0.0,0.0,0.0,0.0,0.0,0.0,0.0,0.0,0.0,0.0,0.0,0.0,0.0,0.0,0.0,0.0,0.0,0.0,0.0,0.0,0.0,0.0,0.0,0.0,0.0,0.0,0.0,0.0,0.0,0.0,0.0,0.0,0.0,0.0,0.0,0.0,0.0,0.0,0.0,0.0,0.0,0.0,0.0,0.0,3.7112,0.0,0.0,0.0,0.0,0.0,0.0,0.0,0.0,0.0,0.0,0.0,0.0,0.0,0.0,0.0,0.0,0.0,0.0,0.0,0.0,0.0,0.0,0.0,0.0,0.0,0.0,0.0,0.0,0.0,0.0,0.0,0.0,0.0,0.0,0.0,0.0,0.0,2.8039,2.8436,2.9681,3.1291,3.3166,3.2895,3.0688,2.7024,0.0,0.0,0.0,0.0,0.0,0.0,0.0,0.0,0.0,0.0,0.0,0.0,0.0,0.0,0.0,0.0,0.0,0.0,0.0,0.0,0.0,0.0,0.0,0.0,0.0,0.0,0.0,0.0,0.0,0.0,0.0,0.0,0.0,0.0,0.0,0.0,0.0,0.0,0.0,0.0,0.0,0.0,0.0,0.0,0.0,0.0,0.0,0.0,0.0,0.0,0.0,0.0,0.0,0.0,0.0,0.0,0.0,0.0,0.0,0.0,0.0,0.0,0.0,0.0,0.0,0.0,0.0,0.0,0.0,0.0,0.0,3.8515,0.0,0.0,0.0,0.0,0.0,0.0,0.0,0.0,0.0,0.0,0.0,0.0,0.0,0.0,0.0,0.0,0.0,0.0,0.0,0.0,0.0,0.0,0.0,2.3971,2.4406,2.5452,2.5532,2.6029,0.0,0.0,0.0,0.0,0.0,0.0,0.0,2.9517,2.9832,3.0906,3.3053,3.5515,3.8311,3.9342,3.5926,2.8909,2.9529,0.0,0.0,0.0,0.0,0.0,0.0,0.0,0.0,0.0,0.0,0.0,0.0,0.0,0.0,0.0,0.0,0.0,0.0,0.0,0.0,0.0,0.0,0.0,0.0,0.0,0.0,0.0,0.0,0.0,0.0,0.0,0.0,0.0,0.0,0.0,0.0,0.0,0.0,0.0,0.0,0.0,0.0,0.0,0.0,0.0,0.0,0.0,0.0,0.0,0.0,0.0,0.0,0.0,0.0,0.0,0.0,0.0,0.0,0.0,0.0,0.0,0.0,0.0,4.5247,4.515,4.4872,4.5205,4.5449,4.556,4.59,4.4491,4.1909,4.0968,0.0,0.0,0.0,0.0,0.0,0.0,0.0,0.0,0.0,0.0,0.0,0.0,0.0,0.0,0.0,0.0,0.0,0.0,0.0,0.0,0.0,2.4207,2.449,2.4653,2.5916,2.6733,2.6956,0.0,0.0,0.0,0.0,0.0,3.0823,3.1201,3.2333,3.419,3.6721,3.806,3.8311,3.9018,3.8267,3.6508,3.7053,3.6204,3.4296,0.0,0.0,0.0,0.0,0.0,0.0,0.0,0.0,0.0,0.0,0.0,0.0,0.0,0.0,0.0,0.0,0.0,0.0,0.0,0.0,0.0,0.0,0.0,0.0,0.0,0.0,0.0,0.0,0.0,0.0,0.0,0.0,0.0,0.0,0.0,0.0,0.0,0.0,0.0,0.0,0.0,3.9814,3.8608,0.0,0.0,0.0,0.0,0.0,0.0,0.0,0.0,0.0,0.0,0.0,0.0,0.0,4.3733,4.4837,4.3671,4.4383,4.6949,4.7535,4.8966,5.1178,5.2741,5.3873,5.4557,5.385,0.0,4.3746,4.2622,0.0,0.0,0.0,0.0,0.0,0.0,0.0,0.0,0.0,0.0,0.0,0.0,0.0,0.0,0.0,0.0,0.0,0.0,0.0,0.0,0.0,2.6994,2.8414,2.9479,3.1332,3.2265,3.1686,3.2294,0.0,0.0,0.0,3.1863,3.194,3.3303,3.5685,3.9184,4.067,4.215,4.3632,4.3746,4.3884,4.3914,4.297,4.0592,3.7045,3.4943,0.0,0.0,0.0,0.0,0.0,0.0,0.0,0.0,0.0,0.0,0.0,0.0,0.0,0.0,0.0,0.0,0.0,0.0,0.0,0.0,0.0,0.0,0.0,0.0,0.0,0.0,0.0,0.0,0.0,0.0,0.0,0.0,0.0,0.0,0.0,0.0,0.0,0.0,0.0,3.8312,3.9371,3.8694,3.9741,3.9887,0.0,0.0,0.0,0.0,0.0,0.0,0.0,0.0,0.0,4.4965,4.6452,4.7909,4.931,4.9574,5.0594,5.2367,5.2632,5.3331,5.4384,5.5131,5.5712,5.603,5.5683,5.3698,5.0566,4.8174,4.6728,4.5836,0.0,0.0,0.0,0.0,4.4915,4.5438,0.0,0.0,0.0,0.0,0.0,0.0,0.0,0.0,0.0,0.0,0.0,0.0,2.7371,2.9919,3.2253,3.3954,3.5968,3.6586,3.5391,3.5372,3.457,3.2697,3.2659,3.2751,3.2908,3.568,3.9074,4.304,4.4142,4.5762,4.7808,4.7588,4.779,4.8303,4.6645,4.3729,3.9886,3.7743,3.6671,3.6123,0.0,0.0,0.0,0.0,0.0,0.0,0.0,0.0,0.0,0.0,0.0,0.0,0.0,0.0,0.0,0.0,0.0,0.0,0.0,0.0,0.0,0.0,0.0,0.0,0.0,0.0,0.0,0.0,0.0,0.0,0.0,0.0,0.0,0.0,0.0,0.0,0.0,3.9534,4.0659,3.9944,4.1512,4.2038,0.0,0.0,0.0,0.0,0.0,0.0,4.5903,4.757,4.8612,4.8688,5.0389,5.205,5.3503,5.4766,5.6043,5.7467,5.7327,5.7422,5.7678,5.7678,5.7589,5.744,5.744,5.7321,5.6882,5.3082,5.0681,4.9303,4.8336,4.8131,4.8395,4.8248,4.8534,4.9242,0.0,0.0,0.0,0.0,0.0,0.0,0.0,0.0,0.0,0.0,0.0,2.7826,2.944,3.2124,3.4365,3.566,3.7145,3.7206,3.5236,3.5286,3.4528,3.2498,3.2619,3.296,3.3535,3.8448,4.2074,4.4229,4.673,4.7947,4.7808,4.7808,4.7697,4.7473,4.7033,4.5649,4.3493,4.1742,4.0383,3.9076,3.5626,0.0,0.0,0.0,0.0,0.0,0.0,0.0,0.0,0.0,0.0,0.0,0.0,0.0,0.0,0.0,0.0,0.0,0.0,0.0,0.0,0.0,0.0,0.0,0.0,0.0,0.0,0.0,0.0,0.0,0.0,0.0,0.0,0.0,0.0,0.0,0.0,0.0,0.0,4.4211,4.5653,0.0,0.0,0.0,0.0,4.5815,4.7235,4.8014,4.8014,5.0827,5.2442,5.2442,5.4182,5.5683,5.6855,5.6501,5.7773,6.0546,6.012,6.0778,6.2449,6.2449,6.2112,6.1498,6.1498,6.1129,6.0166,5.5053,5.2719,5.2195,5.0408,4.9347,4.9015,5.0194,5.0862,5.1416,0.0,0.0,0.0,0.0,0.0,2.3681,2.3743,2.4177,2.4817,2.573,2.7179,2.9186,3.1872,3.5141,3.8081,4.0343,4.2362,4.2628,4.0594,3.9309,3.7722,3.5719,3.4439,3.5273,3.8474,4.1625,4.4417,4.6811,4.7704,4.8326,4.865,4.8429,4.842,4.8486,4.7804,4.6964,4.595,4.3467,4.2186,4.1533,3.8423,3.6488,0.0,0.0,0.0,0.0,0.0,0.0,0.0,0.0,0.0,0.0,0.0,0.0,0.0,0.0,0.0,0.0,0.0,0.0,0.0,0.0,0.0,0.0,0.0,0.0,0.0,0.0,0.0,0.0,0.0,0.0,0.0,0.0,0.0,0.0,0.0,0.0,0.0,4.6121,4.7729,0.0,4.7073,4.7496,4.8507,5.0103,5.1964,5.3395,5.4322,5.6224,5.7656,5.8503,5.9176,5.994,6.0738,6.0577,6.1065,6.2117,6.1928,6.2173,6.2825,6.2825,6.2702,6.2456,6.2456,6.2333,6.1911,5.9627,5.8615,5.8412,5.7344,5.7011,5.7274,5.7707,5.7942,5.8278,0.0,0.0,0.0,0.0,2.4426,2.4385,2.4466,2.4879,2.5668,2.6868,2.888,3.1374,3.4661,3.8118,4.1389,4.4256,4.5901,4.5708,4.3161,4.1566,3.9495,3.6823,3.6288,3.8119,4.2503,4.4151,4.6084,4.849,4.849,4.8679,4.9059,4.8703,4.8615,4.8739,4.8,4.7665,4.7464,4.5142,4.4068,4.3676,4.1167,3.8893,3.6828,0.0,0.0,0.0,0.0,0.0,0.0,0.0,0.0,0.0,0.0,0.0,0.0,0.0,0.0,0.0,0.0,0.0,0.0,0.0,0.0,0.0,0.0,0.0,0.0,0.0,0.0,0.0,0.0,0.0,0.0,0.0,0.0,0.0,0.0,0.0,4.8249,4.8611,5.0292,5.1423,5.128,5.1797,5.2866,5.4413,5.6347,5.7808,5.8731,6.0086,6.1225,6.2117,6.2148,6.2364,6.2825,6.3041,6.3164,6.3164,6.341,6.3533,6.3533,6.3533,6.3379,6.3164,6.3164,6.3041,6.2794,6.2333,6.2271,6.2364,6.1255,6.1071,6.1502,6.1717,6.1809,6.1994,0.0,0.0,0.0,2.5813,2.5523,2.5065,2.4611,2.5709,2.691,2.7841,3.1,3.44,3.7663,4.0827,4.4026,4.7064,4.7351,4.5955,4.2587,4.171,3.9581,3.5617,3.7983,4.1266,4.5171,4.5897,4.719,4.9169,4.9169,4.9169,4.9142,4.849,4.8219,4.8219,4.767,4.7686,4.8083,4.6991,4.6186,4.5506,4.3807,4.1402,3.8658,0.0,0.0,0.0,0.0,0.0,0.0,0.0,0.0,0.0,0.0,0.0,0.0,0.0,0.0,0.0,0.0,0.0,0.0,0.0,0.0,0.0,0.0,0.0,0.0,0.0,0.0,0.0,0.0,0.0,0.0,0.0,0.0,0.0,4.5661,4.9629,5.2364,5.1932,5.3622,5.5099,5.5745,5.5838,5.67,5.8701,6.0055,6.0824,6.0855,6.2117,6.2825,6.2887,6.2887,6.2887,6.2887,6.3533,6.3841,6.3872,6.458,6.4888,6.4888,6.4888,6.4518,6.3841,6.3841,6.3502,6.2887,6.2887,6.3256,6.3656,6.1656,6.0917,6.1009,6.1656,6.1902,6.2086,2.602,2.6144,2.6123,2.5962,2.5771,2.5668,2.5523,2.6123,2.7185,2.8711,3.0882,3.392,3.8222,4.0697,4.3664,4.7634,4.834,4.7756,4.5818,4.3734,4.1457,3.8873,4.2248,4.4933,4.649,4.8109,4.9222,4.9766,4.9766,4.9766,4.9766,4.9169,4.8731,4.8538,4.7941,4.7613,4.7551,4.745,4.71,4.6465,4.5826,4.4042,4.1794,0.0,0.0,0.0,0.0,0.0,0.0,0.0,0.0,0.0,0.0,0.0,0.0,0.0,0.0,0.0,0.0,0.0,0.0,0.0,0.0,0.0,0.0,0.0,0.0,0.0,0.0,0.0,0.0,0.0,0.0,0.0,0.0,5.2442,5.1177,5.2395,5.4067,5.5899,5.6607,5.7377,5.8547,5.867,5.9101,6.0178,6.0578,6.1225,6.221,6.261,6.3287,6.4303,6.4334,6.4334,6.4334,6.4518,6.4611,6.4611,6.4795,6.4888,6.4888,6.4888,6.4795,6.4611,6.4611,6.4487,6.4334,6.4334,6.4426,6.4487,6.341,6.3318,6.381,6.3995,6.4057,6.4087,2.6148,2.6082,2.6041,2.6144,2.5999,2.5982,2.619,2.6604,2.7703,2.9891,3.1725,3.432,3.8433,4.134,4.4318,4.7762,4.8364,4.7859,4.6249,4.3659,4.2282,4.2595,4.5336,4.7325,4.8272,4.9655,5.039,5.039,5.039,5.039,5.0363,4.9521,4.903,4.8809,4.7863,4.7457,4.7478,4.7572,4.7539,4.746,4.7555,4.5884,4.3389,4.3389,4.2108,4.0305,4.0043,4.0252,4.0435,3.8841,0.0,0.0,0.0,0.0,0.0,0.0,0.0,0.0,0.0,0.0,0.0,0.0,0.0,0.0,0.0,0.0,0.0,0.0,0.0,0.0,0.0,0.0,0.0,0.0,5.1982,5.5086,5.5194,5.5795,5.6854,5.8423,5.8608,5.9039,6.0116,6.0209,6.0363,6.0763,6.1071,6.1686,6.2764,6.3071,6.3749,6.4857,6.4888,6.4888,6.4888,6.4888,6.4888,6.4888,6.4888,6.4888,6.4888,6.4888,6.4888,6.4888,6.4888,6.4888,6.4888,6.4888,6.4888,0.0,0.0,0.0,0.0,0.0,6.4888,6.4888,2.6434,2.5896,2.5564,2.6397,2.6231,2.6148,2.6563,2.7102,2.8429,3.1091,3.2788,3.5059,3.8375,4.1911,4.5034,4.7492,4.7619,4.6845,4.5127,4.2897,4.3078,4.614,4.7541,4.8838,5.02,5.0743,5.0987,5.0987,5.0987,5.0987,5.0987,4.9847,4.9331,4.9222,4.7784,4.7406,4.7808,4.7613,4.7769,4.8222,4.8859,4.7166,4.4359,4.4359,4.3337,4.1821,4.1298,4.1821,4.2631,4.1873,0.0,0.0,0.0,0.0,0.0,0.0,0.0,0.0,0.0,0.0,0.0,0.0,0.0,0.0,0.0,0.0,0.0,0.0,0.0,0.0,0.0,0.0,0.0,0.0,5.2794,5.5581,5.7965,5.9221,5.987,5.9809,5.9778,6.0055,6.0732,6.0794,6.0794,6.0794,6.144,6.2086,6.2764,0.0,0.0,0.0,0.0,6.4888,6.4888,6.4888,6.4888,6.4888,6.4888,6.4888,6.4888,6.4888,6.4888,6.4888,6.4888,6.4888,6.4888,6.4888,6.4888,6.4888,6.4888,6.4888,6.4888,6.4888,6.4888,6.4888,2.646,2.6123,2.5813,2.5978,2.6248,2.6521,2.6604,2.7593,2.9208,3.1554,3.2517,3.4307,3.7898,3.9752,4.2343,4.6266,4.6366,4.5995,4.5582,4.6143,4.6786,4.7541,4.9326,5.0685,5.1475,5.1584,5.1665,5.1665,5.1665,5.1665,5.1638,5.0905,5.0553,5.0498,4.9249,4.8462,4.8109,4.8375,4.8264,4.7967,4.8756,4.8258,4.705,4.705,4.6383,4.5454,4.5349,4.5741,4.6029,4.4042,4.3781,4.4043,4.2395,4.0723,0.0,0.0,0.0,0.0,0.0,0.0,0.0,0.0,0.0,0.0,0.0,0.0,0.0,0.0,0.0,0.0,0.0,0.0,0.0,5.2096,5.5871,5.8893,5.9417,6.0137,6.0393,5.9839,5.9778,6.0055,6.0732,6.0794,6.0794,6.0794,6.144,6.2086,6.2764,6.3472,6.4149,6.4888,6.4888,6.4888,6.4888,6.4888,6.4888,6.4888,0.0,0.0,6.4888,6.4888,6.4888,6.4888,6.4888,6.4888,6.4888,6.4888,6.4888,6.4888,6.4888,6.4888,6.4888,6.4888,6.4888,6.4888,2.6574,2.6268,2.5958,2.6231,2.6459,2.677,2.7179,2.8028,2.9352,3.1443,3.1899,3.2928,3.5226,3.7104,3.9081,4.1259,4.2978,4.4258,4.4997,4.6807,4.8123,4.8892,5.0197,5.1041,5.1339,5.1665,5.1964,5.2262,5.2561,5.2723,5.2696,5.2099,5.1801,5.1747,5.0553,4.9684,4.9086,4.9272,4.9,4.8486,4.9263,4.9037,4.8219,4.788,4.7736,4.7486,4.6739,4.7022,4.7545,4.6081,4.5794,4.5846,4.4696,4.3337,4.2004,0.0,0.0,0.0,0.0,0.0,0.0,0.0,0.0,0.0,0.0,0.0,0.0,0.0,0.0,4.9017,0.0,0.0,5.462,5.4651,5.7456,5.9761,5.995,6.029,6.0455,6.0301,6.0301,6.0424,6.0763,6.0794,6.0794,6.0794,6.144,6.2086,6.2764,6.3472,6.4149,6.4888,6.4888,6.4888,6.4888,6.4888,6.4888,6.4888,6.4888,6.4888,6.4888,6.4888,6.4888,6.4888,6.4888,6.4888,6.4888,6.4888,6.4888,6.4888,6.4888,6.4888,6.4888,6.4888,6.4888,6.4888,2.6442,2.6472,2.6496,2.6786,2.691,2.722,2.7945,2.8524,2.9477,3.1153,3.1381,3.1712,3.2566,3.4571,3.5904,3.6125,4.0013,4.2936,4.399,4.6681,4.8779,4.9918,5.0468,5.077,5.0905,5.1502,5.2126,5.2723,5.3293,5.3592,5.3592,5.3103,5.2886,5.2832,5.1747,5.0905,5.0363,5.0227,4.9847,4.9331,4.982,4.9489,4.8752,4.8163,4.8197,4.84,4.7166,4.7157,4.7675,4.7675,4.7388,4.7022,4.7127,4.6133,4.4539,4.2422,4.2134,0.0,0.0,0.0,0.0,0.0,0.0,0.0,0.0,0.0,5.0063,5.2722,5.3502,5.384,5.4402,5.57,5.6762,5.6903,5.8477,5.9874,6.0257,6.0299,6.0434,6.0732,6.0794,6.0794,6.0794,6.0794,6.0794,6.0845,6.1563,6.224,6.2848,6.3595,6.4303,6.4967,6.4998,6.4998,6.4998,6.4998,6.4943,6.4888,6.4888,6.4888,6.4888,6.4888,6.4888,6.4888,6.4888,6.4888,6.4888,6.4888,6.4888,6.4888,6.4888,6.4888,6.4888,6.4734,6.4764,6.4888,2.5537,2.7019,2.8193,2.7841,2.811,2.8421,2.8524,2.927,3.0201,3.1236,3.1381,3.1712,3.2566,3.2939,3.3487,3.4371,4.0286,4.368,4.2977,4.7148,4.9733,4.9903,4.9993,5.0363,5.0878,5.1502,5.2126,5.2723,5.3293,5.3592,5.3592,5.3537,5.351,5.3483,5.2805,5.2181,5.1584,5.1041,5.0444,4.9928,4.9983,4.9601,4.903,4.8752,4.8299,4.7898,4.7709,4.6908,4.6212,4.8224,4.7519,4.6264,4.8721,4.7675,4.5271,4.3964,4.2213,4.0447,3.9266,4.1742,4.4522,4.4145,4.7303,5.0692,0.0,0.0,5.2741,5.3315,5.3965,5.4402,5.4496,5.6106,5.7573,5.7956,5.921,6.0288,6.0681,6.0722,6.0753,6.0794,6.0794,6.0794,6.0794,6.0794,6.0897,6.1103,6.21,6.284,6.3145,6.4166,6.4906,6.5242,6.5242,6.5242,6.5242,6.5242,6.5163,6.4888,6.4888,6.4888,6.4888,6.4888,6.4888,6.4888,6.4888,6.4888,6.4888,6.4888,6.4888,6.4888,6.4888,6.4888,6.4826,6.418,6.4364,6.4795,2.5038,2.6801,2.8333,2.8081,2.8584,2.9021,2.9021,2.958,3.0139,3.0512,3.0574,3.0615,3.0719,3.0263,3.0453,3.1761,3.6363,3.9513,4.0258,4.4161,4.6954,4.8069,4.7825,4.8531,5.0327,5.0627,5.1233,5.2208,5.2452,5.275,5.3076,5.3076,5.3266,5.3592,5.3347,5.2913,5.2289,5.1692,5.1095,5.0498,5.0146,4.9657,4.9059,4.8975,4.8911,4.8622,4.6875,4.6128,0.0,4.6791,4.6656,4.6499,4.8721,4.8146,4.6316,4.4826,4.3702,4.31,4.4169,4.5107,4.6135,4.7557,4.9828,5.2029,5.339,5.4204,5.5317,5.762,5.8625,5.9097,5.9097,5.9676,6.0188,0.0,6.0752,6.1017,6.1021,6.1,6.1103,6.1348,6.1379,6.1225,6.0824,6.1163,6.1431,6.1535,6.2853,6.3626,6.3572,6.4715,6.5297,6.5053,6.5187,6.5242,6.5053,6.5053,6.4998,6.4888,6.4888,6.4888,6.4888,6.4888,6.4888,6.4888,6.4888,6.4888,6.4857,6.4457,6.4518,6.4857,6.4426,6.4518,6.4857,6.4549,6.4641,6.4857,2.4778,2.6391,2.7741,2.7741,2.841,2.9116,2.9446,2.9787,2.9994,2.9994,2.9994,2.9829,2.9352,2.8711,2.8718,2.9876,3.3046,3.5893,3.8019,4.1429,4.418,4.5945,4.5822,4.6572,4.834,4.8555,4.9344,5.0768,5.0928,5.1487,5.2479,5.2479,5.2696,5.3103,5.3103,5.2859,5.2425,5.1828,5.1312,5.0851,5.0254,4.9657,4.9142,4.9304,4.9164,4.8588,4.6166,4.5446,4.5576,4.5249,4.4983,4.514,4.7048,4.6944,4.5794,4.4068,4.352,4.3859,4.5741,4.6722,4.7643,4.9808,5.1935,5.3978,5.5701,5.6665,5.8021,6.1068,6.2067,6.2396,6.2396,6.2216,6.2066,6.1916,6.1871,6.1792,6.1382,6.1515,6.1742,6.2025,6.2086,6.1902,6.1409,6.1809,6.2086,6.2192,6.3379,6.4112,6.395,6.4925,6.5351,6.4998,6.5297,6.5297,6.5108,6.5218,6.5218,6.5108,6.5108,6.5108,6.5108,6.5053,6.4943,6.4888,6.4888,6.4888,6.4857,6.4334,6.4426,6.4857,6.4549,6.4734,6.5195,6.538,6.5226,6.4857,2.4778,2.5735,2.6535,2.6535,2.7454,2.8648,2.9816,2.9994,2.9994,2.9994,2.9994,2.9829,2.9352,2.927,2.927,2.9321,3.1906,3.4548,3.6802,4.0075,4.2607,4.4017,4.4586,4.4674,4.4291,4.4884,4.6106,4.8094,4.8695,4.9973,5.1855,5.1855,5.1882,5.1882,5.1882,5.1882,5.1828,5.1177,5.0905,5.0851,5.0254,4.9657,4.9196,4.9766,4.8758,4.6921,4.5955,4.5103,4.4415,4.4044,4.2448,4.101,4.331,4.3624,4.2814,4.1063,4.0399,4.0453,4.1281,4.5065,4.8895,4.9745,5.3364,5.7201,5.9047,5.996,6.0808,6.2076,6.2365,6.2396,6.2396,6.2365,6.2216,6.1683,6.2144,6.2374,6.1884,6.2333,6.2764,6.2794,6.2794,6.2764,0.0,6.2764,6.2901,6.3114,6.3549,6.395,6.4274,6.4683,6.5053,6.5297,6.5538,6.57,6.57,6.6032,6.6032,6.57,6.57,6.57,6.5646,6.5406,6.5163,6.4888,6.4888,6.4888,6.4888,6.4888,6.4888,6.4949,6.5596,6.5842,6.5965,6.6611,6.6027,6.4795,2.3624,2.4556,2.5368,2.5368,2.6336,2.7454,2.8615,2.9501,2.9994,2.9994,2.9994,0.0,0.0,0.0,0.0,0.0,3.0737,3.2229,3.3572,3.6096,3.8455,4.046,4.164,4.2619,4.3473,4.397,4.4607,4.5416,4.5858,4.6584,4.7633,4.7841,4.8166,4.8523,4.8523,4.8523,4.8498,4.7911,4.7682,4.7691,4.8186,4.8279,4.8157,4.8393,4.8376,4.77,0.0,4.3409,4.3148,4.289,4.2264,4.1847,4.3389,4.2971,4.1559,3.9782,4.0075,4.147,4.4052,4.7165,5.0303,5.2867,5.527,5.7381,5.8848,5.9369,5.9963,6.1558,6.067,5.9732,6.0072,6.0498,6.0683,6.034,6.2109,6.3433,6.2858,6.3021,6.3193,6.3441,6.3472,0.0,0.0,0.0,0.0,6.3611,6.4336,6.4792,6.4714,6.5173,6.5297,6.5053,6.5297,6.546,6.546,6.5382,6.546,6.57,6.57,6.5592,6.546,6.5538,6.5297,6.4888,6.5108,6.5053,6.4888,6.5108,6.53,6.5596,6.6035,6.6318,6.6611,6.6827,6.6611,6.6211,2.3022,2.3624,2.4167,2.4167,2.5148,0.0,0.0,0.0,0.0,0.0,0.0,0.0,0.0,0.0,0.0,0.0,0.0,3.0719,3.1905,3.3351,3.5035,3.7028,3.8186,3.908,3.992,4.0214,4.0724,4.1565,4.2252,4.3214,4.4281,4.4988,4.5637,4.6291,4.6291,4.6415,4.66,4.6253,4.5759,4.5423,4.591,4.6091,4.5969,4.5891,4.6035,0.0,4.3273,4.2119,4.1758,4.1424,4.1115,4.1063,4.1794,4.1272,4.0357,4.0278,4.0906,4.2494,4.6676,4.9049,5.1197,5.4508,5.6426,5.7731,5.8758,5.9344,6.0013,6.1337,5.9911,5.8604,5.8939,5.8876,5.8702,5.8383,6.0415,6.2112,6.2362,6.2619,6.3131,6.4087,6.421,6.4395,0.0,0.0,0.0,6.421,6.4775,6.5108,6.4888,6.5242,6.5242,6.4888,6.5132,6.5297,6.5297,6.5328,6.56,6.6023,6.6023,6.5893,6.5654,6.5785,6.5569,6.5053,6.5351,6.5451,6.5393,6.5723,6.6127,6.661,6.7051,6.7367,6.7631,6.7879,6.8011,6.8108,2.3022,2.3022,2.3022,0.0,0.0,0.0,0.0,0.0,0.0,0.0,0.0,0.0,0.0,0.0,0.0,0.0,0.0,0.0,3.176,3.1926,3.2582,3.3906,3.4526,3.4608,3.4132,3.4093,3.5035,3.6871,3.8193,3.9827,4.1735,4.3024,4.3964,4.4621,4.4621,4.5009,4.566,4.566,4.4942,4.3772,4.3422,4.3159,4.2905,4.2472,4.2084,4.1769,4.1716,4.11,4.0331,3.9834,3.9311,3.8893,3.8972,3.8998,3.9573,4.2343,4.284,4.3624,4.8758,5.0602,5.1824,5.4793,5.6868,5.8338,5.8918,5.9897,6.0866,6.1255,5.9951,5.8672,0.0,0.0,5.6482,5.6217,5.7504,5.916,6.0835,6.1616,6.2756,0.0,0.0,0.0,0.0,0.0,0.0,6.4888,0.0,6.4888,6.4888,6.4888,6.4888,6.4888,6.5163,6.5297,6.5297,6.587,6.6299,6.6565,6.6565,6.6459,6.6192,6.6224,6.5924,6.5351,6.5623,6.5973,6.6375,6.6744,6.7315,6.794,6.8627,6.8851,6.8913,6.9568,6.9992,7.0103,0.0,0.0,0.0,0.0,0.0,0.0,0.0,0.0,0.0,0.0,0.0,0.0,0.0,0.0,0.0,0.0,0.0,0.0,3.047,3.1153,3.1857,3.252,3.3969,3.4608,3.4132,3.4463,3.4703,3.4837,3.5456,3.6043,3.6553,3.7103,3.7495,3.7651,3.7614,3.7873,3.8227,3.8227,3.815,3.8192,3.9269,4.0176,4.0765,4.0793,4.1204,4.169,4.0526,4.0249,4.0409,4.0252,4.0697,4.1479,4.2598,4.3073,4.3467,4.4617,4.5767,4.7227,4.9945,5.2456,5.4856,5.6934,5.8519,5.9632,5.9795,5.9663,5.9267,5.8349,5.6445,5.4582,0.0,0.0,0.0,5.6916,6.0751,0.0,6.4736,6.4773,0.0,6.5125,0.0,6.4888,6.4888,6.4888,0.0,0.0,6.4888,6.4888,6.4888,6.4888,6.4888,6.4888,6.4943,6.5108,6.5297,6.5677,6.5785,6.5623,6.6085,6.6139,6.5808,6.6268,6.6161,6.5623,6.6479,6.6737,6.6799,6.8106,6.8607,6.8658,6.9571,6.9626,6.9255,6.941,6.9422,6.9284,0.0,0.0,0.0,0.0,0.0,0.0,0.0,0.0,0.0,0.0,0.0,0.0,0.0,0.0,0.0,0.0,0.0,0.0,0.0,3.047,3.0884,3.1133,3.2126,3.254,3.2292,3.254,3.254,3.2292,3.3064,3.3471,3.3492,3.4274,3.4842,3.5093,3.5115,3.5371,3.5838,3.5838,3.5598,0.0,0.0,3.6602,3.7109,3.6973,3.7991,3.9291,3.8479,3.9388,4.1153,4.2042,4.2778,4.3491,4.4468,4.4863,4.5251,4.6739,4.7649,4.8805,5.1669,5.3508,5.511,5.7188,5.8464,5.8958,5.8103,5.8017,5.7713,5.602,5.4036,5.2321,5.1556,5.3205,5.4931,0.0,0.0,0.0,6.4434,6.4496,6.4595,0.0,6.5132,0.0,6.4888,6.4888,6.4888,0.0,6.4888,6.4888,6.4888,6.4888,6.4888,6.4888,6.4888,6.5053,6.5297,6.546,6.5483,6.5483,6.5839,6.5893,6.57,6.6023,6.6023,6.5731,0.0,6.7245,6.7512,6.891,6.9539,6.9772,7.0608,7.05,6.9912,7.062,7.0303,6.9618,0.0,0.0,0.0,0.0,0.0,0.0,0.0,0.0,0.0,2.9994,2.9994,2.9994,2.9994,2.9994,0.0,0.0,0.0,0.0,0.0,0.0,2.9994,2.9994,2.9994,2.9994,2.9994,2.9994,2.9994,2.9994,3.1174,3.1719,3.174,3.2975,3.3863,3.4423,3.4423,3.479,3.5422,3.5422,3.4771,3.3711,3.33,3.325,3.3368,0.0,3.4166,3.6143,3.636,3.874,4.211,4.4117,4.4995,4.5315,4.5845,4.5974,4.6444,4.8845,4.9172,4.9594,5.3362,5.4162,5.4412,5.6675,5.7733,5.7712,5.5687,5.6094,5.6263,5.3958,5.2292,5.1192,5.0917,5.1812,5.2883,5.3898,0.0,5.9871,6.2703,6.3069,6.3682,6.5188,6.5297,6.5163,6.4888,6.4888,6.4888,6.4888,6.4888,6.4888,6.4888,6.4888,6.4888,6.4888,6.4888,6.4998,6.5242,6.5242,6.5351,6.5592,6.5646,6.5646,6.5646,6.57,6.57,6.5731,6.6721,6.7519,6.821,6.9233,7.007,7.0796,7.1547,7.1251,7.0645,7.2165,7.1854,7.0652,0.0,0.0,0.0,0.0,0.0,0.0,0.0,0.0,0.0,0.0,2.9994,2.9994,0.0,0.0,0.0,0.0,0.0,0.0,0.0,0.0,0.0,2.9994,2.9994,2.9994,2.9994,2.9994,2.9994,2.9994,3.0222,3.0346,3.0346,3.0594,3.0752,3.0859,3.0859,3.1072,3.1423,3.1423,3.1391,3.1369,3.1284,3.1943,3.2914,3.2846,0.0,0.0,3.6595,3.9074,4.211,4.4117,4.6089,4.7956,4.9676,5.0212,5.0405,5.132,5.1626,5.2145,5.3928,5.5057,5.6049,5.7573,5.842,5.8407,5.6408,5.6155,0.0,0.0,5.0619,4.9915,4.8337,4.9849,5.2321,5.507,5.8239,6.1458,6.4662,6.5145,6.5295,0.0,6.5242,6.4943,6.4888,6.4888,0.0,0.0,0.0,6.4888,6.4888,6.4888,6.4888,6.4888,6.4888,6.4888,6.4943,6.4943,6.4998,6.5053,6.5242,6.5351,6.5406,6.5592,6.57,6.5731,6.6503,0.0,6.7964,6.8987,6.979,7.0482,7.1434,7.1509,7.1248,7.2122,7.2109,7.1631,0.0,0.0,0.0,0.0,0.0,0.0,0.0,2.6425,2.7872,2.8723,2.9307,2.9796,2.9983,2.9994,2.9994,0.0,0.0,0.0,0.0,0.0,0.0,2.9994,2.9994,2.9994,2.9994,2.9994,2.9994,2.9994,0.0,2.9994,2.9994,2.9994,2.9994,2.9994,2.9994,3.0047,3.0203,3.0203,3.0256,3.036,3.036,3.0858,3.1556,0.0,0.0,0.0,3.6374,3.8894,4.1925,4.2581,4.5342,4.8879,5.0708,5.1496,5.1896,5.2642,5.278,5.306,5.4213,5.4837,5.5301,5.5915,5.6335,5.6002,5.361,0.0,0.0,0.0,4.8163,4.7864,4.698,4.887,5.1316,5.353,5.7479,6.0893,6.2882,6.4364,6.5235,6.5211,6.5022,6.4888,6.4888,6.4888,6.4888,6.4888,0.0,6.4888,6.4888,6.4888,6.4888,6.4888,6.4888,6.4888,6.4888,6.4888,6.4888,6.4888,6.5053,6.5108,6.5108,6.5242,6.5351,6.5546,6.623,0.0,6.7322,6.8145,6.867,6.9133,7.0343,7.0417,6.9974,7.1522,7.1569,7.0965,0.0,0.0,0.0,0.0,0.0,0.0,0.0,2.5491,2.695,2.7598,2.8671,2.9498,2.9868,3.0043,3.0139,0.0,0.0,0.0,0.0,0.0,0.0,0.0,0.0,0.0,0.0,0.0,0.0,2.9994,2.9994,0.0,0.0,0.0,0.0,0.0,2.9994,2.9994,2.9994,2.9994,2.9994,0.0,0.0,3.0151,0.0,0.0,0.0,0.0,0.0,3.8026,4.0853,4.0882,4.3744,4.7646,4.9526,5.0869,5.1823,5.2543,5.258,5.2728,5.4126,5.4327,5.4092,5.4027,5.424,5.3577,5.0519,5.0124,0.0,4.6578,4.6032,4.6112,4.6112,4.7835,4.9816,5.1439,5.5459,5.8896,6.0465,6.261,6.4248,6.4654,6.466,0.0,6.4721,6.4721,0.0,6.4721,0.0,0.0,6.4888,6.4888,6.4888,6.4888,6.4888,6.4888,6.4888,6.4888,6.4888,6.4888,6.4888,6.4888,6.4888,6.4888,6.4998,6.5218,6.5744,0.0,0.0,6.7211,6.7579,6.7859,6.9319,6.9449,6.9085,7.1218,7.1416,7.0658,0.0,0.0,0.0,0.0,0.0,0.0,0.0,2.56,2.6284,2.735,2.8615,2.9436,2.947,3.0194,3.0615,0.0,0.0,0.0,0.0,0.0,0.0,0.0,0.0,0.0,0.0,0.0,0.0,2.9994,2.9994,0.0,0.0,0.0,0.0,0.0,0.0,2.9994,2.9994,2.9994,0.0,0.0,0.0,0.0,0.0,0.0,0.0,0.0,0.0,3.5917,3.814,4.0204,4.1558,4.29,4.5422,4.8065,5.0223,5.0297,0.0,0.0,5.3271,5.3851,5.3813,5.3517,5.3947,5.3287,4.9167,0.0,4.9291,4.5678,4.5191,4.5394,4.5394,4.6094,4.7435,4.9891,5.2216,5.518,5.9316,6.0945,6.2411,6.4223,0.0,0.0,6.4106,6.4106,0.0,0.0,0.0,0.0,6.4888,6.4888,6.4888,6.4888,6.4888,6.4888,6.4888,6.4888,6.4888,6.4888,6.4888,6.4888,6.4888,6.4888,6.4888,6.4943,6.5004,0.0,0.0,6.6326,6.6784,6.7522,6.9205,6.999,7.0312,7.1813,7.2432,7.2543,0.0,0.0,0.0,0.0,0.0,0.0,2.4498,2.4825,2.5611,2.6998,2.7605,2.825,2.9025,2.9165,2.9564,3.0611,0.0,0.0,0.0,0.0,0.0,0.0,0.0,0.0,0.0,0.0,2.9994,2.9994,2.9994,0.0,0.0,0.0,0.0,0.0,0.0,2.9994,2.9994,2.9994,0.0,0.0,0.0,0.0,0.0,0.0,0.0,0.0,0.0,0.0,3.7543,3.8692,4.0303,4.1769,4.1538,4.3594,4.6724,4.9917,5.0789,5.1243,5.3797,5.4283,5.3869,5.2865,5.2015,5.0666,4.7622,0.0,4.5858,4.4109,4.3855,4.4098,4.4624,4.4915,4.5675,4.7521,4.9779,5.2252,5.4831,5.696,5.9229,6.1813,6.2006,0.0,0.0,0.0,0.0,0.0,0.0,0.0,6.488,6.4881,6.4888,6.4888,6.4888,6.4888,6.4888,6.4888,6.4888,6.4888,6.4888,6.4888,6.4888,6.4888,6.4888,6.4888,6.4888,0.0,0.0,6.5589,6.5854,6.6257,6.7959,6.8689,6.8958,7.0303,7.1169,7.1661,0.0,0.0,0.0,0.0,0.0,2.3816,2.4209,2.4515,2.5121,2.6261,2.6779,2.7306,2.8265,2.8369,2.8973,3.0423,3.0282,0.0,0.0,0.0,0.0,0.0,0.0,0.0,0.0,0.0,2.9994,2.9994,2.9994,2.9994,0.0,0.0,2.9994,2.9994,0.0,0.0,0.0,0.0,0.0,0.0,0.0,0.0,0.0,0.0,0.0,0.0,0.0,0.0,0.0,0.0,0.0,4.0386,3.9097,4.0241,4.2988,4.7693,4.9431,5.0468,5.3002,5.3824,5.369,5.2492,5.0729,4.8705,0.0,0.0,4.3307,4.2923,4.2952,4.327,4.4154,4.4466,4.4915,4.5873,4.7908,4.9986,5.1947,5.3982,5.6359,5.9242,0.0,6.0379,0.0,6.3403,0.0,0.0,0.0,0.0,6.4934,6.4906,6.4886,6.4886,6.4886,6.4794,6.461,6.461,6.4666,6.4777,6.4666,6.4666,6.4746,6.4832,6.4888,6.4888,6.4888,0.0,0.0,6.5132,6.5242,6.5584,6.69,6.7534,6.7777,6.912,6.999,7.0543,0.0,0.0,0.0,0.0,0.0,0.0,2.4515,2.4881,2.5103,2.5103,2.625,2.7021,2.7021,2.8146,2.9226,3.0024,2.9319,0.0,0.0,0.0,0.0,0.0,0.0,0.0,0.0,0.0,2.9994,2.9994,2.9994,2.9994,2.9994,2.9994,2.9994,2.9994,0.0,0.0,0.0,0.0,0.0,0.0,0.0,0.0,0.0,0.0,0.0,0.0,0.0,0.0,0.0,0.0,0.0,0.0,0.0,3.8736,3.9359,4.262,4.5475,4.8038,5.0329,5.2004,5.301,5.2677,5.0618,4.8114,4.5736,4.3897,4.2685,4.2558,4.2768,4.327,4.4154,4.4855,4.5274,4.5304,4.6441,4.8476,5.1738,5.2785,5.4192,0.0,5.7124,5.7902,5.9937,6.1968,0.0,0.0,0.0,0.0,6.4877,6.4904,6.4904,6.4904,6.4904,6.46,6.3993,6.3993,6.4132,6.4382,6.4132,6.4132,6.4382,6.466,6.4771,0.0,0.0,0.0,0.0,6.5046,6.5156,6.5762,6.6449,6.6894,6.7386,6.8799,6.9469,6.9809,0.0,0.0,0.0,0.0,0.0,0.0,0.0,2.4881,2.5103,2.5103,2.5472,2.57,2.57,2.684,2.7926,2.8758,2.903,0.0,0.0,0.0,0.0,0.0,0.0,0.0,0.0,0.0,3.047,3.047,3.0781,3.0946,3.0926,3.0615,3.047,3.045,3.0139,2.9994,0.0,0.0,0.0,0.0,0.0,0.0,0.0,0.0,0.0,0.0,0.0,0.0,0.0,0.0,0.0,0.0,0.0,0.0,0.0,3.9952,4.2383,4.5209,4.7369,4.8602,4.9003,4.7837,4.6319,4.4573,4.2417,4.1229,4.0843,4.1669,4.2273,4.2984,4.4091,4.4496,4.4766,4.5214,4.5663,4.692,4.9793,5.1528,5.3653,5.6735,5.9518,6.1433,0.0,0.0,0.0,0.0,0.0,0.0,6.496,6.499,6.4955,6.4877,6.4509,6.4175,6.3993,6.3993,6.4049,6.4132,6.4049,6.4019,6.4132,6.4188,6.4244,0.0,0.0,0.0,0.0,6.4493,6.466,6.4888,6.5788,6.6233,6.6474,6.7838,6.8391,6.8541,0.0,0.0,0.0,0.0,0.0,0.0,0.0,2.4976,2.5103,2.5103,2.5103,2.5288,2.5762,2.6537,2.7579,2.904,2.9297,0.0,0.0,0.0,0.0,0.0,0.0,0.0,3.0243,3.0532,3.0677,3.0677,3.0967,3.1029,3.0843,3.0553,3.0512,3.0677,3.0201,3.0098,0.0,0.0,0.0,0.0,0.0,0.0,3.0056,0.0,0.0,0.0,0.0,0.0,0.0,0.0,0.0,0.0,0.0,0.0,0.0,0.0,3.9952,4.2198,4.4518,4.5982,4.6569,4.5608,4.4096,4.2592,4.1521,4.0245,3.9826,4.1892,4.2559,4.325,4.4466,4.4676,4.4825,4.5214,4.5304,4.6471,4.9883,5.1439,5.3414,5.6705,0.0,0.0,0.0,0.0,0.0,0.0,0.0,0.0,6.4605,6.4635,6.4602,6.4588,6.4196,6.3894,6.3652,6.3652,6.3709,6.3823,6.3709,6.3709,6.3823,6.3906,6.3963,0.0,0.0,0.0,0.0,6.4214,6.4326,6.4635,6.5232,6.5497,6.5651,6.6704,6.7258,6.7566,0.0,0.0,0.0,0.0,0.0,0.0,0.0,2.5103,2.5103,2.5103,2.5103,2.5517,2.6719,2.7021,2.8068,3.0432,0.0,0.0,0.0,0.0,0.0,0.0,0.0,0.0,3.0636,3.0677,3.0677,3.0677,3.0719,3.0512,3.0098,3.0056,3.0263,3.0677,3.0243,3.0284,0.0,0.0,0.0,0.0,3.047,3.0387,0.0,0.0,0.0,0.0,0.0,0.0,0.0,0.0,0.0,0.0,0.0,0.0,0.0,0.0,0.0,0.0,0.0,4.3776,4.5262,4.5235,4.3378,4.1743,4.2222,4.0469,0.0,4.2628,4.329,4.3735,4.4971,4.5274,4.5304,4.5304,4.5364,4.701,5.1558,5.2516,5.3952,5.7154,5.9159,0.0,6.0296,0.0,0.0,0.0,0.0,0.0,6.4006,6.3947,6.3947,6.4006,6.3947,6.3647,6.3079,6.3079,6.3252,6.3481,6.3252,6.3252,6.3481,6.3706,6.3819,0.0,0.0,0.0,0.0,6.4101,6.4183,6.4685,6.4685,6.4685,6.4777,6.5484,6.6129,6.6713,0.0,0.0,0.0,0.0,0.0,0.0,0.0,0.0,0.0,0.0,2.5103,2.5226,2.5533,2.7323,2.8555,0.0,0.0,0.0,0.0,0.0,0.0,0.0,0.0,0.0,3.016,3.0512,3.0677,3.0677,3.105,3.1153,3.105,3.0698,3.0574,3.0677,3.0574,3.0594,0.0,0.0,0.0,0.0,3.0118,3.0098,0.0,0.0,0.0,0.0,3.1814,3.2933,0.0,0.0,0.0,0.0,0.0,0.0,0.0,0.0,3.8606,3.8736,3.8961,0.0,4.0943,4.0469,3.9847,3.9328,0.0,3.8862,3.9323,4.1586,4.239,4.3063,4.4317,4.4945,4.5304,4.5304,4.6172,4.8087,5.1708,5.5688,5.9099,6.1403,6.2091,6.2361,0.0,0.0,0.0,0.0,0.0,6.3498,6.3977,6.3558,6.3498,6.3977,6.3528,6.3228,6.3079,6.3079,6.3137,6.3194,6.3137,6.3137,6.3194,6.3222,6.3279,0.0,0.0,0.0,6.3508,6.3337,6.3337,6.3508,6.3508,6.3508,6.3599,6.4232,6.4563,6.4865,0.0,0.0,0.0,0.0,0.0,0.0,0.0,0.0,0.0,0.0,0.0,2.5349,0.0,0.0,0.0,0.0,0.0,0.0,0.0,0.0,0.0,0.0,0.0,3.0098,3.0305,3.0553,3.0801,3.1008,3.1257,3.1278,3.105,3.0801,3.0677,3.0698,3.0905,3.0884,0.0,0.0,0.0,3.0015,3.0222,0.0,0.0,0.0,0.0,0.0,3.1215,3.2264,0.0,3.4566,3.5792,3.7072,0.0,0.0,0.0,0.0,3.8408,3.8658,3.8344,3.8553,3.8736,3.8423,3.8344,3.8318,3.8292,3.8501,3.923,4.1003,4.1965,4.2817,4.3936,4.4787,4.5484,4.6112,4.7578,4.9912,5.3503,5.6735,5.9458,6.1463,6.1702,6.2061,0.0,0.0,0.0,0.0,0.0,6.3228,6.3558,6.3258,6.3228,6.3558,6.3258,6.3079,6.3079,6.3079,6.3079,6.3079,6.3079,6.3079,6.3079,6.3079,6.3079,0.0,0.0,0.0,6.3079,6.3079,6.3079,6.3079,6.3079,6.3079,6.3109,6.3468,6.3767,6.4096,0.0,0.0,0.0,0.0,0.0,0.0,0.0,0.0,0.0,0.0,0.0,0.0,0.0,0.0,0.0,0.0,0.0,0.0,0.0,0.0,0.0,0.0,2.9994,3.018,3.0574,3.0657,3.0884,3.1278,3.134,3.1174,3.0801,3.0719,3.0719,3.0801,3.1133,3.1091,0.0,0.0,3.0781,3.0036,3.0429,0.0,0.0,0.0,0.0,0.0,0.0,0.0,0.0,3.396,3.4996,3.5989,3.7116,0.0,0.0,0.0,0.0,0.0,3.871,3.8626,3.8391,3.8083,3.7978,3.8031,3.8475,3.8579,3.9017,4.0618,4.158,4.2479,4.3661,4.4621,4.5675,4.7057,4.9464,5.2504,5.638,5.7641,5.8811,6.0491,6.0646,0.0,0.0,0.0,0.0,0.0,0.0,6.3079,6.3079,6.3079,6.3079,6.3079,6.3079,6.3079,6.3079,6.3079,6.3079,6.3079,6.3079,6.3079,6.3079,6.3079,6.3079,6.3079,0.0,0.0,6.3079,6.3079,6.3079,6.3079,6.3079,6.3079,6.3079,6.3079,6.3408,6.3887,0.0,0.0,0.0,0.0,0.0,0.0,0.0,0.0,0.0,0.0,0.0,0.0,0.0,0.0,0.0,0.0,0.0,0.0,0.0,0.0,0.0,2.9994,2.9994,3.0036,3.0098,3.0491,3.0719,3.0801,3.1195,3.134,3.1257,3.0864,3.0884,3.1257,3.0946,3.0967,3.1257,3.0926,3.0491,2.9994,3.0077,0.0,0.0,0.0,0.0,0.0,0.0,0.0,0.0,3.2211,3.3623,3.4893,3.6451,0.0,0.0,0.0,0.0,0.0,3.871,3.9922,4.0777,3.8993,3.824,3.7926,3.8004,3.8031,3.8438,3.9932,4.0359,4.1128,4.343,4.4414,4.5405,4.703,5.1957,5.6717,0.0,0.0,6.3062,6.3365,0.0,0.0,0.0,0.0,0.0,0.0,0.0,6.3079,6.3079,6.3079,6.3079,6.3079,6.3079,6.3079,6.3079,6.3079,6.3079,6.3079,6.3079,6.3079,6.3079,6.3079,6.3079,6.3079,0.0,6.3079,6.3079,6.3079,6.3079,6.3079,6.3079,6.3079,6.3079,6.3079,6.3139,6.3288,0.0,0.0,0.0,0.0,0.0,0.0,0.0,0.0,0.0,0.0,0.0,0.0,0.0,0.0,0.0,0.0,0.0,0.0,0.0,0.0,2.9994,2.9994,3.0243,3.0367,3.0367,3.0574,3.0926,3.1422,3.1629,3.1733,3.1712,3.1008,3.0926,3.136,3.1153,3.1029,3.1008,3.105,3.0657,2.9994,0.0,0.0,0.0,0.0,0.0,0.0,0.0,0.0,0.0,0.0,3.2354,3.3242,3.5103,0.0,0.0,0.0,0.0,0.0,3.8663,3.938,4.0259,4.0706,4.1485,4.2087,4.2087,4.2087,4.2001,4.1576,4.1896,4.2328,4.2701,4.4738,4.7892,5.2431,5.522,5.7767,6.0355,6.062,6.0977,0.0,0.0,0.0,0.0,0.0,0.0,0.0,0.0,0.0,6.3079,6.3079,6.3079,6.3079,6.3079,6.3079,6.3079,6.3079,6.3079,6.3079,6.3079,6.3079,6.3079,6.3079,6.3079,6.3079,0.0,6.3079,6.3079,6.3079,6.3079,6.3079,6.3079,6.3079,6.3079,6.3079,6.3079,6.3169,0.0,0.0,0.0,0.0,0.0,0.0,0.0,0.0,0.0,0.0,0.0,0.0,0.0,0.0,0.0,0.0,0.0,0.0,0.0,0.0,2.9994,2.9994,3.045,3.0677,3.0677,3.0905,3.134,3.1988,3.2091,3.2091,3.1967,3.1215,3.1029,3.1381,3.1381,3.1112,3.0719,3.1174,3.0843,2.9994,0.0,0.0,0.0,0.0,0.0,0.0,0.0,0.0,0.0,0.0,0.0,0.0,0.0,0.0,0.0,3.6662,3.7556,3.8272,3.8543,3.8998,4.0,4.2327,4.3486,4.4358,4.5422,4.5342,4.4704,4.3829,4.4127,4.428,4.3193,4.6099,5.0662,5.6773,5.7858,5.8714,6.1001,6.0083,0.0,0.0,0.0,0.0,0.0,0.0,0.0,0.0,0.0,0.0,6.3079,6.3079,6.3079,6.3079,6.3079,6.3079,6.3079,6.3079,6.3079,6.3079,6.3079,6.3079,6.3079,6.3079,6.3079,6.3079,6.3079,6.3079,6.3079,6.3079,6.3079,6.3079,6.3079,6.3079,6.3079,6.3079,6.3079,6.3139,0.0,0.0,0.0,0.0,0.0,0.0,0.0,0.0,0.0,0.0,0.0,0.0,0.0,0.0,0.0,0.0,0.0,0.0,0.0,0.0,2.9994,2.9994,3.045,3.0677,3.0677,3.1505,3.1926,3.1988,3.2421,3.2401,3.1967,3.1547,3.134,3.1381,3.1381,3.1112,3.0719,3.1174,3.0843,2.9994,2.9994,0.0,0.0,0.0,0.0,0.0,0.0,0.0,0.0,0.0,0.0,0.0,0.0,0.0,3.5403,3.6427,3.7134,3.7686,3.8251,3.9983,4.1901,4.3145,4.1334,4.0364,4.4729,4.4253,4.3565,4.5849,4.6383,4.6384,4.6392,4.9082,5.2499,5.6131,5.8746,6.1146,6.3421,0.0,0.0,0.0,0.0,0.0,0.0,0.0,0.0,0.0,0.0,0.0,6.3079,6.3079,6.3079,6.3079,6.3079,6.3079,6.3079,6.3079,6.3079,6.3079,6.3079,6.3079,6.3079,6.3079,6.3079,6.3079,6.3079,6.3079,6.3079,6.3079,6.3079,6.3079,6.3079,6.3079,6.3079,6.3079,6.3079,6.3079,0.0,0.0,0.0,0.0,0.0,0.0,0.0,0.0,0.0,0.0,0.0,0.0,0.0,0.0,0.0,0.0,0.0,0.0,0.0,2.9994,3.0118,3.0408,3.0864,3.1236,3.1526,3.1802,3.2132,3.2421,3.2587,3.2587,3.2401,3.2002,3.165,3.1381,3.1671,3.1381,3.0719,3.1174,3.1008,3.0408,3.0118,2.9994,0.0,0.0,0.0,0.0,0.0,0.0,0.0,0.0,3.0287,3.0888,3.265,3.3549,3.4384,3.6616,3.7155,3.719,3.8084,3.9916,4.1755,4.275,4.233,4.2882,4.7588,4.8099,4.7802,4.8798,4.9338,4.9653,5.0067,5.2471,5.5246,5.7736,6.0401,6.2495,6.3532,0.0,0.0,0.0,0.0,0.0,0.0,0.0,0.0,0.0,0.0,0.0,6.3079,6.3079,6.3079,6.3079,6.3438,6.3647,6.3647,6.3647,6.3647,6.3647,6.3258,6.3079,6.3079,6.3079,6.3079,6.3079,6.3079,6.3079,6.3079,6.3079,6.3079,6.3079,6.3079,6.3079,6.3079,6.3079,6.3079,6.3079,0.0,0.0,0.0,0.0,0.0,0.0,0.0,0.0,0.0,0.0,0.0,0.0,0.0,0.0,0.0,0.0,0.0,0.0,3.0015,2.9994,3.0201,3.0677,3.1133,3.1588,3.1967,3.2132,3.2359,3.2669,3.2669,3.2669,3.2669,3.2194,3.1816,3.1381,3.1692,3.1402,3.0698,3.1029,3.0967,3.0657,3.018,2.9994,0.0,0.0,0.0,0.0,0.0,0.0,0.0,0.0,2.9994,3.0287,3.2145,3.2951,3.3691,3.621,3.6832,3.693,3.7895,3.9284,4.0798,4.2303,4.3118,4.4785,4.966,5.0282,5.0255,5.175,5.1988,5.2217,5.2883,5.4572,5.645,0.0,6.0753,6.2643,0.0,0.0,0.0,0.0,0.0,0.0,0.0,0.0,0.0,0.0,0.0,0.0,0.0,6.3194,6.3194,6.3079,6.3794,6.4123,6.4006,6.4216,6.4336,6.4306,6.3887,6.3468,6.3079,6.3079,6.3079,6.3079,6.3079,6.3079,6.3079,6.3079,6.3079,6.3079,6.3079,6.3079,6.3079,6.3079,6.3079,6.3079,0.0,0.0,0.0,0.0,0.0,0.0,0.0,0.0,0.0,0.0,0.0,0.0,0.0,0.0,0.0,0.0,0.0,0.0,3.0036,2.9994,3.0201,3.0677,3.1133,3.1588,3.1988,3.2442,3.2669,3.2669,3.2669,3.2669,3.2669,3.2194,3.1816,3.1381,3.1381,3.1112,3.0698,3.0677,3.0677,3.0657,3.018,2.9994,2.9994,0.0,0.0,0.0,0.0,0.0,0.0,0.0,2.9994,3.0203,3.1278,3.2348,3.3492,3.5103,3.611,3.6883,3.7705,3.817,3.9146,4.1989,4.3145,4.4944,5.0197,4.9871,4.9791,5.4445,5.4213,5.3558,5.4643,5.5201,0.0,5.6517,5.9416,0.0,0.0,0.0,0.0,0.0,0.0,0.0,0.0,0.0,0.0,0.0,0.0,0.0,0.0,6.3367,6.3367,6.3079,6.3998,6.4328,6.4006,6.4635,6.4964,6.4964,6.4964,6.4277,6.3079,6.3079,6.3079,6.3079,6.3079,6.3079,6.3079,6.3079,6.3079,6.3079,6.3079,6.3079,6.3079,6.3079,6.3079,6.3079,0.0,0.0,0.0,0.0,0.0,0.0,0.0,0.0,0.0,0.0,0.0,0.0,0.0,0.0,0.0,0.0,0.0,0.0,2.9994,2.9994,3.0346,3.1133,3.1298,3.1733,3.2463,3.2607,3.2669,3.2669,3.2669,3.2669,3.2669,3.2194,3.1816,3.1381,3.1381,3.1298,3.1153,3.0822,3.0884,3.1091,3.0305,2.9994,2.9994,0.0,0.0,0.0,0.0,0.0,0.0,0.0,0.0,0.0,3.1278,3.2348,3.3492,3.5103,3.6038,3.6796,3.8191,4.0739,4.3074,4.3201,4.6195,4.9576,5.1605,5.1223,5.1551,5.5293,5.5699,5.5407,5.5446,5.6654,0.0,5.7097,0.0,0.0,0.0,0.0,0.0,0.0,0.0,0.0,0.0,0.0,0.0,0.0,0.0,0.0,0.0,6.2643,6.2321,6.0384,6.1899,6.2604,6.2241,6.2443,6.2697,6.3066,6.2606,6.2835,6.3707,6.3707,6.3498,6.3079,6.3079,6.3079,6.3021,6.2087,6.1137,6.0323,6.0323,6.0323,6.0323,6.0323,6.0323,6.0323,0.0,0.0,0.0,0.0,0.0,0.0,0.0,0.0,2.9098,2.9571,3.0119,3.0704,0.0,0.0,0.0,3.1326,3.0698,3.0201,3.0015,2.9994,3.0408,3.134,3.1381,3.1795,3.2649,3.2669,3.2669,3.2669,3.2669,3.2587,3.2401,3.2112,3.1712,3.1091,3.1091,3.1091,3.1071,3.0615,3.0677,3.1029,3.0305,2.9994,2.9994,0.0,0.0,0.0,0.0,0.0,0.0,0.0,0.0,0.0,3.0733,3.1688,3.2914,3.4738,3.55,3.6425,3.9449,4.1983,4.4176,4.584,4.8866,5.1853,5.3477,5.3781,5.4275,5.6278,5.6658,5.6605,5.6369,5.7236,0.0,0.0,0.0,0.0,0.0,0.0,0.0,0.0,0.0,0.0,0.0,0.0,0.0,0.0,0.0,0.0,0.0,6.1168,6.0868,5.9127,6.0589,6.1227,6.0963,6.1444,6.1804,6.2171,6.1965,6.2365,6.3129,6.2866,6.2428,6.1815,6.1612,6.1495,6.1436,6.0627,5.9834,5.9127,5.9127,5.9127,5.9127,5.9127,5.9127,5.9127,0.0,0.0,0.0,0.0,0.0,0.0,0.0,2.8697,2.963,3.082,3.196,3.2669,0.0,0.0,0.0,3.1422,3.0905,3.045,3.0015,2.9994,3.0387,3.1278,3.136,3.1795,3.2649,3.2587,3.2623,3.2607,3.2607,3.2401,3.1988,3.1905,3.1485,3.0677,3.0636,3.0657,3.0657,3.0201,3.0263,3.0657,3.018,2.9994,2.9994,2.9994,0.0,0.0,0.0,0.0,0.0,0.0,0.0,0.0,2.9994,3.0733,3.1995,3.4119,3.496,3.6231,4.1131,4.2439,4.3752,4.9074,5.113,5.2641,5.5672,5.6794,5.7174,5.7174,5.7174,5.7174,5.7174,5.7174,5.7109,0.0,0.0,0.0,0.0,0.0,0.0,0.0,0.0,0.0,0.0,0.0,0.0,0.0,0.0,0.0,0.0,5.9284,5.9223,5.8752,5.9696,6.0033,5.9766,6.0914,6.1501,6.1557,6.2134,6.2096,6.1472,6.1053,6.051,5.9872,5.9402,5.9121,5.894,5.894,5.8815,5.8752,5.8752,5.8752,5.8752,5.8752,5.8752,5.8752,0.0,0.0,0.0,0.0,0.0,0.0,3.2038,3.1991,3.196,3.2248,3.2555,3.2669,3.2669,3.2002,0.0,3.1381,3.0615,3.0098,2.9994,2.9994,3.0243,3.0822,3.1174,3.1795,3.2649,3.2043,3.1836,3.2132,3.2132,3.2091,3.1967,3.1319,3.0864,3.0677,3.0305,3.0346,3.0657,3.0201,3.0263,3.0657,3.018,2.9994,2.9994,2.9994,2.9994,0.0,0.0,0.0,0.0,0.0,0.0,0.0,2.9994,3.0733,3.1951,3.368,3.6001,3.8567,4.1182,4.427,4.7353,4.9778,5.2834,5.5564,5.6739,5.7092,5.7174,5.7174,5.7174,5.7174,5.7174,5.7174,0.0,0.0,0.0,0.0,0.0,0.0,0.0,0.0,0.0,0.0,0.0,0.0,0.0,0.0,0.0,0.0,5.7578,5.8564,5.8186,5.6039,5.7201,5.7629,5.729,5.8013,5.8603,0.0,5.9605,5.9681,5.9243,6.0838,6.0995,5.99,6.0131,5.9164,5.7515,5.7515,5.6898,5.5973,5.5973,5.5973,5.5973,5.5973,5.5973,5.5973,0.0,0.0,0.0,0.0,0.0,0.0,0.0,0.0,3.2261,3.2633,3.2669,3.2669,3.2669,3.2106,0.0,0.0,3.0739,3.0243,3.0015,2.9994,3.0201,3.0677,3.1133,3.1588,3.2064,3.1609,3.1485,3.1712,3.1505,3.1402,3.1381,3.0905,3.0574,3.0346,3.0098,3.0139,3.0346,3.0098,3.0139,3.0325,3.0098,2.9994,2.9994,2.9994,2.9994,2.9994,2.9994,0.0,0.0,0.0,0.0,0.0,0.0,0.0,3.1129,3.2775,3.4613,3.7078,4.1232,4.4194,4.7121,5.125,5.4548,5.6794,5.7119,5.7174,5.7174,5.7174,5.7174,5.7174,5.7174,0.0,0.0,0.0,0.0,0.0,0.0,0.0,0.0,0.0,0.0,0.0,0.0,0.0,0.0,0.0,0.0,5.7578,5.6209,5.6769,5.6536,5.5165,5.5776,5.6067,5.5785,5.6363,5.6941,5.7519,5.8123,5.8473,5.8567,5.9436,5.9493,5.8841,5.8467,5.7601,5.6544,5.6277,5.5736,5.5099,5.5099,5.5099,5.5099,5.5099,5.5099,5.5151,0.0,0.0,0.0,0.0,0.0,0.0,0.0,0.0,0.0,3.2617,3.2669,3.2669,3.2669,3.2256,3.1857,0.0,0.0,0.0,3.0036,2.9994,3.0201,3.0677,3.0967,3.1215,3.1381,3.1215,3.1174,3.1257,3.0801,3.0574,3.0574,3.0574,3.0367,2.9994,2.9994,2.9994,2.9994,2.9994,2.9994,2.9994,2.9994,2.9994,2.9994,2.9994,2.9994,2.9994,2.9994,2.9994,2.9994,2.9994,0.0,0.0,0.0,0.0,3.0339,3.1945,3.3034,3.5034,4.0721,4.348,4.628,5.2668,5.5585,5.6936,5.7146,5.7174,5.7174,5.7174,5.7174,5.7174,0.0,0.0,0.0,0.0,0.0,0.0,0.0,0.0,0.0,0.0,0.0,0.0,0.0,0.0,0.0,0.0,0.0,5.6275,5.5165,5.5099,5.5099,5.5099,5.5099,5.5099,5.5099,5.5647,5.6223,5.6824,5.7477,5.8052,5.8497,5.8026,5.7835,5.7678,5.6709,5.6212,5.6013,5.5465,5.5255,5.5229,5.5151,5.5151,5.5255,5.5255,5.5308,5.5465,0.0,0.0,0.0,0.0,0.0,0.0,0.0,0.0,0.0,0.0,3.2669,3.2669,3.2669,3.2256,3.1857,3.1422,3.0946,3.0491,3.0036,0.0,0.0,3.0677,3.0367,3.0553,3.136,3.0594,3.0387,3.0781,3.0305,3.0098,3.0098,3.0098,3.0056,2.9994,2.9994,2.9994,2.9994,2.9994,2.9994,2.9994,2.9994,2.9994,2.9994,2.9994,2.9994,2.9994,2.9994,2.9994,2.9994,2.9994,2.9994,0.0,0.0,0.0,3.0339,3.1945,3.4085,3.6477,3.8823,4.3462,4.8584,5.2537,5.4558,5.5816,5.6936,5.7174,5.7174,0.0,5.7174,0.0,0.0,0.0,0.0,0.0,0.0,0.0,0.0,0.0,0.0,0.0,0.0,0.0,0.0,0.0,0.0,0.0,5.5339,5.5299,5.5099,5.5099,5.5099,5.5099,5.5099,5.5099,5.5099,5.5647,5.6223,5.6824,5.7895,5.8444,5.8523,5.8444,5.8131,5.773,5.7824,5.7414,5.6641,5.604,5.5804,5.5752,5.5282,5.5386,5.5804,5.5804,5.6118,5.6588,0.0,0.0,0.0,0.0,0.0,0.0,0.0,0.0,0.0,0.0,0.0,3.2555,3.2669,3.2483,3.2147,3.1443,3.1195,3.076,3.0036,2.9994,3.0077,3.0284,3.0098,3.018,3.0594,3.0201,3.0098,3.0305,3.0098,2.9994,2.9994,2.9994,2.9994,2.9994,2.9994,2.9994,2.9994,2.9994,2.9994,2.9994,2.9994,3.0615,3.1443,3.0677,3.1008,3.1754,3.0739,3.0387,3.0346,3.0077,2.9994,2.9994,2.9994,0.0,0.0,0.0,3.2338,3.4764,3.9491,4.4116,4.8582,5.2412,5.4349,5.5591,5.6503,5.6956,5.7174,5.7174,0.0,0.0,0.0,0.0,0.0,0.0,0.0,0.0,0.0,0.0,0.0,0.0,0.0,0.0,0.0,0.0,0.0,0.0,5.5099,5.5099,5.5099,5.5099,5.5099,5.5099,5.5099,5.5099,5.5099,5.5334,5.5909,5.6824,5.7634,5.8209,5.8523,5.8523,5.8366,5.8131,5.8001,5.7712,5.7242,5.6641,5.6405,5.6379,5.6144,5.6196,5.6405,5.6405,5.6588,5.685,0.0,0.0,0.0,0.0,0.0,0.0,0.0,0.0,0.0,0.0,0.0,3.2354,3.2669,0.0,0.0,0.0,3.1381,3.0988,3.0056,2.9994,2.9994,2.9994,2.9994,2.9994,2.9994,2.9994,2.9994,2.9994,2.9994,2.9994,2.9994,2.9994,2.9994,2.9994,2.9994,2.9994,2.9994,2.9994,2.9994,3.0036,3.0512,3.1588,3.2768,3.1629,3.2188,3.3285,3.1236,3.0657,3.0781,3.0201,3.0077,3.016,3.0036,2.9994,0.0,0.0,0.0,3.2908,3.9018,4.2815,4.6052,5.0652,5.2769,5.4107,5.5518,5.6394,5.6956,0.0,0.0,0.0,0.0,0.0,0.0,0.0,0.0,0.0,0.0,0.0,0.0,0.0,0.0,0.0,0.0,0.0,0.0,0.0,5.5165,5.5099,5.5099,5.5099,5.5099,5.5099,5.5099,5.5099,5.5099,5.5229,5.5726,5.6588,5.732,5.7869,5.8314,5.8444,5.8523,5.8497,5.8052,5.7869,5.7843,5.7268,5.7033,5.7007,5.6876,5.6902,5.7033,5.7033,5.7111,5.7294,0.0,0.0,0.0,0.0,0.0,0.0,0.0,0.0,0.0,0.0,0.0,3.2194,3.2628,3.2277,3.1878,3.1422,3.1381,3.0988,3.0056,2.9994,2.9994,2.9994,2.9994,0.0,2.9994,2.9994,2.9994,2.9994,2.9994,2.9994,2.9994,2.9994,2.9994,2.9994,2.9994,2.9994,2.9994,2.9994,2.9994,3.0139,3.1899,3.2892,3.3285,3.2809,3.3203,3.3738,3.0988,3.0594,3.1195,3.0305,3.0284,3.0574,3.0139,2.9994,2.9994,0.0,0.0,0.0,3.5666,3.7576,4.0026,4.6104,4.8579,5.039,5.3724,0.0,5.6359,0.0,0.0,0.0,0.0,0.0,0.0,0.0,0.0,0.0,0.0,0.0,0.0,0.0,0.0,0.0,0.0,0.0,0.0,0.0,0.0,5.5099,5.5099,5.5099,5.5099,5.5099,5.5099,5.5099,5.5099,5.5621,5.5909,5.5961,5.7111,5.7756,5.7782,5.8261,5.8523,5.8523,5.847,5.847,5.8418,5.7843,5.7678,5.7625,5.7007,5.7137,5.7678,5.7678,5.7948,5.8444,0.0,0.0,0.0,0.0,0.0,0.0,0.0,0.0,0.0,0.0,0.0,0.0,0.0,3.2339,3.2188,3.1443,3.1112,3.0677,3.0036,2.9994,2.9994,2.9994,2.9994,2.9994,2.9994,2.9994,2.9994,2.9994,2.9994,2.9994,2.9994,2.9994,2.9994,2.9994,2.9994,2.9994,2.9994,2.9994,2.9994,3.018,3.2292,3.3948,3.5045,3.432,3.55,3.7136,0.0,3.2623,3.2602,3.2271,3.1319,3.0263,3.0408,3.0243,2.9994,2.9994,3.0517,3.1721,3.5009,3.6432,3.8101,4.2904,4.6055,4.8549,5.0663,5.3113,5.5226,5.6087,0.0,0.0,0.0,0.0,0.0,0.0,0.0,0.0,0.0,0.0,0.0,0.0,0.0,0.0,0.0,0.0,0.0,0.0,0.0,0.0,5.5736,5.5538,5.5432,5.5432,5.5232,5.5099,5.5099,5.5282,5.5752,5.6484,5.6626,5.7294,5.8209,5.8134,5.8284,5.8523,5.8212,5.8141,5.8141,5.7933,5.783,5.783,5.7622,5.7815,5.8209,5.8209,5.834,5.8523,0.0,0.0,0.0,0.0,0.0,3.5314,3.5024,3.4737,3.4286,3.3927,0.0,0.0,0.0,0.0,3.2188,3.1443,3.0946,3.0553,3.0243,3.0077,2.9994,2.9994,2.9994,2.9994,2.9994,2.9994,2.9994,2.9994,2.9994,2.9994,2.9994,2.9994,2.9994,2.9994,2.9994,2.9994,2.9994,2.9994,2.9994,3.0263,3.3306,3.5169,3.608,3.579,3.7094,0.0,0.0,0.0,0.0,0.0,0.0,0.0,0.0,0.0,2.9994,2.9994,3.0222,3.1007,3.3363,3.4338,3.5681,3.9627,4.268,4.552,4.83,5.0929,5.3275,0.0,0.0,0.0,0.0,0.0,0.0,0.0,0.0,0.0,0.0,0.0,0.0,0.0,0.0,0.0,0.0,0.0,0.0,0.0,0.0,0.0,5.6132,5.5868,5.5802,5.5802,5.5538,5.5432,5.5432,5.5432,5.5771,5.651,5.6418,5.6807,5.7643,5.7564,5.7641,5.7953,5.7498,5.7569,5.7856,5.7784,5.7784,5.7927,5.7927,5.8141,5.8523,5.8523,5.8426,5.831,0.0,0.0,0.0,0.0,3.5418,3.5418,3.5397,3.5045,3.4837,3.4795,0.0,0.0,0.0,0.0,0.0,3.1422,3.0967,3.0698,3.0677,3.0243,2.9994,2.9994,2.9994,2.9994,2.9994,2.9994,2.9994,2.9994,2.9994,2.9994,2.9994,2.9994,2.9994,2.9994,2.9994,2.9994,2.9994,2.9994,2.9994,3.0408,3.4962,3.6535,3.6287,0.0,0.0,0.0,3.5313,3.4817,0.0,3.6577,0.0,0.0,0.0,0.0,0.0,2.9994,2.9994,3.0098,0.0,0.0,0.0,3.6091,3.8407,4.1205,4.6577,0.0,5.0507,0.0,0.0,0.0,0.0,0.0,0.0,0.0,0.0,0.0,0.0,0.0,0.0,0.0,0.0,0.0,0.0,0.0,0.0,0.0,0.0,5.6185,5.6185,5.6158,5.6092,5.6092,5.6092,5.6066,5.6066,5.6066,5.6027,5.5867,5.6442,5.6364,5.5964,5.6548,5.6801,5.6801,5.6365,5.6848,5.7856,5.7523,5.7523,5.7856,5.7856,5.807,5.8452,5.8452,5.8212,5.7856,0.0,0.0,0.0,3.5418,3.5418,3.5314,3.4983,3.5107,3.5004,0.0,0.0,0.0,3.3451,3.2871,3.223,3.1443,3.1257,3.105,3.0698,3.0243,2.9994,2.9994,2.9994,2.9994,2.9994,2.9994,2.9994,2.9994,2.9994,2.9994,2.9994,2.9994,2.9994,2.9994,2.9994,2.9994,2.9994,2.9994,3.0201,3.0843,3.4734,3.6825,0.0,0.0,0.0,0.0,0.0,3.873,3.844,0.0,3.6929,3.4258,0.0,0.0,2.9994,2.9994,2.9994,3.0015,3.016,0.0,0.0,0.0,0.0,0.0,0.0,0.0,0.0,0.0,0.0,0.0,0.0,0.0,0.0,0.0,0.0,0.0,0.0,0.0,0.0,0.0,0.0,0.0,0.0,0.0,0.0,0.0,5.8034,5.8238,5.8238,5.741,5.666,5.6063,5.5471,5.4993,5.4604,5.4578,5.4961,5.5735,5.5611,5.6059,5.7005,5.687,5.6946,5.7235,5.6801,5.6801,5.7091,5.6365,5.612,5.6267,5.6558,5.6946,5.7307,5.7595,5.7667,5.7523,0.0,0.0,3.5769,3.5956,3.5997,3.5914,3.5645,3.5832,3.5749,0.0,0.0,0.0,3.3513,3.3161,3.2561,3.1464,3.1547,3.1464,3.1008,3.0367,3.0077,3.0284,3.0098,2.9994,2.9994,2.9994,2.9994,2.9994,2.9994,2.9994,2.9994,2.9994,2.9994,2.9994,2.9994,2.9994,2.9994,2.9994,0.0,0.0,3.4983,0.0,0.0,4.0179,4.171,0.0,0.0,0.0,4.0468,4.1048,3.8543,0.0,0.0,0.0,2.9994,2.9994,2.9994,2.9994,2.9994,3.0201,3.0494,0.0,0.0,0.0,3.9023,4.2,0.0,0.0,0.0,0.0,0.0,0.0,0.0,0.0,0.0,0.0,0.0,0.0,0.0,0.0,0.0,0.0,0.0,0.0,0.0,5.6809,5.7371,5.7825,5.7998,5.7388,5.6846,5.6301,5.5865,5.5435,5.5099,5.5099,5.5426,5.6047,5.5835,5.601,5.6656,5.6438,5.6438,5.6656,5.6219,5.6146,5.6292,5.5632,5.5632,5.6146,5.6365,5.6729,5.7091,5.7307,5.7307,5.7163,0.0,0.0,3.6328,3.6742,3.6804,3.6784,3.6742,3.6763,3.6618,0.0,3.6039,3.5376,3.3637,3.3451,3.2934,3.1629,3.1878,3.1899,3.1402,3.0657,3.0346,3.0594,3.0263,3.0036,2.9994,2.9994,2.9994,2.9994,2.9994,2.9994,2.9994,2.9994,2.9994,2.9994,2.9994,2.9994,2.9994,2.9994,0.0,3.0781,3.5459,3.697,0.0,0.0,4.1607,4.1338,4.1338,4.1565,4.2021,4.2973,4.0572,0.0,0.0,0.0,3.0801,3.0243,3.0243,3.0367,3.0015,2.9953,0.0,0.0,0.0,0.0,4.0313,4.2184,4.4147,0.0,0.0,0.0,0.0,0.0,0.0,0.0,0.0,0.0,0.0,0.0,0.0,0.0,0.0,0.0,0.0,5.6053,5.5816,5.5165,5.5674,5.6223,5.6677,5.6686,5.6617,5.6565,5.6548,5.6548,5.6496,5.6496,5.6434,5.6366,5.6366,5.6171,5.5705,5.5705,5.5705,5.5632,5.5263,5.5337,5.5632,5.5263,5.5705,5.6583,5.6656,5.6874,5.7235,5.7235,5.7019,5.6729,3.6101,3.6411,3.6701,3.6784,3.6804,3.668,3.6308,3.6556,3.6494,3.5666,3.5562,3.5148,3.4051,3.3927,3.3534,3.2561,3.254,3.225,3.1422,3.1547,3.1195,3.018,3.0408,3.0387,2.9994,2.9994,2.9994,2.9994,2.9994,2.9994,2.9994,2.9994,2.9994,2.9994,2.9994,2.9994,2.9994,2.9994,0.0,3.2934,3.5397,0.0,3.86,4.1959,4.3615,4.4194,4.4194,4.4008,4.3532,4.1938,4.0593,3.9019,0.0,0.0,0.0,3.1733,3.1836,3.2706,3.0139,0.0,0.0,0.0,0.0,0.0,3.2901,3.485,3.7136,0.0,0.0,0.0,0.0,0.0,0.0,0.0,0.0,0.0,0.0,0.0,0.0,0.0,0.0,0.0,0.0,5.5666,5.5887,5.5726,5.6275,5.6641,5.6745,5.6633,5.6335,5.5872,5.5771,5.5441,5.4986,5.4986,5.5193,5.5581,5.5581,5.5739,5.6072,5.6072,5.6072,5.6072,5.5999,5.5999,5.6072,5.5999,5.5705,5.5411,5.5705,5.5926,5.5999,5.6292,5.6365,5.6292,3.6411,3.6825,3.7218,3.7446,3.7488,3.7405,3.7177,3.7156,3.6908,3.6204,3.5521,3.4921,3.4526,3.4463,3.4051,3.3141,3.3058,3.2768,3.2106,3.1836,3.1505,3.1029,3.0801,3.0574,3.0346,3.0118,2.9994,2.9994,2.9994,2.9994,2.9994,2.9994,2.9994,2.9994,2.9994,2.9994,3.0015,3.0243,3.1774,3.4256,3.5811,0.0,3.9827,4.258,4.4049,4.465,4.465,4.4505,4.4091,4.2704,4.0882,0.0,0.0,3.6825,3.5894,0.0,3.283,3.3182,0.0,0.0,0.0,2.9352,0.0,0.0,0.0,0.0,3.5979,0.0,0.0,0.0,0.0,0.0,0.0,0.0,0.0,0.0,0.0,0.0,0.0,0.0,0.0,0.0,0.0,5.5365,5.5357,5.5227,5.5227,5.5424,5.5707,5.5847,5.5812,5.5533,5.5707,5.5666,5.539,5.539,5.5516,5.5792,5.5792,5.5942,5.6219,5.6219,5.6219,5.6219,5.6219,5.6219,5.6219,5.6219,5.5999,5.5632,5.5852,5.5926,5.5926,5.6146,5.6219,5.6219,3.6867,3.7301,3.7736,3.8129,3.8191,3.815,3.8067,3.7736,3.7301,3.6742,3.5625,3.494,3.494,3.5106,3.494,3.4336,3.4523,3.4336,3.3547,3.2882,3.2369,3.1988,3.134,3.0864,3.0698,3.0325,3.0077,2.9994,2.9994,2.9994,2.9994,2.9994,2.9994,3.0015,3.0556,3.0503,3.018,3.12,0.0,3.5397,0.0,3.8543,4.0986,4.318,4.4298,4.4691,4.4588,4.4505,4.4319,4.3594,4.14,3.8978,3.8999,3.7777,0.0,0.0,0.0,0.0,0.0,0.0,0.0,0.0,0.0,3.0245,0.0,0.0,0.0,0.0,0.0,0.0,0.0,0.0,0.0,0.0,0.0,0.0,0.0,0.0,0.0,0.0,0.0,0.0,0.0,5.4176,5.408,5.4406,5.3582,5.3457,5.4361,5.4938,5.529,5.539,5.5917,5.6219,5.6219,5.6219,5.6219,5.6219,5.6219,5.6219,5.6219,5.6219,5.6219,5.6219,5.6219,5.6219,5.6219,5.6219,5.6219,5.6219,5.6219,5.6219,5.6219,5.6219,5.6219,5.6219,3.7405,3.7798,3.8129,3.8171,3.8191,3.8046,3.7632,3.7529,3.7177,3.6308,3.5707,3.5355,3.5355,3.608,3.6829,3.7506,0.0,0.0,3.6435,3.6582,3.5307,3.2168,3.1884,3.1505,3.0698,3.0636,3.0408,2.9994,2.9994,2.9994,2.9994,2.9994,2.9994,3.0077,3.2462,3.2462,3.0835,3.3649,3.5788,0.0,3.7798,3.9868,0.0,4.4733,4.5726,4.6057,4.5664,4.5271,4.465,0.0,4.2145,4.1255,0.0,3.9351,4.0779,3.461,0.0,0.0,0.0,0.0,0.0,0.0,2.9642,0.0,0.0,0.0,0.0,0.0,0.0,0.0,0.0,0.0,0.0,0.0,0.0,0.0,0.0,0.0,0.0,0.0,0.0,0.0,0.0,0.0,5.1691,5.3658,5.1925,5.1674,5.3683,5.4336,5.4888,5.5365,5.5917,5.6219,5.6219,5.6219,5.6219,5.6219,5.6219,5.6219,5.6219,5.6219,5.6219,5.6219,5.6219,5.6219,5.6219,5.6219,5.6219,5.6219,5.6219,5.6219,5.6219,5.6219,5.6219,5.6219,3.755,3.786,3.8191,3.8191,3.7964,3.7715,3.7529,3.7032,3.6453,3.579,3.5769,3.5914,3.6183,3.6577,3.7263,3.8391,0.0,3.8082,0.0,0.0,3.579,3.2934,3.2809,3.2271,3.1112,3.1091,3.0719,2.9994,3.0263,3.0263,2.9994,2.9994,2.9994,3.0077,3.2497,3.3126,3.241,0.0,3.6499,0.0,0.0,0.0,0.0,4.4588,4.5333,4.5933,4.5747,4.5561,4.5188,0.0,4.2393,0.0,0.0,0.0,0.0,0.0,0.0,0.0,0.0,0.0,0.0,0.0,0.0,0.0,3.0077,0.0,2.9642,0.0,0.0,0.0,0.0,0.0,0.0,0.0,0.0,0.0,0.0,0.0,0.0,0.0,0.0,0.0,0.0,0.0,0.0,0.0,0.0,5.1875,5.4084,5.4737,5.5139,5.539,5.5917,5.6219,5.6219,5.6219,5.6219,5.6219,5.6219,5.6219,5.6219,5.6219,5.6219,5.6219,5.6219,5.6219,5.6219,5.6219,5.6219,5.6219,5.6219,5.6219,5.6219,5.6219,5.6219,5.6219,3.7757,3.7964,3.8191,3.8191,3.7798,3.7405,3.7156,3.6556,3.5997,3.5645,3.6018,3.6432,3.6763,3.7467,0.0,0.0,4.0007,3.9619,0.0,0.0,3.708,3.4791,3.3841,3.3219,3.2913,3.1927,3.105,3.0367,3.045,3.0325,2.9994,2.9994,2.9994,3.0077,3.256,3.3791,3.408,3.5703,3.7712,3.9758,4.0096,4.1814,4.4174,4.4815,4.5478,4.6037,4.5912,4.5788,4.5519,4.4463,4.2704,0.0,4.2456,0.0,0.0,0.0,0.0,0.0,3.4093,0.0,0.0,0.0,0.0,0.0,0.0,0.0,0.0,0.0,0.0,0.0,0.0,0.0,0.0,0.0,0.0,0.0,0.0,0.0,0.0,0.0,0.0,0.0,0.0,0.0,0.0,0.0,0.0,0.0,5.4411,5.5239,5.5691,5.5842,5.6219,5.6445,5.6445,5.6294,5.6219,5.6219,5.6219,5.6219,5.6219,5.6219,5.6219,5.6219,5.6219,5.6219,5.6219,5.6369,5.6344,5.6244,5.6545,5.657,5.642,5.6269,5.6219,5.6219,3.8171,3.8171,3.8191,3.8191,3.7798,3.7198,3.6287,3.6121,3.6101,3.6101,0.0,0.0,0.0,0.0,0.0,0.0,0.0,4.5377,4.2259,0.0,4.0345,3.8033,3.5039,3.4435,0.0,3.3184,3.136,3.134,3.045,3.0015,2.9994,2.9994,2.9994,3.0118,3.3266,3.4935,3.5486,3.8159,4.0339,4.2081,4.2199,4.2766,4.3863,0.0,4.6968,4.6947,4.6411,0.0,0.0,4.4091,4.3284,0.0,0.0,0.0,0.0,0.0,0.0,0.0,0.0,0.0,0.0,3.3016,0.0,0.0,0.0,0.0,3.0098,0.0,0.0,0.0,0.0,0.0,0.0,0.0,0.0,0.0,0.0,0.0,0.0,0.0,0.0,0.0,0.0,0.0,0.0,0.0,0.0,0.0,5.4336,5.5591,5.642,5.6972,5.6997,5.6923,5.6923,5.647,5.6219,5.6219,5.6219,5.6219,5.6219,5.6219,5.6219,5.6219,5.6219,5.6219,5.6244,5.6796,5.6696,5.6319,5.7424,5.7499,5.6947,5.642,5.6219,5.6219,3.8191,3.8191,3.8191,3.8191,3.755,3.6722,3.579,3.5914,0.0,0.0,3.8666,0.0,0.0,4.2246,4.3584,0.0,0.0,4.4875,4.1922,4.2174,0.0,0.0,0.0,3.5251,0.0,0.0,0.0,3.0926,3.0905,3.0594,2.9994,2.9994,2.9994,3.0098,3.2993,3.5318,3.7276,0.0,0.0,0.0,0.0,4.3273,4.4112,0.0,0.0,4.5333,4.6078,4.6244,0.0,4.525,4.407,4.2952,4.3097,4.1917,4.051,4.08,4.0448,0.0,0.0,0.0,3.8502,3.5314,0.0,0.0,0.0,0.0,0.0,0.0,0.0,0.0,0.0,0.0,0.0,0.0,0.0,0.0,0.0,0.0,0.0,0.0,0.0,0.0,0.0,0.0,0.0,0.0,0.0,0.0,0.0,5.6344,5.6846,5.7022,5.7399,5.7424,5.7022,5.7223,5.7123,5.6771,5.7148,5.7123,5.6746,5.6746,5.657,5.6219,5.6219,5.642,5.6771,5.6972,5.6228,5.5282,5.7199,5.6849,5.5577,5.6875,5.7323,5.7323,3.815,3.8191,3.8129,3.7964,3.7177,3.6349,3.5769,0.0,0.0,0.0,4.0291,0.0,4.3447,0.0,4.5545,0.0,4.6817,4.5736,4.269,4.3383,0.0,3.9583,3.8416,0.0,0.0,0.0,0.0,0.0,3.1526,3.0739,2.9994,2.9994,3.0077,3.0305,3.2239,3.5194,3.8821,3.8639,4.1088,0.0,0.0,4.3198,0.0,0.0,4.3863,4.4733,0.0,4.6514,4.6554,4.6264,4.5374,4.4484,4.5084,4.3532,4.1648,4.2518,4.2042,4.1069,4.0282,4.08,0.0,3.7881,3.7446,0.0,3.4134,0.0,0.0,0.0,0.0,0.0,0.0,0.0,0.0,0.0,0.0,0.0,0.0,0.0,0.0,0.0,0.0,0.0,0.0,0.0,0.0,0.0,0.0,0.0,0.0,0.0,5.6922,5.7323,5.7499,5.76,5.7625,5.7801,5.77,5.7349,5.785,5.785,5.7323,5.7296,5.6994,5.6421,5.5806,5.5658,5.5831,5.5599,5.4668,5.3642,5.538,5.5606,5.511,5.7123,5.7901,5.7951,3.8026,3.8088,3.7943,3.7529,3.6742,3.6142,0.0,0.0,3.7826,0.0,4.1488,4.2737,4.4998,4.6463,4.7469,4.7891,4.907,4.8316,4.4806,4.5383,0.0,0.0,4.1733,4.2006,4.4235,0.0,0.0,0.0,0.0,3.0512,3.0036,3.0015,3.0243,3.0698,3.1195,3.4589,3.9875,3.8608,4.1444,4.6429,4.3515,4.2903,4.3573,4.3201,4.3863,4.5167,4.6513,4.701,4.701,4.701,4.701,4.701,4.6968,4.6078,4.5022,4.5022,4.4712,4.4091,4.2787,4.2124,4.1565,4.0593,0.0,0.0,0.0,0.0,3.459,0.0,0.0,0.0,0.0,0.0,0.0,0.0,0.0,0.0,0.0,0.0,0.0,0.0,0.0,0.0,0.0,0.0,0.0,0.0,0.0,0.0,0.0,0.0,5.6547,5.7851,5.7374,5.76,5.8704,5.8227,5.7976,5.7926,5.8377,5.8377,5.8001,5.7746,5.7369,5.6799,5.5051,5.398,5.3545,5.3,5.2133,5.1354,5.2441,5.3959,5.5665,5.7346,5.7976,5.8127,3.7198,3.6887,3.6722,3.6949,3.6784,3.6515,0.0,0.0,0.0,0.0,4.3986,4.6151,4.8694,5.0253,5.0963,5.0746,5.1071,0.0,0.0,0.0,0.0,4.6103,4.3665,4.3015,4.4241,3.9626,0.0,3.5932,0.0,3.1278,3.0512,3.016,3.0243,3.0719,3.1505,3.4014,3.7615,3.7311,3.9405,4.2993,4.3171,4.3398,0.0,0.0,4.4981,4.5126,4.6161,4.6452,4.6452,4.6452,4.6452,4.6471,4.614,4.5788,4.5498,4.5498,4.5416,4.525,4.4898,4.496,4.465,4.2704,4.1959,4.1172,0.0,0.0,0.0,0.0,0.0,0.0,0.0,0.0,0.0,0.0,0.0,0.0,0.0,0.0,0.0,0.0,0.0,0.0,0.0,0.0,0.0,0.0,0.0,0.0,0.0,0.0,0.0,5.7801,5.775,5.8001,5.8704,5.9287,5.9338,5.8933,5.9718,5.9869,5.9285,5.7298,5.6122,5.5554,5.31,5.2233,5.2488,5.2377,5.139,5.0228,5.2548,5.4686,5.6728,5.844,5.9081,5.9182,3.7425,3.7032,3.6804,3.7053,0.0,0.0,3.8274,3.82,0.0,4.387,4.5571,0.0,5.0127,5.187,5.2649,5.241,5.2388,0.0,4.9833,0.0,0.0,4.775,4.6701,4.6257,4.6357,4.2886,0.0,3.8182,0.0,3.2835,3.0967,3.0512,3.0553,3.1029,3.1733,3.3914,3.7213,3.9239,4.1001,4.2585,4.4201,0.0,0.0,4.6221,4.6253,4.5954,4.6694,4.68,4.6658,4.6658,4.6658,4.6616,4.6347,4.614,4.5975,4.5975,4.6119,4.6285,4.6285,4.6306,4.5998,4.4981,4.4277,4.3387,4.171,4.08,3.9972,0.0,0.0,0.0,0.0,0.0,0.0,0.0,0.0,0.0,0.0,0.0,0.0,0.0,0.0,0.0,0.0,0.0,0.0,0.0,0.0,0.0,0.0,0.0,0.0,5.4034,5.4278,5.5482,5.7847,5.6867,5.6966,5.8222,5.8144,5.7789,5.7084,5.5731,5.4861,5.4267,5.2063,5.1139,5.1207,5.0632,4.9687,4.8704,5.1211,5.2878,5.4301,5.647,5.7692,5.834,3.7943,3.7674,3.7446,3.757,3.938,0.0,0.0,4.0312,0.0,4.601,0.0,4.8034,5.062,5.2369,5.3406,5.3406,0.0,5.2627,5.1124,5.1659,5.1209,4.9216,4.9972,5.0079,4.9322,4.6805,0.0,0.0,0.0,3.4571,3.1547,3.1071,3.1071,3.1485,3.1981,0.0,0.0,4.2006,4.3709,4.3847,4.5679,4.6711,4.7132,4.7682,4.7677,4.7298,4.7769,4.744,4.6947,4.6947,4.703,4.7113,4.7051,4.6762,4.6616,4.6616,4.6844,4.7134,4.7196,4.6927,4.6699,4.7051,4.6264,4.5188,4.4194,4.3366,4.2311,4.0613,3.993,3.9433,0.0,0.0,0.0,0.0,0.0,0.0,0.0,0.0,0.0,0.0,0.0,0.0,0.0,0.0,0.0,0.0,0.0,0.0,0.0,0.0,0.0,4.9574,5.0063,0.0,5.5971,0.0,5.33,5.6192,5.5255,5.446,5.3811,5.3683,5.3448,5.3085,5.1221,5.0085,4.9595,4.8546,4.7666,4.7241,4.9362,5.0255,5.0571,5.303,5.4835,5.6055,3.7115,3.697,3.7177,3.7922,3.9336,4.1468,4.4878,4.5167,4.5873,4.8258,4.961,5.1114,5.3082,5.3997,5.4433,5.4433,5.3996,0.0,0.0,0.0,0.0,5.2974,5.1678,5.0719,5.0158,4.6811,4.369,0.0,0.0,3.516,3.2478,3.1967,3.1836,3.1961,3.2789,0.0,3.8621,4.0267,0.0,4.4316,4.6167,4.713,4.7639,4.8507,4.8765,4.8768,4.885,4.7851,4.639,4.639,4.6968,4.7506,4.7154,4.7486,4.8024,4.8024,4.7817,4.7651,4.8045,4.8086,4.7941,4.7651,4.7672,4.7444,4.6161,4.5747,4.5333,4.4256,4.3967,4.3304,4.1338,0.0,0.0,0.0,0.0,0.0,0.0,0.0,0.0,0.0,0.0,0.0,0.0,0.0,0.0,0.0,0.0,0.0,0.0,0.0,0.0,0.0,0.0,0.0,0.0,0.0,5.3498,5.2937,5.4229,5.4902,5.5057,5.2883,5.1872,5.1692,4.9205,4.7917,4.7554,4.7322,4.7127,4.7172,4.8963,4.9971,5.0365,5.1262,5.1811,5.2332,3.8585,3.8378,3.8667,4.0054,4.2063,0.0,0.0,4.9059,5.0231,5.0188,5.0749,5.1612,5.2736,5.3975,5.4741,5.4741,5.4434,5.4412,5.463,5.4258,5.3951,5.3863,5.3036,0.0,5.1528,4.8844,4.5722,4.233,0.0,3.6768,3.341,3.2954,3.2727,3.2809,3.4914,3.6958,0.0,0.0,0.0,4.5916,4.7933,4.9064,4.9536,5.0256,5.0029,4.9483,4.9732,4.8871,4.7685,4.7189,4.6987,4.6989,4.703,4.7486,4.8065,4.8314,4.8396,4.8459,4.8666,4.8562,4.8314,4.8107,4.8024,4.7838,4.7196,4.7051,4.6782,4.5892,4.5685,4.4857,4.2083,3.9744,0.0,0.0,0.0,0.0,0.0,0.0,0.0,0.0,0.0,0.0,0.0,0.0,0.0,0.0,0.0,0.0,0.0,0.0,0.0,0.0,0.0,0.0,0.0,0.0,0.0,5.1483,5.1422,5.1401,5.13,5.0546,5.0063,4.9804,4.8497,4.7693,4.7314,4.7094,4.7043,4.7112,4.7888,4.8422,4.8656,4.9124,4.9294,4.9505,4.0386,4.0054,4.0344,4.2604,4.4879,4.7011,4.8691,5.1678,5.3278,5.1978,5.1891,5.2086,5.2476,5.38,5.4741,5.4741,5.4741,5.4741,5.4741,5.4741,5.4475,5.4121,5.3929,5.3386,5.2368,5.0888,4.8136,0.0,0.0,0.0,3.4812,3.4028,3.3945,0.0,0.0,0.0,0.0,0.0,4.6613,4.8077,5.008,5.1071,5.1417,5.1776,5.1285,5.0415,5.0663,5.0152,4.9289,4.8495,4.7645,4.6905,4.7092,4.7548,4.8045,4.8417,4.879,4.9059,4.9059,4.881,4.8521,4.8521,4.8252,4.7962,4.7858,4.7838,4.761,4.6803,4.6554,4.5581,4.2559,4.171,0.0,0.0,0.0,0.0,0.0,0.0,0.0,0.0,0.0,0.0,0.0,0.0,0.0,0.0,0.0,0.0,0.0,0.0,0.0,0.0,0.0,4.6893,4.8319,0.0,4.7273,0.0,4.8583,4.7933,4.7592,4.841,4.8591,4.8172,4.8172,4.7853,4.7453,4.6993,4.6818,4.6803,4.6803,4.6803,4.6947,4.7382,4.7548,4.7672,4.1193,4.0737,4.1233,0.0,0.0,4.7453,5.0453,5.2304,5.3451,5.3583,5.4019,5.439,5.4456,5.4565,5.4741,5.4741,5.4741,5.4741,5.4741,5.4741,5.4652,5.4652,5.4166,5.3271,5.1955,5.1295,4.935,0.0,0.0,0.0,0.0,3.5477,3.5769,0.0,0.0,0.0,0.0,4.6057,4.8,5.0813,5.1838,5.2296,5.2339,5.2424,5.2381,5.2209,5.1794,5.1065,5.0217,5.0173,4.9571,4.8714,4.7921,4.8231,4.8955,4.8997,4.9038,4.9059,4.9059,4.9038,4.8997,4.8997,4.8976,4.8831,4.8396,4.8314,4.8169,4.7672,4.7237,4.6244,4.3863,4.3387,4.2791,0.0,0.0,0.0,0.0,0.0,0.0,0.0,0.0,0.0,0.0,0.0,0.0,0.0,0.0,0.0,0.0,0.0,0.0,4.3394,0.0,4.4584,4.2314,4.579,0.0,4.5462,4.696,4.7613,4.7592,4.8092,4.8092,4.7693,4.7693,4.7453,4.7014,4.659,4.6368,4.6328,4.6328,4.6328,4.639,4.6927,4.7092,4.7175,0.0,0.0,0.0,0.0,0.0,0.0,0.0,5.3452,5.4192,5.4368,5.4543,5.4741,5.4741,5.4741,5.4741,5.4741,5.4741,5.4741,5.4741,5.4741,5.4521,5.4237,5.4323,5.3842,5.2715,5.1681,5.001,0.0,0.0,0.0,0.0,3.7525,3.778,0.0,0.0,4.3321,4.5677,4.8488,5.0201,5.1238,5.2448,5.3101,5.332,5.3036,5.2927,5.2861,5.2381,5.1816,5.1108,5.0555,4.9803,4.9028,4.8672,4.8795,4.9059,4.9059,4.9059,4.9059,4.9059,4.9059,4.9059,4.9059,4.9059,4.9017,4.8831,4.879,4.8666,4.8189,4.7962,4.7403,4.5933,4.5002,4.439,0.0,0.0,0.0,0.0,0.0,0.0,0.0,0.0,0.0,0.0,0.0,0.0,0.0,0.0,0.0,0.0,0.0,0.0,4.1431,0.0,4.5278,4.2761,4.5764,4.6926,4.6173,4.6867,4.7234,4.7234,4.7693,4.7613,4.7234,4.6891,4.6751,4.659,4.6347,4.6266,4.6266,4.6266,4.6266,4.6287,4.6473,4.6535,4.6678,4.6782,0.0,4.78,0.0,5.1145,5.1958,5.3495,5.4258,5.4741,5.4741,5.4741,5.4741,5.4741,5.4741,5.4741,5.4741,5.4521,5.4456,5.4456,5.4303,5.4084,5.3735,5.4062,0.0,5.3256,5.224,5.1099,4.9583,4.5884,0.0,0.0,3.9909,3.9962,0.0,4.419,4.5691,4.6828,5.0361,5.1759,5.1848,5.2929,5.3626,5.391,5.356,5.3429,5.3342,5.2708,5.2271,5.1838,5.1086,5.0353,4.9786,4.9386,4.9404,4.9438,4.9352,4.9266,4.9245,4.91,4.9059,4.9059,4.9059,4.9059,4.9059,4.9059,4.9059,4.8935,4.8479,4.8479,4.8293,4.7403,4.6554,4.5951,4.5916,0.0,0.0,0.0,0.0,0.0,0.0,0.0,4.048,0.0,0.0,0.0,0.0,0.0,0.0,0.0,0.0,0.0,0.0,0.0,0.0,0.0,4.5892,4.6968,4.6823,4.6918,4.6933,4.6772,4.7052,4.7052,4.6772,4.6428,4.6266,4.6266,4.6266,4.6266,4.6266,4.6266,4.6266,4.6266,4.6266,4.6266,4.6308,4.68,4.7776,4.9188,5.1383,5.1806,5.2541,5.4434,5.4652,5.4741,5.4741,5.4741,5.4741,5.4741,5.4741,5.4741,5.4741,5.4215,5.3953,5.3953,5.3495,5.3232,0.0,0.0,5.317,5.3188,5.3191,5.293,5.2477,0.0,0.0,4.6182,4.2574,4.2511,4.5544,4.5632,4.7436,5.0379,5.1423,5.2346,5.3232,5.3735,5.3844,5.3931,5.3844,5.3844,5.38,5.2839,5.249,5.2402,5.1944,5.1759,5.1552,5.0124,4.9971,5.0348,4.9915,4.9742,4.9659,4.9183,4.9059,4.9059,4.9059,4.9059,4.9059,4.9059,4.9059,4.8935,4.8479,4.8748,4.8769,4.7838,4.8045,4.761,4.5374,0.0,0.0,0.0,0.0,0.0,0.0,4.1855,4.1284,4.397,0.0,0.0,0.0,0.0,0.0,0.0,0.0,0.0,4.4193,4.4301,0.0,4.4319,4.6052,4.6803,4.6266,4.6772,4.6772,4.6347,4.6347,4.6347,4.6347,4.6266,4.6266,4.6266,4.6266,4.6266,4.6266,4.6266,4.6266,4.6266,4.6266,4.6266,4.6266,5.1094,5.1573,5.2175,5.3578,5.3821,5.404,5.4587,5.4741,5.4741,5.4741,5.4741,5.4741,5.4741,5.4368,5.4172,0.0,5.3735,5.3451,0.0,5.3298,5.3058,5.273,5.3036,5.2779,5.1809,5.2693,5.278,5.2,0.0,0.0,0.0,4.5869,4.6257,4.7504,4.821,4.9596,5.1487,5.2022,5.2865,5.3757,5.4237,5.4434,5.4434,5.4434,5.4237,5.391,5.3582,5.3276,5.2948,5.2817,5.2776,5.2671,5.2217,5.1567,5.0917,5.1179,5.0743,5.0202,5.0092,4.9794,4.9452,4.9142,4.9059,4.9059,4.9059,4.9059,4.9121,4.9287,4.9183,4.908,4.91,4.8955,4.8603,4.7879,4.8024,0.0,0.0,0.0,0.0,0.0,0.0,4.0477,0.0,3.971,0.0,0.0,0.0,0.0,0.0,0.0,0.0,0.0,4.394,0.0,4.3864,4.5581,4.6411,4.6266,4.6428,4.6428,4.6266,4.6266,4.6266,4.6266,4.6266,4.6266,4.6266,4.6266,4.6266,4.6266,4.6266,4.6266,4.6266,4.6266,4.6473,4.6823,5.1604,5.225,5.2779,5.2966,5.3387,5.3744,5.4099,5.3833,5.3833,5.4564,5.4387,5.4276,5.4652,5.4237,0.0,5.4194,5.3256,5.2693,5.2693,5.252,5.2196,5.172,5.2494,5.2539,5.1616,5.2175,0.0,5.1826,5.0995,4.9995,4.8945,4.9196,4.9237,4.9143,4.9944,5.0589,5.1176,5.2288,5.3137,5.3688,5.4433,5.4741,5.4741,5.4741,5.4477,5.4194,5.3997,5.3735,5.3451,5.3276,5.3169,5.3191,5.3386,5.2707,5.1896,5.2057,5.1555,5.0923,5.1007,5.0408,4.9767,4.9648,4.9375,4.9059,4.9059,4.9059,4.9142,4.9431,4.9411,4.9411,4.9787,4.9659,4.9576,4.9576,4.9431,4.8873,4.7631,0.0,0.0,0.0,0.0,0.0,0.0,4.1431,0.0,0.0,0.0,0.0,0.0,0.0,0.0,4.274,4.4987,0.0,4.4883,4.5847,4.6266,4.6266,4.6266,4.6266,4.6266,4.6266,4.6266,4.6266,4.6266,4.6266,4.6266,4.6266,4.6266,4.6266,4.6266,4.637,4.6514,4.6514,4.6885,4.7279,4.9308,5.057,5.1479,0.0,5.1207,0.0,5.3008,5.2381,5.2492,5.4298,5.3655,5.3476,5.4387,5.4083,5.3996,5.4432,0.0,0.0,0.0,5.14,5.0953,5.0464,5.1635,5.2298,5.2255,5.1467,5.1314,5.1824,5.1824,5.2259,5.3039,5.2259,5.1387,5.0617,5.1031,5.0661,5.0074,5.2102,5.3008,5.3187,5.4099,5.4564,5.4564,5.4564,5.4652,5.4587,5.415,5.3997,5.391,5.3473,5.3278,5.3384,5.3778,5.3641,5.3187,5.2808,5.2305,5.1934,5.2017,5.105,5.0106,5.0519,4.9904,4.9186,4.908,4.9059,4.908,4.91,4.9538,4.987,4.9845,5.0197,5.0466,5.0508,5.0073,4.91,4.732,0.0,0.0,0.0,0.0,0.0,0.0,4.4072,4.3933,0.0,0.0,0.0,0.0,0.0,4.3781,4.6786,4.6912,4.6933,4.6933,4.6509,4.6266,4.6266,4.6266,4.6266,4.6266,4.6266,4.6266,4.6266,4.6266,4.6266,4.6266,4.6266,4.6287,4.6308,4.6308,4.6678,4.7092,4.7092,4.7361,4.7734,0.0,0.0,5.175,5.1479,5.1659,5.184,5.2111,5.193,5.193,5.2381,5.2291,5.2201,5.2471,5.2387,5.2366,5.2471,5.2709,5.2866,5.2866,5.2066,5.1443,5.0953,5.0523,5.016,4.9804,5.0322,5.1006,5.1798,5.1798,5.1888,5.2156,5.2601,5.2779,5.2512,5.1902,5.1944,5.2324,5.1326,5.1388,5.2111,5.2381,5.294,5.3566,5.3566,5.401,5.463,5.4521,5.4477,5.4477,5.4346,5.4302,5.4366,5.438,5.4396,5.4306,5.4188,5.3593,5.2864,5.2947,5.2469,5.1839,5.1588,5.0904,4.9946,4.9227,4.9059,4.9162,4.9514,4.968,4.997,5.0653,5.088,5.1067,5.1419,5.0218,4.8831,4.7693,4.6554,0.0,0.0,4.4049,4.4603,4.5096,4.5101,4.4852,0.0,0.0,0.0,0.0,4.4475,4.5158,4.5969,4.6343,4.6428,4.6428,4.6347,4.6266,4.6266,4.6266,4.6266,4.6266,4.6266,4.6266,4.6266,4.6266,4.6266,4.6266,4.6266,4.6473,4.6783,4.6783,4.7134,4.7527,4.7527,4.7817,4.8272,5.0479,5.0479,5.0479,5.0479,5.0479,5.057,5.1025,5.0752,5.0752,5.1659,5.1388,5.1297,5.175,5.175,5.175,5.175,5.2086,5.2036,5.1597,5.1948,5.1477,4.9936,5.0363,5.0154,4.9059,4.9307,4.9828,5.0503,5.0707,5.108,5.1529,5.2634,5.274,5.184,5.184,5.1569,5.1207,5.057,5.0661,5.1116,5.1569,5.2381,5.3187,5.3187,5.3833,5.4741,5.4741,5.4387,5.4099,5.4564,5.4361,5.4041,5.4478,5.4625,5.4641,5.4655,5.408,5.3596,5.3876,5.3201,5.227,5.1437,5.0731,4.9985,4.9248,4.9224,4.939,4.9431,4.9763,5.0218,5.0694,5.115,5.1501,5.175,5.0259,4.8893,4.8396,4.6968,0.0,4.5519,4.5747,4.6078,4.6492,4.6575,4.6285,4.5519,0.0,0.0,4.5498,4.6194,4.6382,4.5995,4.6571,4.682,4.6576,4.6576,4.6473,4.6266,4.6266,4.6266,4.6266,4.6266,4.6266,4.6266,4.6266,4.639,4.6576,4.6576,4.6927,4.7341,4.7341,4.761,4.8024,4.8231,4.8479,4.8748,4.8965,4.8965,4.8945,4.8867,4.8867,4.9124,4.9931,4.94,4.9492,5.1116,5.0661,5.0388,5.1297,5.1388,5.1388,5.1388,5.1128,5.0723,5.0024,5.1459,5.1173,4.8586,5.0301,5.0551,4.9008,4.8655,4.8639,4.8891,4.9352,5.0094,5.0991,5.2192,5.193,5.057,5.1297,5.0661,4.9124,4.9839,5.0114,5.0205,5.1025,5.193,5.274,5.2919,5.3566,5.4298,5.4387,5.3922,5.3277,5.401,5.3844,5.3554,5.4182,5.4503,5.4634,5.4606,5.4372,5.4054,5.4513,5.3605,5.2355,5.1134,5.0405,4.9829,4.9435,4.9663,4.9849,4.9431,5.0078,5.0637,5.0611,5.1274,5.1708,5.1439,4.9845,4.8624,4.8562,0.0,4.6575,4.7486,4.7568,4.7775,4.8314,4.8086,4.7838,4.7693,4.7755,4.7755,0.0,4.7755,4.7403,4.6575,4.7233,4.7524,4.7134,4.7134,4.6947,4.6554,4.6554,4.6473,4.6391,4.6473,4.6432,4.6288,4.637,4.6555,4.6845,4.6845,4.7155,4.7672,4.7589,4.8003,4.8521,4.8914,4.9059,4.9142,4.9492,4.9414,4.9297,4.8926,4.8867,4.894,4.9124,4.894,4.9032,4.9308,4.9216,4.9216,4.9308,4.9308,4.9308,4.9308,4.9962,5.0742,5.1466,5.0923,5.0337,4.9561,4.9062,4.8862,4.9005,4.923,4.9042,4.8287,4.881,4.9485,5.0469,5.0621,5.1025,5.1569,5.0843,5.0388,5.0022,4.94,4.9124,4.9124,4.9308,4.9931,5.0843,5.1659,5.2111,5.2381,5.3187,5.3366,5.3098,5.2471,5.3251,5.4294,5.3623,5.3956,5.4606,5.4638,5.4537,5.4482,5.4613,5.3826,5.2902,5.2308,5.1501,5.0806,5.0306,5.0522,5.091,5.0803,5.1235,5.1553,5.1591,5.1708,5.1294,4.9742,4.7962,4.6637,4.6264,0.0,4.6119,4.703,4.8769,4.9494,4.8479,4.8666,4.8521,4.7734,4.8045,4.8107,4.7693,4.8065,4.8024,4.7486,4.7631,4.7672,4.7589,4.7589,4.7548,4.7465,4.7465,4.732,4.6924,4.732,4.7031,4.6331,4.6681,4.674,4.637,4.6065,4.6619,4.7693,4.7359,4.7957,4.8955,4.9038,4.9059,4.9142,4.9922,4.9687,4.9453,4.9258,4.9023,4.8867,4.8867,4.8867,4.8867,4.8867,4.8867,4.8867,4.8867,4.8867,4.8867,4.8867,4.9308,4.9768,5.0225,5.0752,5.0459,4.895,4.893,4.8831,4.8562,4.8522,4.8441,4.8203,4.8418,4.8771,4.9227,4.9922,5.0297,5.0225,5.0297,5.0022,4.9492,4.9032,4.8867,4.8867,4.8867,4.9492,5.0388,5.0843,5.1659,5.256,5.2471,5.2471,5.2381,5.193,5.2021,5.2374,5.24,5.3057,5.3829,5.3821,5.4216,5.4579,5.4556,5.3941,5.3162,5.296,5.2186,5.1355,5.0839,5.1162,5.1334,5.0798,5.1307,5.1729,5.1439,5.1439,5.0901,4.9328,4.7941,4.7092,4.7134,4.6927,4.7196,4.8355,4.9431,4.9721,4.8831,4.8935,4.8893,4.8459,4.8624,4.8645,4.8438,4.8624,4.8645,4.8438,4.8189,4.8065,4.8065,4.8065,4.7817,4.7341,4.7341,4.7175,4.701,4.6763,4.666,4.6681,4.6106,4.625,4.6681,4.6267,4.686,4.8079,4.7824,4.8346,4.91,4.9349,4.9287,4.9142,5.0351,5.0058,4.9766,4.957,4.9238,4.8984,4.8867,4.8867,4.8867,4.8867,4.8867,4.8867,4.8867,4.8867,4.8808,4.8711,4.8808,4.8769,4.8574,5.0196,5.0338,4.847,4.9088,4.912,4.8203,4.7891,4.7891,4.8203,4.8203,4.8262,4.8359,4.9517,4.9584,4.894,4.9676,4.9584,4.8867,4.8867,4.8867,4.8867,4.8867,4.9308,5.0022,5.0205,5.1116,5.2111,5.1659,5.1479,5.1388,5.1207,5.0934,5.0722,5.125,5.2096,5.2874,5.2836,5.3499,5.4266,5.457,5.3893,5.3211,5.3316,5.2645,5.1895,5.1646,5.1944,5.2006,5.1212,5.1633,5.1944,5.1501,5.1336,5.0798,4.9307,0.0,4.8086,4.8334,4.8065,4.8355,4.9742,4.9908,4.9763,4.9411,4.9369,4.9369,4.9369,4.9369,4.9369,4.9369,4.9369,4.9328,4.9224,4.8666,4.8376,4.8376,4.8272,4.7879,4.7196,4.7403,4.7423,4.734,4.6845,4.6865,4.7237,4.6289,4.6328,4.7129,4.671,4.7261,4.838,4.8294,4.8613,4.91,4.9473,4.9369,4.9121,5.084,5.0742,5.0469,4.9668,4.9492,4.9336,4.8926,4.8867,4.8867,4.8867,4.8867,4.8867,4.8867,4.8867,4.8691,4.8281,4.8633,4.8516,4.7734,4.8601,4.9032,4.8901,4.8901,4.8705,4.8223,4.8183,4.8183,4.8203,4.8203,4.8418,4.8808,4.894,4.8959,4.8867,4.894,4.894,4.8867,4.8867,4.8867,4.8867,4.8867,4.894,4.9124,4.9931,4.9839,4.9308,5.0114,5.0388,5.0297,4.94,5.0297,5.1569,5.0702,5.1097,5.1811,5.1801,5.2477,5.3447,5.4329,5.3934,5.3333,5.3633,5.3095,5.2536,5.293,5.3424,5.3588,5.3084,5.3049,5.296,5.2483,5.204,5.117,4.9349,0.0,0.0,4.8438,4.8334,4.8831,5.0218,5.0363,5.0363,5.0322,5.0322,5.0322,5.0322,5.0322,5.0322,5.0322,5.0322,5.0135,4.9721,4.8831,4.8376,4.8376,4.7941,4.7693,4.7651,4.85,4.8743,4.8315,4.9156,4.9028,4.8274,4.8163,4.794,4.7609,4.7192,4.7563,4.8333,4.7909,4.8325,4.908,4.91,4.91,4.908,5.123,5.0976,5.0625,5.0039,4.9707,4.9375,4.8926,4.8867,4.8867,4.8867,4.8867,4.8867,4.8867,4.8613,4.8379,4.8223,4.8125,4.793,4.7598,4.7637,4.7891,4.8437,4.8457,4.8262,4.7832,4.7812,4.7949,4.8203,4.8203,4.8437,4.8867,4.8867,4.8867,4.8867,4.8867,4.8867,4.8867,4.8867,4.8867,4.8867,4.8867,4.8867,4.894,4.9308,4.9584,4.9748,4.9492,4.9839,5.0205,4.9216,4.94,4.9951,4.9584,5.0051,5.0925,5.1564,5.2005,5.2465,5.3474,5.3931,5.4101,5.4268,5.3779,5.3395,5.357,5.3805,5.373,5.3254,5.3415,5.3485,5.3008,5.2297,5.1303,4.9758,0.0,4.9556,4.8521,4.91,4.9845,5.0363,5.0425,5.0425,5.0425,5.0425,5.0425,5.0425,5.0425,5.0425,5.0425,5.0156,4.9804,4.9349,4.8707,4.8521,4.881,4.8624,4.8396,4.8127,4.8479,4.8539,4.8369,4.8181,4.8202,4.8349,4.7558,4.7351,4.7707,4.7179,4.7613,4.8363,4.8192,4.8551,4.9059,4.9059,4.9059,4.9059,5.1426,5.1191,5.0859,5.0449,5.0019,4.959,4.9141,4.8945,4.8808,4.8672,4.8652,4.8613,4.8476,4.8183,4.7949,4.7812,4.7676,4.7461,4.7187,4.7012,4.7187,4.7773,4.793,4.7871,4.7578,4.7578,4.7793,4.8203,4.8203,4.8437,4.8867,4.8867,4.8867,4.8867,4.8867,4.8867,4.8867,4.8867,4.8867,4.8867,4.8867,4.8867,4.8867,4.8867,4.9308,4.9768,4.9124,4.9308,4.9748,4.9124,4.8867,4.8867,4.8867,4.9308,5.0022,5.1025,5.1291,5.146,5.2512,5.3174,5.382,5.4431,5.4266,5.409,5.4145,5.4174,5.3984,5.3714,5.3804,5.3756,5.3528,5.2792,5.198,5.1052,5.1061,5.0969,5.0008,5.0697,5.1303,5.1303,5.1303,5.1194,5.1105,5.1016,5.1016,5.086,5.086,5.0798,5.0653,5.0218,4.9763,4.9287,4.8831,4.8748,4.9059,4.8769,4.8479,4.8169,4.8459,4.8603,4.8583,4.8163,4.8266,4.879,4.7722,4.7637,4.8093,4.7817,4.8086,4.863,4.863,4.8802,4.9059,4.9059,4.9059,4.9059,5.1426,5.1426,5.1308,5.0879,5.0449,5.0019,4.959,4.9141,4.8691,4.8262,4.8203,4.8047,4.7617,4.7578,4.7402,4.6973,4.7324,4.7207,4.6367,4.6699,4.6933,4.6933,4.7344,4.7578,4.7578,4.7578,4.7773,4.8203,4.8203,4.8418,4.8848,4.8867,4.8867,4.8867,4.8867,4.8867,4.8867,4.8867,4.8867,4.8867,4.8867,4.8867,4.8867,4.8867,4.8867,4.8867,4.8867,4.8867,4.8867,4.8867,4.8867,4.8867,4.8867,4.8867,4.9032,5.0022,5.0297,5.0479,5.1479,5.1717,5.219,5.4118,5.4613,5.4613,5.4613,5.4613,5.4613,5.4591,5.4251,5.3932,5.3932,5.3549,5.323,5.323,5.323,5.323,5.323,5.323,5.323,5.323,5.323,5.3051,5.2581,5.2492,5.2312,5.1791,5.1791,5.1584,5.1129,5.0673,5.0218,4.9849,4.9307,4.9059,4.9059,4.8148,4.7693,4.7693,4.8624,4.9059,4.908,4.9535,4.9742,4.9808,4.9266,4.9059,4.9059,4.9059,4.9059,4.9059,4.9059,4.9059,4.9059,4.9059,4.9059,4.9059,5.1426,5.1426,5.1308,5.0879,5.0195,4.957,4.9121,4.8437,4.791,4.7793,4.7773,4.7715,4.7598,4.7305,4.707,4.6933,4.6777,4.6582,4.6328,4.6426,4.6484,4.6484,4.6894,4.6992,4.6699,4.668,4.6894,4.7305,4.7617,4.7988,4.8418,4.8711,4.8867,4.8867,4.8867,4.8867,4.8867,4.8867,4.8867,4.8867,4.8867,4.8867,4.8867,4.8867,4.8867,4.8867,4.8867,4.8867,4.8867,4.8867,4.8867,4.8867,4.8867,4.8867,4.894,4.9216,4.9308,4.9492,5.0479,5.0763,5.1148,5.3086,5.3533,5.3772,5.4481,5.4577,5.4582,5.4708,5.4535,5.4426,5.4426,5.4029,5.3676,5.3676,5.3409,5.323,5.323,5.323,5.323,5.323,5.2872,5.2671,5.2492,5.2242,5.1972,5.1791,5.1501,5.1108,5.0653,5.0197,4.9742,4.9287,4.9142,4.9059,4.9059,4.879,4.8645,4.8666,4.8935,4.9059,4.908,4.9204,4.9266,4.9266,4.9121,4.9059,4.9059,4.9059,4.9059,4.9059,4.9059,4.9059,4.9059,4.9059,4.9059,4.9059,5.1426,5.1426,5.1348,5.1094,5.0351,4.9629,4.918,4.8379,4.7715,4.7363,4.7324,4.7266,4.709,4.6836,4.668,4.668,4.6445,4.6308,4.6308,4.6308,4.6308,4.6308,4.6543,4.6562,4.6308,4.6465,4.668,4.6933,4.7539,4.7949,4.8223,4.8652,4.8867,4.8848,4.8672,4.8691,4.8848,4.8672,4.8691,4.8867,4.8867,4.8867,4.8867,4.8867,4.8867,4.8867,4.8867,4.8867,4.8867,4.8867,4.8867,4.8867,4.8867,4.8867,4.8867,4.8867,4.8867,4.9032,4.9584,4.9768,5.0102,5.1646,5.2279,5.279,5.3337,5.3814,5.4087,5.4075,5.4387,5.4741,5.4741,5.4475,5.421,5.421,5.3943,5.3765,5.3765,5.3765,5.3765,5.3765,5.3409,5.294,5.2782,5.2333,5.1972,5.1791,5.1543,5.117,5.0715,5.0446,5.0073,4.9618,4.9431,4.9349,4.9349,4.9162,4.9059,4.9059,4.9059,4.9059,4.9059,4.9059,4.9059,4.9059,4.9059,4.9059,4.9059,4.9059,4.9059,4.9059,4.9059,4.9059,4.9059,4.9059,4.9059,4.9186,5.1426,5.1406,5.1387,5.1426,5.0664,4.9922,4.9531,4.8691,4.7793,4.6973,4.6875,4.6738,4.6348,4.6308,4.6308,4.6308,4.6308,4.6308,4.6308,4.6308,4.6308,4.6308,4.6308,4.6308,4.6308,4.668,4.6875,4.6875,4.7695,4.8086,4.8105,4.8535,4.875,4.873,4.8359,4.8418,4.8769,4.8418,4.8496,4.8867,4.8867,4.8867,4.8867,4.8867,4.8867,4.8867,4.8867,4.8867,4.8867,4.8867,4.8867,4.8867,4.8867,4.8867,4.8867,4.8867,4.8867,4.8867,4.8867,4.8867,4.9124,4.9931,5.0843,5.1569,5.175,5.2471,5.3098,5.3098,5.3833,5.4475,5.4475,5.4475,5.4475,5.4564,5.4564,5.4564,5.4652,5.4741,5.4741,5.4741,5.421,5.3765,5.3319,5.2761,5.2333,5.1791,5.1771,5.1564,5.1129,5.1067,5.086,5.0425,5.0032,4.9804,4.9763,4.9328,4.91,4.9059,4.9059,4.9059,4.9059,4.9059,4.9059,4.9059,4.9059,4.9059,4.9059,4.9059,4.9059,4.9059,4.9059,4.9059,4.9059,4.9059,4.9186,4.9375,5.1426,5.1172,5.1035,5.1367,5.0156,4.9101,4.9023,4.7988,4.7012,4.6504,4.6445,4.6406,4.6308,4.6308,4.6308,4.6308,4.6308,4.6308,4.6308,4.6308,4.6308,4.6308,4.6308,4.6308,4.6308,4.6387,4.6445,4.6445,4.6953,4.7207,4.7207,4.7656,4.7851,4.7871,4.8105,4.8262,4.8359,4.8613,4.8769,4.8867,4.8867,4.8867,4.8867,4.8867,4.8867,4.8867,4.8867,4.8867,4.8867,4.8867,4.8867,4.8867,4.8867,4.8867,4.8867,4.8867,4.8867,4.8867,4.8867,4.8867,4.894,4.9124,4.94,4.9951,5.1479,5.193,5.2111,5.2111,5.2291,5.2381,5.2381,5.2381,5.2671,5.3387,5.3544,5.3833,5.4564,5.4741,5.4741,5.4741,5.421,5.3833,5.3765,5.294,5.2333,5.1791,5.146,5.1212,5.1108,5.0756,5.0529,5.0425,5.0322,5.0115,4.9763,4.9746,4.9431,4.9059,4.9059,4.9059,4.9059,4.9059,4.9059,4.9059,4.9059,4.9059,4.9059,4.9059,4.9059,4.9059,4.9059,4.9059,4.9059,4.9059,4.9565,5.0285,5.1172,5.0957,5.082,5.082,4.9922,4.9101,4.8887,4.793,4.709,4.666,4.6426,4.6308,4.6308,4.6308,4.6308,4.6308,4.6308,4.6308,4.6308,4.6308,4.6308,4.6308,4.6308,4.6308,4.6308,4.6308,4.6308,4.6308,4.6719,4.6933,4.6933,4.7383,4.7578,4.7598,4.7812,4.8027,4.8223,4.8457,4.8672,4.8867,4.8867,4.8867,4.8867,4.8867,4.8867,4.8867,4.8867,4.8867,4.8867,4.8867,4.8867,4.8867,4.8867,4.8867,4.8867,4.8867,4.8867,4.8867,4.8867,4.8867,4.8867,4.8867,4.8867,4.9124,5.0205,5.0752,5.1116,5.1116,5.1479,5.175,5.175,5.175,5.193,5.2471,5.256,5.2829,5.3833,5.401,5.4188,5.4652,5.421,5.3833,5.3587,5.314,5.2692,5.2513,5.1804,5.1444,5.1444,5.0762,5.0425,5.0425,5.0218,4.999,4.9763,4.9535,4.9307,4.9059,4.9059,4.9059,4.9059,4.9059,4.9059,4.9059,4.9059,4.9059,4.9059,4.9059,4.9059,4.9059,4.9059,4.9059,4.9059,4.9059,5.0011,5.1289,5.0879,5.0742,5.0586,5.0234,4.9746,4.9297,4.8906,4.8183,4.7539,4.709,4.668,4.6406,4.6406,4.6348,4.6308,4.6308,4.6308,4.6308,4.6308,4.6308,4.6308,4.6308,4.6308,4.6308,4.6308,4.6308,4.6308,4.6308,4.6641,4.6816,4.6836,4.7187,4.7402,4.748,4.7539,4.7812,4.8223,4.8281,4.8476,4.875,4.8828,4.8808,4.875,4.8828,4.8867,4.8867,4.8867,4.8867,4.8867,4.8867,4.8867,4.8867,4.8867,4.8867,4.8867,4.8867,4.8867,4.8867,4.8867,4.8867,4.8867,4.8867,4.8867,4.8867,4.8867,4.9492,5.0022,5.0022,5.0752,5.1297,5.1297,5.1297,5.1388,5.1479,5.1569,5.184,5.2829,5.2919,5.3277,5.4121,5.3833,5.3387,5.2872,5.2872,5.2851,5.2766,5.203,5.158,5.1605,5.0788,5.0425,5.0425,5.0073,4.9825,4.9763,4.9369,4.9142,4.9059,4.9059,4.9059,4.9059,4.9059,4.9059,4.9059,4.9059,4.9059,4.9059,4.9059,4.9059,4.9059,4.9059,4.9059,4.9165,4.9503,5.0563,5.2106,5.0879,5.0508,5.0254,5.0195,4.9492,4.8926,4.8867,4.8437,4.7969,4.7539,4.7109,4.6836,4.6836,4.6523,4.6308,4.6308,4.6308,4.6308,4.6308,4.6308,4.6308,4.6308,4.6308,4.6308,4.6308,4.6308,4.6308,4.6308,4.6367,4.6387,4.6387,4.6445,4.666,4.7031,4.7422,4.7812,4.8223,4.8613,4.8594,4.832,4.8711,4.8633,4.834,4.8711,4.8867,4.8867,4.8867,4.8867,4.8867,4.8867,4.8867,4.8867,4.8867,4.8867,4.8867,4.8867,4.8867,4.8867,4.8867,4.8867,4.8867,4.8867,4.8867,4.8867,4.8867,4.9032,4.9124,4.9124,4.9216,4.9308,4.9308,4.9308,4.9584,5.0388,5.0479,5.0843,5.184,5.2021,5.2021,5.2201,5.2111,5.1861,5.1318,5.1318,5.1265,5.0764,5.0682,5.0566,5.0617,5.0446,5.0425,5.0425,5.0363,5.0156,4.9763,4.9787,4.9452,4.9059,4.9059,4.9059,4.9059,4.9059,4.9059,4.9059,4.9059,4.9059,4.9059,4.9059,4.9059,4.9059,4.9059,4.9059,4.9334,5.0926,5.1654,5.2149,5.0215,4.9941,4.9726,4.9473,4.9121,4.8867,4.8867,4.8476,4.8144,4.7949,4.7558,4.7285,4.7285,4.6914,4.6562,4.6328,4.6308,4.6308,4.6308,4.6308,4.6308,4.6308,4.6308,4.6308,4.6308,4.6308,4.6308,4.6308,4.6308,4.6308,4.6308,4.6308,4.6406,4.6601,4.7031,4.7324,4.7519,4.7949,4.8164,4.8223,4.8418,4.8535,4.8594,4.8789,4.8867,4.8867,4.8867,4.8867,4.8867,4.8867,4.8867,4.8867,4.8867,4.8867,4.8867,4.8867,4.8867,4.8867,4.8867,4.8867,4.8867,4.8867,4.8867,4.8867,4.8867,4.8867,4.8867,4.8867,4.8867,4.8867,4.8867,4.8867,4.9032,4.9492,4.9492,4.9839,5.0843,5.0934,5.1207,5.175,5.175,5.1659,5.1479,5.1499,5.1417,5.1211,5.0695,5.0367,5.0446,4.9914,4.9666,4.968,4.9659,4.9576,4.9369,4.9369,4.9266,4.9059,4.9059,4.9059,4.9059,4.9059,4.9059,4.9059,4.9059,4.9059,4.9059,4.9059,4.9059,4.9059,4.9059,4.9059,4.9227,5.0605,5.1461,5.2106]}]]